<?xml version="1.0" encoding="UTF-8" standalone="no" ?>
<gpx xmlns="http://www.topografix.com/GPX/1/1" xmlns:xsi="http://www.w3.org/2001/XMLSchema-instance" xsi:schemaLocation="http://www.topografix.com/GPX/1/1 http://www.topografix.com/GPX/1/1/gpx.xsd" version="1.1" creator="VisuGPX - https://www.visugpx.com">
  <metadata>
    <name>Le Mont Noir </name>
    <desc><![CDATA[Virée dans le Mont-Noir au départ du Marechet. 
Succession de sous-bois et de combes typiques du Haut-Jura.
Cheminement sur une partie de la bike du Mont-Noir (jusqu\\\'au glacier de Morbier.
Retour par la croix des Besses.

]]></desc>
  </metadata>
  <trk>
    <name><![CDATA[Tracé 001]]></name>
    <trkseg>
      <trkpt lat="46.61882" lon="6.01896">
        <ele>922.52</ele>
        <time>2011-10-15T09:55:25Z</time>
      </trkpt>
      <trkpt lat="46.61873" lon="6.01949">
        <ele>922.04</ele>
        <time>2011-10-15T09:55:35Z</time>
      </trkpt>
      <trkpt lat="46.61867" lon="6.01978">
        <ele>922.52</ele>
        <time>2011-10-15T09:55:40Z</time>
      </trkpt>
      <trkpt lat="46.61865" lon="6.01983">
        <ele>923</ele>
        <time>2011-10-15T09:55:41Z</time>
      </trkpt>
      <trkpt lat="46.61864" lon="6.01989">
        <ele>923</ele>
        <time>2011-10-15T09:55:42Z</time>
      </trkpt>
      <trkpt lat="46.61837" lon="6.02031">
        <ele>923.48</ele>
        <time>2011-10-15T09:55:53Z</time>
      </trkpt>
      <trkpt lat="46.61802" lon="6.02051">
        <ele>923</ele>
        <time>2011-10-15T09:56:03Z</time>
      </trkpt>
      <trkpt lat="46.61795" lon="6.02057">
        <ele>922.52</ele>
        <time>2011-10-15T09:56:05Z</time>
      </trkpt>
      <trkpt lat="46.61744" lon="6.02065">
        <ele>922.52</ele>
        <time>2011-10-15T09:56:19Z</time>
      </trkpt>
      <trkpt lat="46.61704" lon="6.02047">
        <ele>922.52</ele>
        <time>2011-10-15T09:56:31Z</time>
      </trkpt>
      <trkpt lat="46.617" lon="6.02045">
        <ele>922.04</ele>
        <time>2011-10-15T09:56:32Z</time>
      </trkpt>
      <trkpt lat="46.61696" lon="6.02042">
        <ele>922.04</ele>
        <time>2011-10-15T09:56:33Z</time>
      </trkpt>
      <trkpt lat="46.61692" lon="6.02039">
        <ele>923</ele>
        <time>2011-10-15T09:56:34Z</time>
      </trkpt>
      <trkpt lat="46.61639" lon="6.01992">
        <ele>923.48</ele>
        <time>2011-10-15T09:56:49Z</time>
      </trkpt>
      <trkpt lat="46.616" lon="6.01963">
        <ele>925.41</ele>
        <time>2011-10-15T09:57:03Z</time>
      </trkpt>
      <trkpt lat="46.6156" lon="6.01947">
        <ele>925.41</ele>
        <time>2011-10-15T09:57:19Z</time>
      </trkpt>
      <trkpt lat="46.61528" lon="6.01935">
        <ele>926.85</ele>
        <time>2011-10-15T09:57:31Z</time>
      </trkpt>
      <trkpt lat="46.61497" lon="6.01922">
        <ele>928.77</ele>
        <time>2011-10-15T09:57:44Z</time>
      </trkpt>
      <trkpt lat="46.61492" lon="6.01918">
        <ele>929.25</ele>
        <time>2011-10-15T09:57:53Z</time>
      </trkpt>
      <trkpt lat="46.61491" lon="6.01917">
        <ele>929.25</ele>
        <time>2011-10-15T09:57:54Z</time>
      </trkpt>
      <trkpt lat="46.61488" lon="6.01916">
        <ele>928.29</ele>
        <time>2011-10-15T09:57:58Z</time>
      </trkpt>
      <trkpt lat="46.61487" lon="6.01915">
        <ele>928.77</ele>
        <time>2011-10-15T09:57:59Z</time>
      </trkpt>
      <trkpt lat="46.61486" lon="6.01914">
        <ele>929.25</ele>
        <time>2011-10-15T09:58:00Z</time>
      </trkpt>
      <trkpt lat="46.61471" lon="6.01896">
        <ele>929.25</ele>
        <time>2011-10-15T09:58:12Z</time>
      </trkpt>
      <trkpt lat="46.61454" lon="6.01864">
        <ele>930.69</ele>
        <time>2011-10-15T09:58:28Z</time>
      </trkpt>
      <trkpt lat="46.61451" lon="6.0186">
        <ele>930.69</ele>
        <time>2011-10-15T09:58:30Z</time>
      </trkpt>
      <trkpt lat="46.6145" lon="6.01857">
        <ele>931.17</ele>
        <time>2011-10-15T09:58:31Z</time>
      </trkpt>
      <trkpt lat="46.6145" lon="6.01855">
        <ele>931.65</ele>
        <time>2011-10-15T09:58:32Z</time>
      </trkpt>
      <trkpt lat="46.61449" lon="6.01853">
        <ele>932.14</ele>
        <time>2011-10-15T09:58:33Z</time>
      </trkpt>
      <trkpt lat="46.61449" lon="6.0185">
        <ele>931.65</ele>
        <time>2011-10-15T09:58:34Z</time>
      </trkpt>
      <trkpt lat="46.61445" lon="6.01805">
        <ele>933.1</ele>
        <time>2011-10-15T09:58:49Z</time>
      </trkpt>
      <trkpt lat="46.6145" lon="6.01751">
        <ele>932.62</ele>
        <time>2011-10-15T09:59:03Z</time>
      </trkpt>
      <trkpt lat="46.6145" lon="6.01743">
        <ele>933.1</ele>
        <time>2011-10-15T09:59:05Z</time>
      </trkpt>
      <trkpt lat="46.6145" lon="6.01738">
        <ele>933.58</ele>
        <time>2011-10-15T09:59:06Z</time>
      </trkpt>
      <trkpt lat="46.61448" lon="6.01694">
        <ele>935.5</ele>
        <time>2011-10-15T09:59:17Z</time>
      </trkpt>
      <trkpt lat="46.61434" lon="6.01651">
        <ele>935.98</ele>
        <time>2011-10-15T09:59:29Z</time>
      </trkpt>
      <trkpt lat="46.61417" lon="6.01612">
        <ele>937.9</ele>
        <time>2011-10-15T09:59:42Z</time>
      </trkpt>
      <trkpt lat="46.61402" lon="6.01578">
        <ele>938.86</ele>
        <time>2011-10-15T09:59:54Z</time>
      </trkpt>
      <trkpt lat="46.61379" lon="6.01538">
        <ele>940.79</ele>
        <time>2011-10-15T10:00:08Z</time>
      </trkpt>
      <trkpt lat="46.61356" lon="6.01503">
        <ele>941.27</ele>
        <time>2011-10-15T10:00:21Z</time>
      </trkpt>
      <trkpt lat="46.61336" lon="6.01472">
        <ele>942.23</ele>
        <time>2011-10-15T10:00:33Z</time>
      </trkpt>
      <trkpt lat="46.61315" lon="6.01446">
        <ele>944.15</ele>
        <time>2011-10-15T10:00:44Z</time>
      </trkpt>
      <trkpt lat="46.61287" lon="6.01421">
        <ele>944.63</ele>
        <time>2011-10-15T10:00:57Z</time>
      </trkpt>
      <trkpt lat="46.61261" lon="6.01401">
        <ele>946.07</ele>
        <time>2011-10-15T10:01:08Z</time>
      </trkpt>
      <trkpt lat="46.61229" lon="6.01375">
        <ele>946.56</ele>
        <time>2011-10-15T10:01:22Z</time>
      </trkpt>
      <trkpt lat="46.61201" lon="6.01343">
        <ele>947.04</ele>
        <time>2011-10-15T10:01:35Z</time>
      </trkpt>
      <trkpt lat="46.61182" lon="6.01303">
        <ele>946.56</ele>
        <time>2011-10-15T10:01:47Z</time>
      </trkpt>
      <trkpt lat="46.61163" lon="6.01249">
        <ele>945.59</ele>
        <time>2011-10-15T10:02:01Z</time>
      </trkpt>
      <trkpt lat="46.6115" lon="6.01192">
        <ele>945.59</ele>
        <time>2011-10-15T10:02:13Z</time>
      </trkpt>
      <trkpt lat="46.61153" lon="6.01131">
        <ele>944.15</ele>
        <time>2011-10-15T10:02:26Z</time>
      </trkpt>
      <trkpt lat="46.61171" lon="6.01079">
        <ele>941.75</ele>
        <time>2011-10-15T10:02:38Z</time>
      </trkpt>
      <trkpt lat="46.61193" lon="6.01028">
        <ele>940.79</ele>
        <time>2011-10-15T10:02:50Z</time>
      </trkpt>
      <trkpt lat="46.61217" lon="6.0097">
        <ele>939.35</ele>
        <time>2011-10-15T10:03:01Z</time>
      </trkpt>
      <trkpt lat="46.61224" lon="6.00941">
        <ele>938.38</ele>
        <time>2011-10-15T10:03:06Z</time>
      </trkpt>
      <trkpt lat="46.61225" lon="6.00929">
        <ele>938.38</ele>
        <time>2011-10-15T10:03:08Z</time>
      </trkpt>
      <trkpt lat="46.61226" lon="6.00923">
        <ele>938.38</ele>
        <time>2011-10-15T10:03:09Z</time>
      </trkpt>
      <trkpt lat="46.61226" lon="6.00918">
        <ele>936.94</ele>
        <time>2011-10-15T10:03:10Z</time>
      </trkpt>
      <trkpt lat="46.61225" lon="6.00912">
        <ele>937.9</ele>
        <time>2011-10-15T10:03:11Z</time>
      </trkpt>
      <trkpt lat="46.61225" lon="6.00907">
        <ele>937.42</ele>
        <time>2011-10-15T10:03:12Z</time>
      </trkpt>
      <trkpt lat="46.61216" lon="6.0085">
        <ele>936.46</ele>
        <time>2011-10-15T10:03:23Z</time>
      </trkpt>
      <trkpt lat="46.61182" lon="6.00801">
        <ele>936.46</ele>
        <time>2011-10-15T10:03:36Z</time>
      </trkpt>
      <trkpt lat="46.61145" lon="6.00772">
        <ele>935.98</ele>
        <time>2011-10-15T10:03:49Z</time>
      </trkpt>
      <trkpt lat="46.61104" lon="6.00739">
        <ele>935.5</ele>
        <time>2011-10-15T10:04:02Z</time>
      </trkpt>
      <trkpt lat="46.6104" lon="6.00684">
        <ele>936.94</ele>
        <time>2011-10-15T10:04:21Z</time>
      </trkpt>
      <trkpt lat="46.61017" lon="6.00647">
        <ele>936.94</ele>
        <time>2011-10-15T10:04:32Z</time>
      </trkpt>
      <trkpt lat="46.61013" lon="6.00636">
        <ele>935.98</ele>
        <time>2011-10-15T10:04:37Z</time>
      </trkpt>
      <trkpt lat="46.61012" lon="6.00632">
        <ele>935.5</ele>
        <time>2011-10-15T10:04:38Z</time>
      </trkpt>
      <trkpt lat="46.6101" lon="6.00629">
        <ele>936.94</ele>
        <time>2011-10-15T10:04:39Z</time>
      </trkpt>
      <trkpt lat="46.61009" lon="6.00625">
        <ele>936.46</ele>
        <time>2011-10-15T10:04:40Z</time>
      </trkpt>
      <trkpt lat="46.61007" lon="6.00621">
        <ele>935.5</ele>
        <time>2011-10-15T10:04:41Z</time>
      </trkpt>
      <trkpt lat="46.61006" lon="6.00617">
        <ele>935.98</ele>
        <time>2011-10-15T10:04:42Z</time>
      </trkpt>
      <trkpt lat="46.60983" lon="6.00563">
        <ele>936.46</ele>
        <time>2011-10-15T10:04:55Z</time>
      </trkpt>
      <trkpt lat="46.6096" lon="6.00508">
        <ele>935.5</ele>
        <time>2011-10-15T10:05:07Z</time>
      </trkpt>
      <trkpt lat="46.60937" lon="6.00444">
        <ele>934.06</ele>
        <time>2011-10-15T10:05:19Z</time>
      </trkpt>
      <trkpt lat="46.60936" lon="6.00437">
        <ele>933.58</ele>
        <time>2011-10-15T10:05:20Z</time>
      </trkpt>
      <trkpt lat="46.60935" lon="6.00431">
        <ele>934.06</ele>
        <time>2011-10-15T10:05:21Z</time>
      </trkpt>
      <trkpt lat="46.60934" lon="6.00426">
        <ele>932.62</ele>
        <time>2011-10-15T10:05:22Z</time>
      </trkpt>
      <trkpt lat="46.60933" lon="6.00419">
        <ele>933.58</ele>
        <time>2011-10-15T10:05:23Z</time>
      </trkpt>
      <trkpt lat="46.60932" lon="6.00413">
        <ele>932.62</ele>
        <time>2011-10-15T10:05:24Z</time>
      </trkpt>
      <trkpt lat="46.60932" lon="6.00406">
        <ele>933.1</ele>
        <time>2011-10-15T10:05:25Z</time>
      </trkpt>
      <trkpt lat="46.60931" lon="6.00386">
        <ele>932.62</ele>
        <time>2011-10-15T10:05:28Z</time>
      </trkpt>
      <trkpt lat="46.60925" lon="6.00311">
        <ele>930.69</ele>
        <time>2011-10-15T10:05:39Z</time>
      </trkpt>
      <trkpt lat="46.60917" lon="6.00239">
        <ele>931.17</ele>
        <time>2011-10-15T10:05:52Z</time>
      </trkpt>
      <trkpt lat="46.60901" lon="6.00161">
        <ele>931.17</ele>
        <time>2011-10-15T10:06:06Z</time>
      </trkpt>
      <trkpt lat="46.60896" lon="6.00134">
        <ele>932.62</ele>
        <time>2011-10-15T10:06:11Z</time>
      </trkpt>
      <trkpt lat="46.6089" lon="6.00129">
        <ele>931.17</ele>
        <time>2011-10-15T10:06:13Z</time>
      </trkpt>
      <trkpt lat="46.60887" lon="6.00129">
        <ele>931.65</ele>
        <time>2011-10-15T10:06:14Z</time>
      </trkpt>
      <trkpt lat="46.60883" lon="6.00127">
        <ele>931.17</ele>
        <time>2011-10-15T10:06:15Z</time>
      </trkpt>
      <trkpt lat="46.6088" lon="6.00124">
        <ele>931.65</ele>
        <time>2011-10-15T10:06:16Z</time>
      </trkpt>
      <trkpt lat="46.60876" lon="6.0012">
        <ele>931.17</ele>
        <time>2011-10-15T10:06:17Z</time>
      </trkpt>
      <trkpt lat="46.60874" lon="6.00116">
        <ele>931.17</ele>
        <time>2011-10-15T10:06:18Z</time>
      </trkpt>
      <trkpt lat="46.60849" lon="6.00077">
        <ele>932.14</ele>
        <time>2011-10-15T10:06:28Z</time>
      </trkpt>
      <trkpt lat="46.60842" lon="6.00064">
        <ele>932.14</ele>
        <time>2011-10-15T10:06:31Z</time>
      </trkpt>
      <trkpt lat="46.60839" lon="6.00059">
        <ele>933.1</ele>
        <time>2011-10-15T10:06:32Z</time>
      </trkpt>
      <trkpt lat="46.60801" lon="6.00017">
        <ele>935.02</ele>
        <time>2011-10-15T10:06:46Z</time>
      </trkpt>
      <trkpt lat="46.60768" lon="5.99997">
        <ele>935.02</ele>
        <time>2011-10-15T10:06:57Z</time>
      </trkpt>
      <trkpt lat="46.6074" lon="5.99988">
        <ele>935.5</ele>
        <time>2011-10-15T10:07:08Z</time>
      </trkpt>
      <trkpt lat="46.60721" lon="5.99985">
        <ele>923.96</ele>
        <time>2011-10-15T10:07:15Z</time>
      </trkpt>
      <trkpt lat="46.60718" lon="5.99984">
        <ele>935.02</ele>
        <time>2011-10-15T10:07:16Z</time>
      </trkpt>
      <trkpt lat="46.6071" lon="5.99982">
        <ele>936.94</ele>
        <time>2011-10-15T10:07:19Z</time>
      </trkpt>
      <trkpt lat="46.60705" lon="5.99981">
        <ele>935.5</ele>
        <time>2011-10-15T10:07:21Z</time>
      </trkpt>
      <trkpt lat="46.60684" lon="5.99979">
        <ele>936.46</ele>
        <time>2011-10-15T10:07:32Z</time>
      </trkpt>
      <trkpt lat="46.60684" lon="5.99979">
        <ele>933.1</ele>
        <time>2011-10-15T10:07:34Z</time>
      </trkpt>
      <trkpt lat="46.60684" lon="5.99979">
        <ele>941.27</ele>
        <time>2011-10-15T10:07:36Z</time>
      </trkpt>
      <trkpt lat="46.60684" lon="5.99979">
        <ele>937.42</ele>
        <time>2011-10-15T10:07:37Z</time>
      </trkpt>
      <trkpt lat="46.60684" lon="5.99979">
        <ele>935.98</ele>
        <time>2011-10-15T10:07:44Z</time>
      </trkpt>
      <trkpt lat="46.60661" lon="5.9999">
        <ele>935.98</ele>
        <time>2011-10-15T10:07:54Z</time>
      </trkpt>
      <trkpt lat="46.60627" lon="5.99983">
        <ele>935.98</ele>
        <time>2011-10-15T10:08:07Z</time>
      </trkpt>
      <trkpt lat="46.60597" lon="5.99978">
        <ele>935.02</ele>
        <time>2011-10-15T10:08:18Z</time>
      </trkpt>
      <trkpt lat="46.60562" lon="6.00003">
        <ele>934.06</ele>
        <time>2011-10-15T10:08:26Z</time>
      </trkpt>
      <trkpt lat="46.60498" lon="6.00076">
        <ele>931.17</ele>
        <time>2011-10-15T10:08:38Z</time>
      </trkpt>
      <trkpt lat="46.60443" lon="6.00139">
        <ele>929.73</ele>
        <time>2011-10-15T10:08:49Z</time>
      </trkpt>
      <trkpt lat="46.60434" lon="6.00151">
        <ele>929.73</ele>
        <time>2011-10-15T10:08:51Z</time>
      </trkpt>
      <trkpt lat="46.60425" lon="6.00161">
        <ele>929.25</ele>
        <time>2011-10-15T10:08:53Z</time>
      </trkpt>
      <trkpt lat="46.60374" lon="6.00217">
        <ele>930.69</ele>
        <time>2011-10-15T10:09:07Z</time>
      </trkpt>
      <trkpt lat="46.60344" lon="6.00253">
        <ele>932.14</ele>
        <time>2011-10-15T10:09:19Z</time>
      </trkpt>
      <trkpt lat="46.6032" lon="6.00289">
        <ele>934.06</ele>
        <time>2011-10-15T10:09:32Z</time>
      </trkpt>
      <trkpt lat="46.60316" lon="6.00323">
        <ele>937.42</ele>
        <time>2011-10-15T10:09:43Z</time>
      </trkpt>
      <trkpt lat="46.60316" lon="6.00375">
        <ele>940.31</ele>
        <time>2011-10-15T10:09:59Z</time>
      </trkpt>
      <trkpt lat="46.60315" lon="6.00381">
        <ele>940.79</ele>
        <time>2011-10-15T10:10:01Z</time>
      </trkpt>
      <trkpt lat="46.60297" lon="6.00409">
        <ele>942.71</ele>
        <time>2011-10-15T10:10:14Z</time>
      </trkpt>
      <trkpt lat="46.60268" lon="6.00427">
        <ele>944.15</ele>
        <time>2011-10-15T10:10:30Z</time>
      </trkpt>
      <trkpt lat="46.60249" lon="6.00439">
        <ele>946.56</ele>
        <time>2011-10-15T10:10:41Z</time>
      </trkpt>
      <trkpt lat="46.60243" lon="6.00446">
        <ele>947.04</ele>
        <time>2011-10-15T10:10:45Z</time>
      </trkpt>
      <trkpt lat="46.60229" lon="6.00469">
        <ele>948.48</ele>
        <time>2011-10-15T10:10:55Z</time>
      </trkpt>
      <trkpt lat="46.60228" lon="6.00471">
        <ele>949.44</ele>
        <time>2011-10-15T10:10:56Z</time>
      </trkpt>
      <trkpt lat="46.60227" lon="6.00474">
        <ele>949.92</ele>
        <time>2011-10-15T10:10:57Z</time>
      </trkpt>
      <trkpt lat="46.60226" lon="6.00477">
        <ele>948</ele>
        <time>2011-10-15T10:10:58Z</time>
      </trkpt>
      <trkpt lat="46.60225" lon="6.00479">
        <ele>950.4</ele>
        <time>2011-10-15T10:10:59Z</time>
      </trkpt>
      <trkpt lat="46.60215" lon="6.005">
        <ele>951.36</ele>
        <time>2011-10-15T10:11:10Z</time>
      </trkpt>
      <trkpt lat="46.60214" lon="6.00502">
        <ele>951.84</ele>
        <time>2011-10-15T10:11:11Z</time>
      </trkpt>
      <trkpt lat="46.60213" lon="6.00504">
        <ele>951.36</ele>
        <time>2011-10-15T10:11:12Z</time>
      </trkpt>
      <trkpt lat="46.60212" lon="6.00505">
        <ele>951.84</ele>
        <time>2011-10-15T10:11:13Z</time>
      </trkpt>
      <trkpt lat="46.6021" lon="6.00506">
        <ele>951.84</ele>
        <time>2011-10-15T10:11:14Z</time>
      </trkpt>
      <trkpt lat="46.60208" lon="6.00509">
        <ele>951.36</ele>
        <time>2011-10-15T10:11:16Z</time>
      </trkpt>
      <trkpt lat="46.60205" lon="6.00512">
        <ele>951.84</ele>
        <time>2011-10-15T10:11:18Z</time>
      </trkpt>
      <trkpt lat="46.60204" lon="6.00514">
        <ele>952.8</ele>
        <time>2011-10-15T10:11:19Z</time>
      </trkpt>
      <trkpt lat="46.60203" lon="6.00516">
        <ele>951.84</ele>
        <time>2011-10-15T10:11:20Z</time>
      </trkpt>
      <trkpt lat="46.60201" lon="6.00519">
        <ele>952.8</ele>
        <time>2011-10-15T10:11:21Z</time>
      </trkpt>
      <trkpt lat="46.60199" lon="6.00521">
        <ele>953.28</ele>
        <time>2011-10-15T10:11:22Z</time>
      </trkpt>
      <trkpt lat="46.60173" lon="6.00538">
        <ele>955.21</ele>
        <time>2011-10-15T10:11:35Z</time>
      </trkpt>
      <trkpt lat="46.60169" lon="6.00539">
        <ele>954.25</ele>
        <time>2011-10-15T10:11:37Z</time>
      </trkpt>
      <trkpt lat="46.60168" lon="6.00538">
        <ele>945.11</ele>
        <time>2011-10-15T10:11:38Z</time>
      </trkpt>
      <trkpt lat="46.60167" lon="6.00539">
        <ele>953.77</ele>
        <time>2011-10-15T10:11:39Z</time>
      </trkpt>
      <trkpt lat="46.60145" lon="6.00538">
        <ele>955.69</ele>
        <time>2011-10-15T10:11:50Z</time>
      </trkpt>
      <trkpt lat="46.60134" lon="6.00538">
        <ele>956.17</ele>
        <time>2011-10-15T10:11:56Z</time>
      </trkpt>
      <trkpt lat="46.60131" lon="6.00537">
        <ele>956.17</ele>
        <time>2011-10-15T10:11:57Z</time>
      </trkpt>
      <trkpt lat="46.60099" lon="6.00521">
        <ele>957.13</ele>
        <time>2011-10-15T10:12:09Z</time>
      </trkpt>
      <trkpt lat="46.6006" lon="6.00509">
        <ele>959.53</ele>
        <time>2011-10-15T10:12:23Z</time>
      </trkpt>
      <trkpt lat="46.60016" lon="6.00502">
        <ele>958.57</ele>
        <time>2011-10-15T10:12:37Z</time>
      </trkpt>
      <trkpt lat="46.59992" lon="6.0049">
        <ele>960.98</ele>
        <time>2011-10-15T10:12:46Z</time>
      </trkpt>
      <trkpt lat="46.5997" lon="6.00472">
        <ele>962.42</ele>
        <time>2011-10-15T10:12:55Z</time>
      </trkpt>
      <trkpt lat="46.59965" lon="6.00465">
        <ele>962.9</ele>
        <time>2011-10-15T10:12:57Z</time>
      </trkpt>
      <trkpt lat="46.59934" lon="6.0044">
        <ele>963.38</ele>
        <time>2011-10-15T10:13:08Z</time>
      </trkpt>
      <trkpt lat="46.59906" lon="6.00427">
        <ele>965.3</ele>
        <time>2011-10-15T10:13:18Z</time>
      </trkpt>
      <trkpt lat="46.59901" lon="6.00424">
        <ele>963.86</ele>
        <time>2011-10-15T10:13:20Z</time>
      </trkpt>
      <trkpt lat="46.59886" lon="6.00412">
        <ele>962.42</ele>
        <time>2011-10-15T10:13:25Z</time>
      </trkpt>
      <trkpt lat="46.59881" lon="6.00407">
        <ele>962.42</ele>
        <time>2011-10-15T10:13:26Z</time>
      </trkpt>
      <trkpt lat="46.59877" lon="6.00401">
        <ele>961.94</ele>
        <time>2011-10-15T10:13:27Z</time>
      </trkpt>
      <trkpt lat="46.59872" lon="6.00394">
        <ele>960.49</ele>
        <time>2011-10-15T10:13:28Z</time>
      </trkpt>
      <trkpt lat="46.59841" lon="6.00341">
        <ele>958.09</ele>
        <time>2011-10-15T10:13:35Z</time>
      </trkpt>
      <trkpt lat="46.59837" lon="6.00332">
        <ele>959.05</ele>
        <time>2011-10-15T10:13:36Z</time>
      </trkpt>
      <trkpt lat="46.59833" lon="6.00325">
        <ele>958.09</ele>
        <time>2011-10-15T10:13:37Z</time>
      </trkpt>
      <trkpt lat="46.59828" lon="6.00316">
        <ele>957.13</ele>
        <time>2011-10-15T10:13:38Z</time>
      </trkpt>
      <trkpt lat="46.59824" lon="6.00307">
        <ele>958.09</ele>
        <time>2011-10-15T10:13:39Z</time>
      </trkpt>
      <trkpt lat="46.59813" lon="6.00282">
        <ele>956.65</ele>
        <time>2011-10-15T10:13:42Z</time>
      </trkpt>
      <trkpt lat="46.59808" lon="6.00275">
        <ele>956.65</ele>
        <time>2011-10-15T10:13:43Z</time>
      </trkpt>
      <trkpt lat="46.59802" lon="6.00269">
        <ele>957.61</ele>
        <time>2011-10-15T10:13:44Z</time>
      </trkpt>
      <trkpt lat="46.59772" lon="6.00237">
        <ele>952.8</ele>
        <time>2011-10-15T10:13:49Z</time>
      </trkpt>
      <trkpt lat="46.59766" lon="6.00229">
        <ele>953.28</ele>
        <time>2011-10-15T10:13:50Z</time>
      </trkpt>
      <trkpt lat="46.59738" lon="6.00191">
        <ele>951.36</ele>
        <time>2011-10-15T10:13:54Z</time>
      </trkpt>
      <trkpt lat="46.59731" lon="6.00179">
        <ele>950.4</ele>
        <time>2011-10-15T10:13:55Z</time>
      </trkpt>
      <trkpt lat="46.59726" lon="6.00166">
        <ele>950.88</ele>
        <time>2011-10-15T10:13:56Z</time>
      </trkpt>
      <trkpt lat="46.59722" lon="6.00153">
        <ele>949.92</ele>
        <time>2011-10-15T10:13:57Z</time>
      </trkpt>
      <trkpt lat="46.59712" lon="6.00058">
        <ele>946.56</ele>
        <time>2011-10-15T10:14:04Z</time>
      </trkpt>
      <trkpt lat="46.59704" lon="5.99958">
        <ele>948.48</ele>
        <time>2011-10-15T10:14:15Z</time>
      </trkpt>
      <trkpt lat="46.59703" lon="5.99942">
        <ele>949.92</ele>
        <time>2011-10-15T10:14:18Z</time>
      </trkpt>
      <trkpt lat="46.59697" lon="5.99889">
        <ele>951.84</ele>
        <time>2011-10-15T10:14:29Z</time>
      </trkpt>
      <trkpt lat="46.59685" lon="5.99844">
        <ele>950.4</ele>
        <time>2011-10-15T10:14:38Z</time>
      </trkpt>
      <trkpt lat="46.59669" lon="5.99794">
        <ele>946.07</ele>
        <time>2011-10-15T10:14:47Z</time>
      </trkpt>
      <trkpt lat="46.59667" lon="5.99787">
        <ele>951.36</ele>
        <time>2011-10-15T10:14:48Z</time>
      </trkpt>
      <trkpt lat="46.59666" lon="5.99781">
        <ele>949.92</ele>
        <time>2011-10-15T10:14:49Z</time>
      </trkpt>
      <trkpt lat="46.59663" lon="5.99744">
        <ele>948.96</ele>
        <time>2011-10-15T10:14:54Z</time>
      </trkpt>
      <trkpt lat="46.59664" lon="5.99736">
        <ele>949.92</ele>
        <time>2011-10-15T10:14:55Z</time>
      </trkpt>
      <trkpt lat="46.59687" lon="5.99637">
        <ele>948.48</ele>
        <time>2011-10-15T10:15:07Z</time>
      </trkpt>
      <trkpt lat="46.59691" lon="5.99611">
        <ele>948.48</ele>
        <time>2011-10-15T10:15:11Z</time>
      </trkpt>
      <trkpt lat="46.59691" lon="5.99605">
        <ele>948.48</ele>
        <time>2011-10-15T10:15:12Z</time>
      </trkpt>
      <trkpt lat="46.59691" lon="5.99598">
        <ele>948.96</ele>
        <time>2011-10-15T10:15:13Z</time>
      </trkpt>
      <trkpt lat="46.5969" lon="5.99578">
        <ele>947.52</ele>
        <time>2011-10-15T10:15:16Z</time>
      </trkpt>
      <trkpt lat="46.59695" lon="5.99513">
        <ele>949.44</ele>
        <time>2011-10-15T10:15:29Z</time>
      </trkpt>
      <trkpt lat="46.59712" lon="5.99468">
        <ele>948</ele>
        <time>2011-10-15T10:15:39Z</time>
      </trkpt>
      <trkpt lat="46.59714" lon="5.99462">
        <ele>947.52</ele>
        <time>2011-10-15T10:15:40Z</time>
      </trkpt>
      <trkpt lat="46.59719" lon="5.9944">
        <ele>947.04</ele>
        <time>2011-10-15T10:15:43Z</time>
      </trkpt>
      <trkpt lat="46.5972" lon="5.99431">
        <ele>946.56</ele>
        <time>2011-10-15T10:15:44Z</time>
      </trkpt>
      <trkpt lat="46.5972" lon="5.99422">
        <ele>946.07</ele>
        <time>2011-10-15T10:15:45Z</time>
      </trkpt>
      <trkpt lat="46.5972" lon="5.99401">
        <ele>943.67</ele>
        <time>2011-10-15T10:15:47Z</time>
      </trkpt>
      <trkpt lat="46.59721" lon="5.9939">
        <ele>943.67</ele>
        <time>2011-10-15T10:15:48Z</time>
      </trkpt>
      <trkpt lat="46.59724" lon="5.99355">
        <ele>940.31</ele>
        <time>2011-10-15T10:15:51Z</time>
      </trkpt>
      <trkpt lat="46.59724" lon="5.99344">
        <ele>939.83</ele>
        <time>2011-10-15T10:15:52Z</time>
      </trkpt>
      <trkpt lat="46.59722" lon="5.99332">
        <ele>938.86</ele>
        <time>2011-10-15T10:15:53Z</time>
      </trkpt>
      <trkpt lat="46.59718" lon="5.99321">
        <ele>937.9</ele>
        <time>2011-10-15T10:15:54Z</time>
      </trkpt>
      <trkpt lat="46.59712" lon="5.9931">
        <ele>935.98</ele>
        <time>2011-10-15T10:15:55Z</time>
      </trkpt>
      <trkpt lat="46.59706" lon="5.99302">
        <ele>936.94</ele>
        <time>2011-10-15T10:15:56Z</time>
      </trkpt>
      <trkpt lat="46.59701" lon="5.99294">
        <ele>935.02</ele>
        <time>2011-10-15T10:15:57Z</time>
      </trkpt>
      <trkpt lat="46.59695" lon="5.99286">
        <ele>934.54</ele>
        <time>2011-10-15T10:15:58Z</time>
      </trkpt>
      <trkpt lat="46.59692" lon="5.99278">
        <ele>934.54</ele>
        <time>2011-10-15T10:15:59Z</time>
      </trkpt>
      <trkpt lat="46.59689" lon="5.99269">
        <ele>933.58</ele>
        <time>2011-10-15T10:16:00Z</time>
      </trkpt>
      <trkpt lat="46.59685" lon="5.99261">
        <ele>932.14</ele>
        <time>2011-10-15T10:16:01Z</time>
      </trkpt>
      <trkpt lat="46.5968" lon="5.99253">
        <ele>931.65</ele>
        <time>2011-10-15T10:16:02Z</time>
      </trkpt>
      <trkpt lat="46.59652" lon="5.99214">
        <ele>929.73</ele>
        <time>2011-10-15T10:16:07Z</time>
      </trkpt>
      <trkpt lat="46.59646" lon="5.99207">
        <ele>930.69</ele>
        <time>2011-10-15T10:16:08Z</time>
      </trkpt>
      <trkpt lat="46.59641" lon="5.99199">
        <ele>931.17</ele>
        <time>2011-10-15T10:16:09Z</time>
      </trkpt>
      <trkpt lat="46.59636" lon="5.99192">
        <ele>929.73</ele>
        <time>2011-10-15T10:16:10Z</time>
      </trkpt>
      <trkpt lat="46.5963" lon="5.99184">
        <ele>929.25</ele>
        <time>2011-10-15T10:16:11Z</time>
      </trkpt>
      <trkpt lat="46.59626" lon="5.99177">
        <ele>928.77</ele>
        <time>2011-10-15T10:16:12Z</time>
      </trkpt>
      <trkpt lat="46.59601" lon="5.99141">
        <ele>927.81</ele>
        <time>2011-10-15T10:16:17Z</time>
      </trkpt>
      <trkpt lat="46.59577" lon="5.99107">
        <ele>926.37</ele>
        <time>2011-10-15T10:16:22Z</time>
      </trkpt>
      <trkpt lat="46.59554" lon="5.99072">
        <ele>923.48</ele>
        <time>2011-10-15T10:16:27Z</time>
      </trkpt>
      <trkpt lat="46.59549" lon="5.99065">
        <ele>924.45</ele>
        <time>2011-10-15T10:16:28Z</time>
      </trkpt>
      <trkpt lat="46.59545" lon="5.99058">
        <ele>924.93</ele>
        <time>2011-10-15T10:16:29Z</time>
      </trkpt>
      <trkpt lat="46.59518" lon="5.99024">
        <ele>922.52</ele>
        <time>2011-10-15T10:16:35Z</time>
      </trkpt>
      <trkpt lat="46.59494" lon="5.98988">
        <ele>921.08</ele>
        <time>2011-10-15T10:16:41Z</time>
      </trkpt>
      <trkpt lat="46.59489" lon="5.98984">
        <ele>921.08</ele>
        <time>2011-10-15T10:16:42Z</time>
      </trkpt>
      <trkpt lat="46.59477" lon="5.98967">
        <ele>920.6</ele>
        <time>2011-10-15T10:16:45Z</time>
      </trkpt>
      <trkpt lat="46.59464" lon="5.98951">
        <ele>921.08</ele>
        <time>2011-10-15T10:16:48Z</time>
      </trkpt>
      <trkpt lat="46.59431" lon="5.9892">
        <ele>919.16</ele>
        <time>2011-10-15T10:16:55Z</time>
      </trkpt>
      <trkpt lat="46.59408" lon="5.98907">
        <ele>917.24</ele>
        <time>2011-10-15T10:17:00Z</time>
      </trkpt>
      <trkpt lat="46.59377" lon="5.98896">
        <ele>915.79</ele>
        <time>2011-10-15T10:17:06Z</time>
      </trkpt>
      <trkpt lat="46.59342" lon="5.98894">
        <ele>914.83</ele>
        <time>2011-10-15T10:17:12Z</time>
      </trkpt>
      <trkpt lat="46.59337" lon="5.98894">
        <ele>914.83</ele>
        <time>2011-10-15T10:17:13Z</time>
      </trkpt>
      <trkpt lat="46.59332" lon="5.98893">
        <ele>914.35</ele>
        <time>2011-10-15T10:17:14Z</time>
      </trkpt>
      <trkpt lat="46.59329" lon="5.98894">
        <ele>914.35</ele>
        <time>2011-10-15T10:17:15Z</time>
      </trkpt>
      <trkpt lat="46.59325" lon="5.98895">
        <ele>914.83</ele>
        <time>2011-10-15T10:17:16Z</time>
      </trkpt>
      <trkpt lat="46.5932" lon="5.98896">
        <ele>914.35</ele>
        <time>2011-10-15T10:17:17Z</time>
      </trkpt>
      <trkpt lat="46.59316" lon="5.98896">
        <ele>907.14</ele>
        <time>2011-10-15T10:17:18Z</time>
      </trkpt>
      <trkpt lat="46.59311" lon="5.98897">
        <ele>913.87</ele>
        <time>2011-10-15T10:17:19Z</time>
      </trkpt>
      <trkpt lat="46.59306" lon="5.98897">
        <ele>913.87</ele>
        <time>2011-10-15T10:17:20Z</time>
      </trkpt>
      <trkpt lat="46.593" lon="5.98898">
        <ele>913.39</ele>
        <time>2011-10-15T10:17:21Z</time>
      </trkpt>
      <trkpt lat="46.5929" lon="5.98898">
        <ele>908.58</ele>
        <time>2011-10-15T10:17:23Z</time>
      </trkpt>
      <trkpt lat="46.59285" lon="5.98898">
        <ele>913.87</ele>
        <time>2011-10-15T10:17:24Z</time>
      </trkpt>
      <trkpt lat="46.59275" lon="5.989">
        <ele>911.95</ele>
        <time>2011-10-15T10:17:26Z</time>
      </trkpt>
      <trkpt lat="46.59271" lon="5.98901">
        <ele>915.79</ele>
        <time>2011-10-15T10:17:27Z</time>
      </trkpt>
      <trkpt lat="46.59266" lon="5.98903">
        <ele>912.91</ele>
        <time>2011-10-15T10:17:28Z</time>
      </trkpt>
      <trkpt lat="46.59238" lon="5.98918">
        <ele>910.51</ele>
        <time>2011-10-15T10:17:36Z</time>
      </trkpt>
      <trkpt lat="46.59223" lon="5.9893">
        <ele>906.66</ele>
        <time>2011-10-15T10:17:40Z</time>
      </trkpt>
      <trkpt lat="46.59203" lon="5.98942">
        <ele>909.06</ele>
        <time>2011-10-15T10:17:45Z</time>
      </trkpt>
      <trkpt lat="46.592" lon="5.98945">
        <ele>908.58</ele>
        <time>2011-10-15T10:17:46Z</time>
      </trkpt>
      <trkpt lat="46.59197" lon="5.98946">
        <ele>907.62</ele>
        <time>2011-10-15T10:17:47Z</time>
      </trkpt>
      <trkpt lat="46.59178" lon="5.98953">
        <ele>909.06</ele>
        <time>2011-10-15T10:17:56Z</time>
      </trkpt>
      <trkpt lat="46.59174" lon="5.98953">
        <ele>907.14</ele>
        <time>2011-10-15T10:17:59Z</time>
      </trkpt>
      <trkpt lat="46.59145" lon="5.98957">
        <ele>907.14</ele>
        <time>2011-10-15T10:18:09Z</time>
      </trkpt>
      <trkpt lat="46.59114" lon="5.98954">
        <ele>906.66</ele>
        <time>2011-10-15T10:18:19Z</time>
      </trkpt>
      <trkpt lat="46.591" lon="5.98954">
        <ele>905.7</ele>
        <time>2011-10-15T10:18:23Z</time>
      </trkpt>
      <trkpt lat="46.59068" lon="5.98951">
        <ele>904.26</ele>
        <time>2011-10-15T10:18:31Z</time>
      </trkpt>
      <trkpt lat="46.59063" lon="5.9895">
        <ele>903.78</ele>
        <time>2011-10-15T10:18:32Z</time>
      </trkpt>
      <trkpt lat="46.59032" lon="5.98937">
        <ele>902.82</ele>
        <time>2011-10-15T10:18:40Z</time>
      </trkpt>
      <trkpt lat="46.59015" lon="5.98922">
        <ele>901.85</ele>
        <time>2011-10-15T10:18:44Z</time>
      </trkpt>
      <trkpt lat="46.59005" lon="5.98908">
        <ele>901.37</ele>
        <time>2011-10-15T10:18:47Z</time>
      </trkpt>
      <trkpt lat="46.5898" lon="5.98858">
        <ele>899.93</ele>
        <time>2011-10-15T10:18:55Z</time>
      </trkpt>
      <trkpt lat="46.58949" lon="5.98786">
        <ele>898.01</ele>
        <time>2011-10-15T10:19:06Z</time>
      </trkpt>
      <trkpt lat="46.58946" lon="5.98779">
        <ele>897.53</ele>
        <time>2011-10-15T10:19:07Z</time>
      </trkpt>
      <trkpt lat="46.58936" lon="5.98759">
        <ele>897.53</ele>
        <time>2011-10-15T10:19:10Z</time>
      </trkpt>
      <trkpt lat="46.58922" lon="5.98728">
        <ele>896.09</ele>
        <time>2011-10-15T10:19:15Z</time>
      </trkpt>
      <trkpt lat="46.58919" lon="5.98722">
        <ele>895.61</ele>
        <time>2011-10-15T10:19:16Z</time>
      </trkpt>
      <trkpt lat="46.58906" lon="5.98698">
        <ele>895.12</ele>
        <time>2011-10-15T10:19:20Z</time>
      </trkpt>
      <trkpt lat="46.58893" lon="5.98684">
        <ele>894.64</ele>
        <time>2011-10-15T10:19:23Z</time>
      </trkpt>
      <trkpt lat="46.58889" lon="5.98681">
        <ele>895.12</ele>
        <time>2011-10-15T10:19:24Z</time>
      </trkpt>
      <trkpt lat="46.58884" lon="5.98678">
        <ele>894.16</ele>
        <time>2011-10-15T10:19:25Z</time>
      </trkpt>
      <trkpt lat="46.5888" lon="5.98675">
        <ele>888.88</ele>
        <time>2011-10-15T10:19:26Z</time>
      </trkpt>
      <trkpt lat="46.58874" lon="5.98671">
        <ele>894.16</ele>
        <time>2011-10-15T10:19:27Z</time>
      </trkpt>
      <trkpt lat="46.58819" lon="5.9864">
        <ele>891.76</ele>
        <time>2011-10-15T10:19:37Z</time>
      </trkpt>
      <trkpt lat="46.5876" lon="5.98608">
        <ele>889.84</ele>
        <time>2011-10-15T10:19:48Z</time>
      </trkpt>
      <trkpt lat="46.58755" lon="5.98605">
        <ele>889.36</ele>
        <time>2011-10-15T10:19:49Z</time>
      </trkpt>
      <trkpt lat="46.58692" lon="5.98591">
        <ele>886.95</ele>
        <time>2011-10-15T10:20:00Z</time>
      </trkpt>
      <trkpt lat="46.58651" lon="5.98583">
        <ele>885.51</ele>
        <time>2011-10-15T10:20:11Z</time>
      </trkpt>
      <trkpt lat="46.5864" lon="5.98584">
        <ele>884.07</ele>
        <time>2011-10-15T10:20:15Z</time>
      </trkpt>
      <trkpt lat="46.58619" lon="5.98582">
        <ele>883.11</ele>
        <time>2011-10-15T10:20:24Z</time>
      </trkpt>
      <trkpt lat="46.58618" lon="5.98581">
        <ele>878.3</ele>
        <time>2011-10-15T10:20:25Z</time>
      </trkpt>
      <trkpt lat="46.58617" lon="5.98582">
        <ele>883.11</ele>
        <time>2011-10-15T10:20:26Z</time>
      </trkpt>
      <trkpt lat="46.58615" lon="5.98581">
        <ele>882.15</ele>
        <time>2011-10-15T10:20:27Z</time>
      </trkpt>
      <trkpt lat="46.58614" lon="5.98581">
        <ele>882.15</ele>
        <time>2011-10-15T10:20:28Z</time>
      </trkpt>
      <trkpt lat="46.58606" lon="5.98581">
        <ele>882.15</ele>
        <time>2011-10-15T10:20:33Z</time>
      </trkpt>
      <trkpt lat="46.58608" lon="5.98583">
        <ele>881.67</ele>
        <time>2011-10-15T10:20:42Z</time>
      </trkpt>
      <trkpt lat="46.58609" lon="5.98584">
        <ele>881.67</ele>
        <time>2011-10-15T10:20:43Z</time>
      </trkpt>
      <trkpt lat="46.5861" lon="5.98584">
        <ele>882.15</ele>
        <time>2011-10-15T10:20:44Z</time>
      </trkpt>
      <trkpt lat="46.58613" lon="5.98584">
        <ele>882.63</ele>
        <time>2011-10-15T10:20:48Z</time>
      </trkpt>
      <trkpt lat="46.58614" lon="5.98585">
        <ele>882.15</ele>
        <time>2011-10-15T10:20:49Z</time>
      </trkpt>
      <trkpt lat="46.58615" lon="5.98586">
        <ele>882.63</ele>
        <time>2011-10-15T10:20:50Z</time>
      </trkpt>
      <trkpt lat="46.58624" lon="5.98601">
        <ele>883.59</ele>
        <time>2011-10-15T10:21:05Z</time>
      </trkpt>
      <trkpt lat="46.58623" lon="5.98599">
        <ele>882.63</ele>
        <time>2011-10-15T10:25:02Z</time>
      </trkpt>
      <trkpt lat="46.58622" lon="5.98598">
        <ele>883.59</ele>
        <time>2011-10-15T10:25:03Z</time>
      </trkpt>
      <trkpt lat="46.5862" lon="5.98599">
        <ele>882.63</ele>
        <time>2011-10-15T10:25:04Z</time>
      </trkpt>
      <trkpt lat="46.58618" lon="5.98601">
        <ele>883.59</ele>
        <time>2011-10-15T10:25:05Z</time>
      </trkpt>
      <trkpt lat="46.58617" lon="5.98602">
        <ele>883.59</ele>
        <time>2011-10-15T10:25:06Z</time>
      </trkpt>
      <trkpt lat="46.58616" lon="5.98605">
        <ele>883.11</ele>
        <time>2011-10-15T10:25:07Z</time>
      </trkpt>
      <trkpt lat="46.58612" lon="5.98614">
        <ele>884.07</ele>
        <time>2011-10-15T10:25:12Z</time>
      </trkpt>
      <trkpt lat="46.58605" lon="5.98626">
        <ele>885.03</ele>
        <time>2011-10-15T10:25:18Z</time>
      </trkpt>
      <trkpt lat="46.58598" lon="5.98631">
        <ele>886.95</ele>
        <time>2011-10-15T10:25:23Z</time>
      </trkpt>
      <trkpt lat="46.58595" lon="5.98631">
        <ele>887.91</ele>
        <time>2011-10-15T10:25:25Z</time>
      </trkpt>
      <trkpt lat="46.58592" lon="5.98631">
        <ele>888.4</ele>
        <time>2011-10-15T10:25:27Z</time>
      </trkpt>
      <trkpt lat="46.58581" lon="5.98636">
        <ele>889.84</ele>
        <time>2011-10-15T10:25:38Z</time>
      </trkpt>
      <trkpt lat="46.58573" lon="5.98637">
        <ele>889.84</ele>
        <time>2011-10-15T10:25:43Z</time>
      </trkpt>
      <trkpt lat="46.58566" lon="5.98642">
        <ele>890.32</ele>
        <time>2011-10-15T10:25:46Z</time>
      </trkpt>
      <trkpt lat="46.58557" lon="5.98645">
        <ele>891.28</ele>
        <time>2011-10-15T10:25:52Z</time>
      </trkpt>
      <trkpt lat="46.58546" lon="5.98644">
        <ele>891.28</ele>
        <time>2011-10-15T10:26:02Z</time>
      </trkpt>
      <trkpt lat="46.58521" lon="5.98645">
        <ele>893.2</ele>
        <time>2011-10-15T10:26:17Z</time>
      </trkpt>
      <trkpt lat="46.58505" lon="5.98643">
        <ele>893.2</ele>
        <time>2011-10-15T10:26:29Z</time>
      </trkpt>
      <trkpt lat="46.585" lon="5.98644">
        <ele>892.72</ele>
        <time>2011-10-15T10:26:33Z</time>
      </trkpt>
      <trkpt lat="46.5848" lon="5.98643">
        <ele>894.64</ele>
        <time>2011-10-15T10:26:46Z</time>
      </trkpt>
      <trkpt lat="46.58478" lon="5.98642">
        <ele>894.16</ele>
        <time>2011-10-15T10:26:47Z</time>
      </trkpt>
      <trkpt lat="46.58453" lon="5.9864">
        <ele>895.61</ele>
        <time>2011-10-15T10:27:00Z</time>
      </trkpt>
      <trkpt lat="46.58447" lon="5.98639">
        <ele>896.09</ele>
        <time>2011-10-15T10:27:03Z</time>
      </trkpt>
      <trkpt lat="46.58422" lon="5.98642">
        <ele>896.57</ele>
        <time>2011-10-15T10:27:13Z</time>
      </trkpt>
      <trkpt lat="46.58417" lon="5.98646">
        <ele>896.57</ele>
        <time>2011-10-15T10:27:16Z</time>
      </trkpt>
      <trkpt lat="46.58408" lon="5.98651">
        <ele>897.05</ele>
        <time>2011-10-15T10:27:21Z</time>
      </trkpt>
      <trkpt lat="46.58382" lon="5.98654">
        <ele>898.97</ele>
        <time>2011-10-15T10:27:34Z</time>
      </trkpt>
      <trkpt lat="46.5837" lon="5.9866">
        <ele>899.45</ele>
        <time>2011-10-15T10:27:41Z</time>
      </trkpt>
      <trkpt lat="46.58359" lon="5.98667">
        <ele>900.41</ele>
        <time>2011-10-15T10:27:48Z</time>
      </trkpt>
      <trkpt lat="46.58356" lon="5.98669">
        <ele>900.89</ele>
        <time>2011-10-15T10:27:51Z</time>
      </trkpt>
      <trkpt lat="46.58342" lon="5.98688">
        <ele>900.41</ele>
        <time>2011-10-15T10:28:01Z</time>
      </trkpt>
      <trkpt lat="46.58333" lon="5.987">
        <ele>898.97</ele>
        <time>2011-10-15T10:28:09Z</time>
      </trkpt>
      <trkpt lat="46.58329" lon="5.98703">
        <ele>899.45</ele>
        <time>2011-10-15T10:28:23Z</time>
      </trkpt>
      <trkpt lat="46.58329" lon="5.98703">
        <ele>899.45</ele>
        <time>2011-10-15T10:28:24Z</time>
      </trkpt>
      <trkpt lat="46.58328" lon="5.98705">
        <ele>899.45</ele>
        <time>2011-10-15T10:28:52Z</time>
      </trkpt>
      <trkpt lat="46.5832" lon="5.98713">
        <ele>900.89</ele>
        <time>2011-10-15T10:29:06Z</time>
      </trkpt>
      <trkpt lat="46.58313" lon="5.98714">
        <ele>899.93</ele>
        <time>2011-10-15T10:29:21Z</time>
      </trkpt>
      <trkpt lat="46.58305" lon="5.98712">
        <ele>902.82</ele>
        <time>2011-10-15T10:29:31Z</time>
      </trkpt>
      <trkpt lat="46.58301" lon="5.98711">
        <ele>904.26</ele>
        <time>2011-10-15T10:29:44Z</time>
      </trkpt>
      <trkpt lat="46.58296" lon="5.9871">
        <ele>907.14</ele>
        <time>2011-10-15T10:29:55Z</time>
      </trkpt>
      <trkpt lat="46.58287" lon="5.98709">
        <ele>909.54</ele>
        <time>2011-10-15T10:30:08Z</time>
      </trkpt>
      <trkpt lat="46.58281" lon="5.98706">
        <ele>910.03</ele>
        <time>2011-10-15T10:30:20Z</time>
      </trkpt>
      <trkpt lat="46.58279" lon="5.98705">
        <ele>910.51</ele>
        <time>2011-10-15T10:30:37Z</time>
      </trkpt>
      <trkpt lat="46.58267" lon="5.98706">
        <ele>911.47</ele>
        <time>2011-10-15T10:30:41Z</time>
      </trkpt>
      <trkpt lat="46.58257" lon="5.98709">
        <ele>912.43</ele>
        <time>2011-10-15T10:30:44Z</time>
      </trkpt>
      <trkpt lat="46.58244" lon="5.9871">
        <ele>911.47</ele>
        <time>2011-10-15T10:30:50Z</time>
      </trkpt>
      <trkpt lat="46.58229" lon="5.98701">
        <ele>912.43</ele>
        <time>2011-10-15T10:30:59Z</time>
      </trkpt>
      <trkpt lat="46.5822" lon="5.987">
        <ele>912.91</ele>
        <time>2011-10-15T10:31:03Z</time>
      </trkpt>
      <trkpt lat="46.58216" lon="5.98697">
        <ele>913.39</ele>
        <time>2011-10-15T10:31:05Z</time>
      </trkpt>
      <trkpt lat="46.5819" lon="5.98688">
        <ele>915.31</ele>
        <time>2011-10-15T10:31:19Z</time>
      </trkpt>
      <trkpt lat="46.58185" lon="5.98687">
        <ele>914.83</ele>
        <time>2011-10-15T10:31:22Z</time>
      </trkpt>
      <trkpt lat="46.58168" lon="5.98679">
        <ele>917.72</ele>
        <time>2011-10-15T10:31:34Z</time>
      </trkpt>
      <trkpt lat="46.58167" lon="5.98683">
        <ele>917.72</ele>
        <time>2011-10-15T10:31:39Z</time>
      </trkpt>
      <trkpt lat="46.5816" lon="5.9867">
        <ele>919.16</ele>
        <time>2011-10-15T10:31:48Z</time>
      </trkpt>
      <trkpt lat="46.58155" lon="5.98666">
        <ele>918.2</ele>
        <time>2011-10-15T10:31:52Z</time>
      </trkpt>
      <trkpt lat="46.58143" lon="5.98658">
        <ele>919.16</ele>
        <time>2011-10-15T10:32:05Z</time>
      </trkpt>
      <trkpt lat="46.58143" lon="5.98658">
        <ele>919.64</ele>
        <time>2011-10-15T10:32:10Z</time>
      </trkpt>
      <trkpt lat="46.58133" lon="5.98651">
        <ele>920.12</ele>
        <time>2011-10-15T10:32:26Z</time>
      </trkpt>
      <trkpt lat="46.58122" lon="5.9865">
        <ele>920.12</ele>
        <time>2011-10-15T10:32:33Z</time>
      </trkpt>
      <trkpt lat="46.58099" lon="5.9865">
        <ele>923</ele>
        <time>2011-10-15T10:32:45Z</time>
      </trkpt>
      <trkpt lat="46.5808" lon="5.98652">
        <ele>923.48</ele>
        <time>2011-10-15T10:32:57Z</time>
      </trkpt>
      <trkpt lat="46.58061" lon="5.98653">
        <ele>922.52</ele>
        <time>2011-10-15T10:33:05Z</time>
      </trkpt>
      <trkpt lat="46.58044" lon="5.98658">
        <ele>923.96</ele>
        <time>2011-10-15T10:33:19Z</time>
      </trkpt>
      <trkpt lat="46.58031" lon="5.98668">
        <ele>925.89</ele>
        <time>2011-10-15T10:33:27Z</time>
      </trkpt>
      <trkpt lat="46.58018" lon="5.98677">
        <ele>926.85</ele>
        <time>2011-10-15T10:33:36Z</time>
      </trkpt>
      <trkpt lat="46.58013" lon="5.98682">
        <ele>928.77</ele>
        <time>2011-10-15T10:33:41Z</time>
      </trkpt>
      <trkpt lat="46.58005" lon="5.98694">
        <ele>929.73</ele>
        <time>2011-10-15T10:33:51Z</time>
      </trkpt>
      <trkpt lat="46.58005" lon="5.98698">
        <ele>929.73</ele>
        <time>2011-10-15T10:34:11Z</time>
      </trkpt>
      <trkpt lat="46.58005" lon="5.98698">
        <ele>930.69</ele>
        <time>2011-10-15T10:34:13Z</time>
      </trkpt>
      <trkpt lat="46.58001" lon="5.98706">
        <ele>930.21</ele>
        <time>2011-10-15T10:34:19Z</time>
      </trkpt>
      <trkpt lat="46.5799" lon="5.98721">
        <ele>931.65</ele>
        <time>2011-10-15T10:34:25Z</time>
      </trkpt>
      <trkpt lat="46.57984" lon="5.98729">
        <ele>931.65</ele>
        <time>2011-10-15T10:34:29Z</time>
      </trkpt>
      <trkpt lat="46.57974" lon="5.9875">
        <ele>931.65</ele>
        <time>2011-10-15T10:34:41Z</time>
      </trkpt>
      <trkpt lat="46.57963" lon="5.98759">
        <ele>930.69</ele>
        <time>2011-10-15T10:34:51Z</time>
      </trkpt>
      <trkpt lat="46.57957" lon="5.98774">
        <ele>930.21</ele>
        <time>2011-10-15T10:35:03Z</time>
      </trkpt>
      <trkpt lat="46.57952" lon="5.98782">
        <ele>930.21</ele>
        <time>2011-10-15T10:35:19Z</time>
      </trkpt>
      <trkpt lat="46.57952" lon="5.98782">
        <ele>930.69</ele>
        <time>2011-10-15T10:35:31Z</time>
      </trkpt>
      <trkpt lat="46.57946" lon="5.98794">
        <ele>930.69</ele>
        <time>2011-10-15T10:35:43Z</time>
      </trkpt>
      <trkpt lat="46.57946" lon="5.98794">
        <ele>930.69</ele>
        <time>2011-10-15T10:35:44Z</time>
      </trkpt>
      <trkpt lat="46.57933" lon="5.98808">
        <ele>931.65</ele>
        <time>2011-10-15T10:35:57Z</time>
      </trkpt>
      <trkpt lat="46.57923" lon="5.98809">
        <ele>933.58</ele>
        <time>2011-10-15T10:36:08Z</time>
      </trkpt>
      <trkpt lat="46.57912" lon="5.98819">
        <ele>935.02</ele>
        <time>2011-10-15T10:36:22Z</time>
      </trkpt>
      <trkpt lat="46.57909" lon="5.98824">
        <ele>935.02</ele>
        <time>2011-10-15T10:36:27Z</time>
      </trkpt>
      <trkpt lat="46.57905" lon="5.9884">
        <ele>934.54</ele>
        <time>2011-10-15T10:36:33Z</time>
      </trkpt>
      <trkpt lat="46.57902" lon="5.98865">
        <ele>936.94</ele>
        <time>2011-10-15T10:36:45Z</time>
      </trkpt>
      <trkpt lat="46.57898" lon="5.98893">
        <ele>938.38</ele>
        <time>2011-10-15T10:36:58Z</time>
      </trkpt>
      <trkpt lat="46.57897" lon="5.98924">
        <ele>940.31</ele>
        <time>2011-10-15T10:37:11Z</time>
      </trkpt>
      <trkpt lat="46.57898" lon="5.98943">
        <ele>941.27</ele>
        <time>2011-10-15T10:37:16Z</time>
      </trkpt>
      <trkpt lat="46.579" lon="5.98969">
        <ele>941.75</ele>
        <time>2011-10-15T10:37:26Z</time>
      </trkpt>
      <trkpt lat="46.57899" lon="5.98995">
        <ele>943.19</ele>
        <time>2011-10-15T10:37:34Z</time>
      </trkpt>
      <trkpt lat="46.57903" lon="5.9901">
        <ele>944.63</ele>
        <time>2011-10-15T10:37:39Z</time>
      </trkpt>
      <trkpt lat="46.57904" lon="5.99015">
        <ele>945.11</ele>
        <time>2011-10-15T10:37:42Z</time>
      </trkpt>
      <trkpt lat="46.57909" lon="5.99031">
        <ele>940.79</ele>
        <time>2011-10-15T10:37:48Z</time>
      </trkpt>
      <trkpt lat="46.57911" lon="5.99033">
        <ele>946.56</ele>
        <time>2011-10-15T10:37:49Z</time>
      </trkpt>
      <trkpt lat="46.57928" lon="5.99048">
        <ele>947.52</ele>
        <time>2011-10-15T10:38:00Z</time>
      </trkpt>
      <trkpt lat="46.57953" lon="5.9905">
        <ele>945.59</ele>
        <time>2011-10-15T10:38:10Z</time>
      </trkpt>
      <trkpt lat="46.57968" lon="5.99047">
        <ele>945.59</ele>
        <time>2011-10-15T10:38:14Z</time>
      </trkpt>
      <trkpt lat="46.57989" lon="5.99044">
        <ele>945.11</ele>
        <time>2011-10-15T10:38:19Z</time>
      </trkpt>
      <trkpt lat="46.58001" lon="5.99039">
        <ele>944.15</ele>
        <time>2011-10-15T10:38:22Z</time>
      </trkpt>
      <trkpt lat="46.58014" lon="5.99028">
        <ele>942.71</ele>
        <time>2011-10-15T10:38:25Z</time>
      </trkpt>
      <trkpt lat="46.58025" lon="5.9901">
        <ele>940.79</ele>
        <time>2011-10-15T10:38:29Z</time>
      </trkpt>
      <trkpt lat="46.58047" lon="5.9899">
        <ele>939.83</ele>
        <time>2011-10-15T10:38:36Z</time>
      </trkpt>
      <trkpt lat="46.58052" lon="5.98989">
        <ele>938.86</ele>
        <time>2011-10-15T10:38:37Z</time>
      </trkpt>
      <trkpt lat="46.58072" lon="5.98983">
        <ele>938.86</ele>
        <time>2011-10-15T10:38:40Z</time>
      </trkpt>
      <trkpt lat="46.58081" lon="5.98979">
        <ele>938.86</ele>
        <time>2011-10-15T10:38:41Z</time>
      </trkpt>
      <trkpt lat="46.58136" lon="5.98952">
        <ele>937.9</ele>
        <time>2011-10-15T10:38:50Z</time>
      </trkpt>
      <trkpt lat="46.58162" lon="5.98969">
        <ele>936.94</ele>
        <time>2011-10-15T10:39:00Z</time>
      </trkpt>
      <trkpt lat="46.58157" lon="5.98998">
        <ele>937.9</ele>
        <time>2011-10-15T10:39:09Z</time>
      </trkpt>
      <trkpt lat="46.58156" lon="5.99">
        <ele>938.86</ele>
        <time>2011-10-15T10:39:10Z</time>
      </trkpt>
      <trkpt lat="46.58149" lon="5.99015">
        <ele>939.35</ele>
        <time>2011-10-15T10:39:16Z</time>
      </trkpt>
      <trkpt lat="46.58147" lon="5.99016">
        <ele>939.35</ele>
        <time>2011-10-15T10:39:17Z</time>
      </trkpt>
      <trkpt lat="46.58144" lon="5.9902">
        <ele>939.35</ele>
        <time>2011-10-15T10:39:20Z</time>
      </trkpt>
      <trkpt lat="46.58143" lon="5.99023">
        <ele>940.31</ele>
        <time>2011-10-15T10:39:21Z</time>
      </trkpt>
      <trkpt lat="46.58142" lon="5.99026">
        <ele>940.79</ele>
        <time>2011-10-15T10:39:22Z</time>
      </trkpt>
      <trkpt lat="46.58141" lon="5.99028">
        <ele>940.79</ele>
        <time>2011-10-15T10:39:23Z</time>
      </trkpt>
      <trkpt lat="46.58139" lon="5.99031">
        <ele>940.79</ele>
        <time>2011-10-15T10:39:24Z</time>
      </trkpt>
      <trkpt lat="46.58138" lon="5.99033">
        <ele>940.79</ele>
        <time>2011-10-15T10:39:25Z</time>
      </trkpt>
      <trkpt lat="46.58137" lon="5.99035">
        <ele>941.75</ele>
        <time>2011-10-15T10:39:26Z</time>
      </trkpt>
      <trkpt lat="46.58136" lon="5.99038">
        <ele>941.75</ele>
        <time>2011-10-15T10:39:27Z</time>
      </trkpt>
      <trkpt lat="46.58135" lon="5.9904">
        <ele>942.23</ele>
        <time>2011-10-15T10:39:28Z</time>
      </trkpt>
      <trkpt lat="46.58134" lon="5.99041">
        <ele>943.67</ele>
        <time>2011-10-15T10:39:29Z</time>
      </trkpt>
      <trkpt lat="46.58132" lon="5.99043">
        <ele>944.63</ele>
        <time>2011-10-15T10:39:30Z</time>
      </trkpt>
      <trkpt lat="46.5813" lon="5.99045">
        <ele>944.63</ele>
        <time>2011-10-15T10:39:31Z</time>
      </trkpt>
      <trkpt lat="46.58128" lon="5.99047">
        <ele>945.11</ele>
        <time>2011-10-15T10:39:32Z</time>
      </trkpt>
      <trkpt lat="46.58126" lon="5.99049">
        <ele>946.07</ele>
        <time>2011-10-15T10:39:33Z</time>
      </trkpt>
      <trkpt lat="46.58124" lon="5.99052">
        <ele>945.59</ele>
        <time>2011-10-15T10:39:34Z</time>
      </trkpt>
      <trkpt lat="46.58122" lon="5.99055">
        <ele>946.56</ele>
        <time>2011-10-15T10:39:35Z</time>
      </trkpt>
      <trkpt lat="46.5812" lon="5.99057">
        <ele>947.04</ele>
        <time>2011-10-15T10:39:36Z</time>
      </trkpt>
      <trkpt lat="46.58118" lon="5.99059">
        <ele>947.52</ele>
        <time>2011-10-15T10:39:37Z</time>
      </trkpt>
      <trkpt lat="46.58115" lon="5.99062">
        <ele>947.52</ele>
        <time>2011-10-15T10:39:38Z</time>
      </trkpt>
      <trkpt lat="46.58113" lon="5.99063">
        <ele>948.48</ele>
        <time>2011-10-15T10:39:39Z</time>
      </trkpt>
      <trkpt lat="46.5811" lon="5.99066">
        <ele>948.96</ele>
        <time>2011-10-15T10:39:40Z</time>
      </trkpt>
      <trkpt lat="46.58092" lon="5.99086">
        <ele>950.88</ele>
        <time>2011-10-15T10:39:47Z</time>
      </trkpt>
      <trkpt lat="46.5809" lon="5.99089">
        <ele>949.92</ele>
        <time>2011-10-15T10:39:48Z</time>
      </trkpt>
      <trkpt lat="46.58085" lon="5.99096">
        <ele>951.36</ele>
        <time>2011-10-15T10:39:52Z</time>
      </trkpt>
      <trkpt lat="46.58084" lon="5.99098">
        <ele>951.36</ele>
        <time>2011-10-15T10:39:53Z</time>
      </trkpt>
      <trkpt lat="46.58083" lon="5.99099">
        <ele>952.32</ele>
        <time>2011-10-15T10:39:54Z</time>
      </trkpt>
      <trkpt lat="46.58082" lon="5.99101">
        <ele>951.84</ele>
        <time>2011-10-15T10:39:55Z</time>
      </trkpt>
      <trkpt lat="46.5808" lon="5.99102">
        <ele>951.84</ele>
        <time>2011-10-15T10:39:56Z</time>
      </trkpt>
      <trkpt lat="46.58075" lon="5.99103">
        <ele>951.84</ele>
        <time>2011-10-15T10:40:01Z</time>
      </trkpt>
      <trkpt lat="46.58062" lon="5.99121">
        <ele>952.8</ele>
        <time>2011-10-15T10:40:07Z</time>
      </trkpt>
      <trkpt lat="46.58048" lon="5.99153">
        <ele>953.77</ele>
        <time>2011-10-15T10:40:20Z</time>
      </trkpt>
      <trkpt lat="46.58046" lon="5.99158">
        <ele>952.8</ele>
        <time>2011-10-15T10:40:22Z</time>
      </trkpt>
      <trkpt lat="46.58039" lon="5.99174">
        <ele>953.28</ele>
        <time>2011-10-15T10:40:29Z</time>
      </trkpt>
      <trkpt lat="46.58034" lon="5.99188">
        <ele>953.77</ele>
        <time>2011-10-15T10:40:33Z</time>
      </trkpt>
      <trkpt lat="46.58032" lon="5.99198">
        <ele>953.28</ele>
        <time>2011-10-15T10:40:36Z</time>
      </trkpt>
      <trkpt lat="46.58027" lon="5.99215">
        <ele>952.8</ele>
        <time>2011-10-15T10:40:42Z</time>
      </trkpt>
      <trkpt lat="46.58018" lon="5.99241">
        <ele>954.73</ele>
        <time>2011-10-15T10:40:56Z</time>
      </trkpt>
      <trkpt lat="46.58011" lon="5.99255">
        <ele>954.25</ele>
        <time>2011-10-15T10:41:05Z</time>
      </trkpt>
      <trkpt lat="46.58002" lon="5.9927">
        <ele>955.69</ele>
        <time>2011-10-15T10:41:11Z</time>
      </trkpt>
      <trkpt lat="46.57996" lon="5.99278">
        <ele>956.17</ele>
        <time>2011-10-15T10:41:16Z</time>
      </trkpt>
      <trkpt lat="46.57983" lon="5.9929">
        <ele>957.61</ele>
        <time>2011-10-15T10:41:27Z</time>
      </trkpt>
      <trkpt lat="46.57974" lon="5.99303">
        <ele>958.09</ele>
        <time>2011-10-15T10:41:34Z</time>
      </trkpt>
      <trkpt lat="46.5796" lon="5.99327">
        <ele>959.05</ele>
        <time>2011-10-15T10:41:44Z</time>
      </trkpt>
      <trkpt lat="46.57957" lon="5.99335">
        <ele>959.53</ele>
        <time>2011-10-15T10:41:47Z</time>
      </trkpt>
      <trkpt lat="46.57952" lon="5.99339">
        <ele>960.01</ele>
        <time>2011-10-15T10:41:49Z</time>
      </trkpt>
      <trkpt lat="46.57937" lon="5.99366">
        <ele>961.46</ele>
        <time>2011-10-15T10:42:00Z</time>
      </trkpt>
      <trkpt lat="46.57931" lon="5.9938">
        <ele>962.42</ele>
        <time>2011-10-15T10:42:11Z</time>
      </trkpt>
      <trkpt lat="46.5793" lon="5.9938">
        <ele>962.42</ele>
        <time>2011-10-15T10:42:13Z</time>
      </trkpt>
      <trkpt lat="46.57918" lon="5.99397">
        <ele>963.86</ele>
        <time>2011-10-15T10:42:23Z</time>
      </trkpt>
      <trkpt lat="46.57915" lon="5.99401">
        <ele>963.38</ele>
        <time>2011-10-15T10:42:25Z</time>
      </trkpt>
      <trkpt lat="46.57897" lon="5.9943">
        <ele>965.78</ele>
        <time>2011-10-15T10:42:37Z</time>
      </trkpt>
      <trkpt lat="46.57886" lon="5.9945">
        <ele>968.18</ele>
        <time>2011-10-15T10:42:46Z</time>
      </trkpt>
      <trkpt lat="46.57881" lon="5.99467">
        <ele>970.11</ele>
        <time>2011-10-15T10:42:56Z</time>
      </trkpt>
      <trkpt lat="46.5788" lon="5.99476">
        <ele>972.03</ele>
        <time>2011-10-15T10:43:08Z</time>
      </trkpt>
      <trkpt lat="46.57877" lon="5.99497">
        <ele>973.47</ele>
        <time>2011-10-15T10:43:21Z</time>
      </trkpt>
      <trkpt lat="46.57876" lon="5.99503">
        <ele>975.88</ele>
        <time>2011-10-15T10:43:24Z</time>
      </trkpt>
      <trkpt lat="46.57877" lon="5.99516">
        <ele>976.36</ele>
        <time>2011-10-15T10:43:30Z</time>
      </trkpt>
      <trkpt lat="46.57876" lon="5.99521">
        <ele>976.36</ele>
        <time>2011-10-15T10:43:33Z</time>
      </trkpt>
      <trkpt lat="46.57868" lon="5.99542">
        <ele>977.32</ele>
        <time>2011-10-15T10:43:39Z</time>
      </trkpt>
      <trkpt lat="46.57872" lon="5.99556">
        <ele>977.32</ele>
        <time>2011-10-15T10:43:45Z</time>
      </trkpt>
      <trkpt lat="46.57873" lon="5.99572">
        <ele>977.8</ele>
        <time>2011-10-15T10:43:52Z</time>
      </trkpt>
      <trkpt lat="46.57871" lon="5.99592">
        <ele>978.28</ele>
        <time>2011-10-15T10:44:02Z</time>
      </trkpt>
      <trkpt lat="46.57872" lon="5.99613">
        <ele>978.76</ele>
        <time>2011-10-15T10:44:12Z</time>
      </trkpt>
      <trkpt lat="46.57869" lon="5.99639">
        <ele>980.2</ele>
        <time>2011-10-15T10:44:21Z</time>
      </trkpt>
      <trkpt lat="46.57867" lon="5.99645">
        <ele>979.24</ele>
        <time>2011-10-15T10:44:23Z</time>
      </trkpt>
      <trkpt lat="46.57867" lon="5.99673">
        <ele>981.64</ele>
        <time>2011-10-15T10:44:36Z</time>
      </trkpt>
      <trkpt lat="46.57864" lon="5.99707">
        <ele>982.12</ele>
        <time>2011-10-15T10:44:47Z</time>
      </trkpt>
      <trkpt lat="46.57865" lon="5.99713">
        <ele>982.12</ele>
        <time>2011-10-15T10:44:49Z</time>
      </trkpt>
      <trkpt lat="46.57854" lon="5.99761">
        <ele>981.16</ele>
        <time>2011-10-15T10:45:01Z</time>
      </trkpt>
      <trkpt lat="46.57851" lon="5.99777">
        <ele>980.68</ele>
        <time>2011-10-15T10:45:05Z</time>
      </trkpt>
      <trkpt lat="46.57839" lon="5.99822">
        <ele>978.28</ele>
        <time>2011-10-15T10:45:13Z</time>
      </trkpt>
      <trkpt lat="46.57811" lon="5.99877">
        <ele>979.72</ele>
        <time>2011-10-15T10:45:23Z</time>
      </trkpt>
      <trkpt lat="46.57778" lon="5.99925">
        <ele>980.2</ele>
        <time>2011-10-15T10:45:32Z</time>
      </trkpt>
      <trkpt lat="46.57772" lon="5.99957">
        <ele>980.2</ele>
        <time>2011-10-15T10:45:40Z</time>
      </trkpt>
      <trkpt lat="46.57772" lon="5.99967">
        <ele>981.64</ele>
        <time>2011-10-15T10:45:42Z</time>
      </trkpt>
      <trkpt lat="46.57768" lon="5.99995">
        <ele>982.6</ele>
        <time>2011-10-15T10:45:47Z</time>
      </trkpt>
      <trkpt lat="46.57766" lon="6.00005">
        <ele>982.6</ele>
        <time>2011-10-15T10:45:49Z</time>
      </trkpt>
      <trkpt lat="46.57768" lon="6.00029">
        <ele>983.09</ele>
        <time>2011-10-15T10:45:54Z</time>
      </trkpt>
      <trkpt lat="46.57764" lon="6.00049">
        <ele>983.57</ele>
        <time>2011-10-15T10:45:59Z</time>
      </trkpt>
      <trkpt lat="46.57767" lon="6.00068">
        <ele>982.6</ele>
        <time>2011-10-15T10:46:04Z</time>
      </trkpt>
      <trkpt lat="46.57753" lon="6.00123">
        <ele>984.05</ele>
        <time>2011-10-15T10:46:15Z</time>
      </trkpt>
      <trkpt lat="46.57744" lon="6.00169">
        <ele>985.49</ele>
        <time>2011-10-15T10:46:26Z</time>
      </trkpt>
      <trkpt lat="46.57739" lon="6.00196">
        <ele>986.45</ele>
        <time>2011-10-15T10:46:33Z</time>
      </trkpt>
      <trkpt lat="46.57743" lon="6.00214">
        <ele>986.93</ele>
        <time>2011-10-15T10:46:39Z</time>
      </trkpt>
      <trkpt lat="46.5775" lon="6.00234">
        <ele>988.85</ele>
        <time>2011-10-15T10:46:46Z</time>
      </trkpt>
      <trkpt lat="46.57751" lon="6.00241">
        <ele>990.3</ele>
        <time>2011-10-15T10:46:50Z</time>
      </trkpt>
      <trkpt lat="46.57757" lon="6.00254">
        <ele>990.78</ele>
        <time>2011-10-15T10:47:00Z</time>
      </trkpt>
      <trkpt lat="46.57763" lon="6.00266">
        <ele>991.26</ele>
        <time>2011-10-15T10:47:08Z</time>
      </trkpt>
      <trkpt lat="46.57762" lon="6.00279">
        <ele>992.22</ele>
        <time>2011-10-15T10:47:12Z</time>
      </trkpt>
      <trkpt lat="46.57763" lon="6.00279">
        <ele>992.22</ele>
        <time>2011-10-15T10:47:13Z</time>
      </trkpt>
      <trkpt lat="46.57769" lon="6.00306">
        <ele>994.62</ele>
        <time>2011-10-15T10:47:26Z</time>
      </trkpt>
      <trkpt lat="46.57767" lon="6.00325">
        <ele>996.06</ele>
        <time>2011-10-15T10:47:35Z</time>
      </trkpt>
      <trkpt lat="46.57769" lon="6.00361">
        <ele>997.99</ele>
        <time>2011-10-15T10:47:47Z</time>
      </trkpt>
      <trkpt lat="46.5777" lon="6.00367">
        <ele>999.43</ele>
        <time>2011-10-15T10:47:50Z</time>
      </trkpt>
      <trkpt lat="46.57768" lon="6.00419">
        <ele>1000.87</ele>
        <time>2011-10-15T10:48:05Z</time>
      </trkpt>
      <trkpt lat="46.57772" lon="6.00444">
        <ele>1001.35</ele>
        <time>2011-10-15T10:48:17Z</time>
      </trkpt>
      <trkpt lat="46.57773" lon="6.00445">
        <ele>1001.35</ele>
        <time>2011-10-15T10:48:18Z</time>
      </trkpt>
      <trkpt lat="46.57775" lon="6.00472">
        <ele>1000.87</ele>
        <time>2011-10-15T10:48:30Z</time>
      </trkpt>
      <trkpt lat="46.57776" lon="6.00498">
        <ele>1001.35</ele>
        <time>2011-10-15T10:48:42Z</time>
      </trkpt>
      <trkpt lat="46.57778" lon="6.00525">
        <ele>1001.83</ele>
        <time>2011-10-15T10:48:55Z</time>
      </trkpt>
      <trkpt lat="46.57775" lon="6.00558">
        <ele>1001.83</ele>
        <time>2011-10-15T10:49:06Z</time>
      </trkpt>
      <trkpt lat="46.57775" lon="6.00561">
        <ele>1001.35</ele>
        <time>2011-10-15T10:49:21Z</time>
      </trkpt>
      <trkpt lat="46.57775" lon="6.00561">
        <ele>1001.83</ele>
        <time>2011-10-15T10:49:26Z</time>
      </trkpt>
      <trkpt lat="46.57776" lon="6.00584">
        <ele>1000.87</ele>
        <time>2011-10-15T10:50:08Z</time>
      </trkpt>
      <trkpt lat="46.57771" lon="6.00611">
        <ele>998.95</ele>
        <time>2011-10-15T10:50:17Z</time>
      </trkpt>
      <trkpt lat="46.57771" lon="6.00613">
        <ele>997.99</ele>
        <time>2011-10-15T10:51:44Z</time>
      </trkpt>
      <trkpt lat="46.5777" lon="6.00617">
        <ele>999.43</ele>
        <time>2011-10-15T10:53:13Z</time>
      </trkpt>
      <trkpt lat="46.57769" lon="6.00622">
        <ele>998.95</ele>
        <time>2011-10-15T10:53:45Z</time>
      </trkpt>
      <trkpt lat="46.57761" lon="6.00652">
        <ele>998.95</ele>
        <time>2011-10-15T10:53:54Z</time>
      </trkpt>
      <trkpt lat="46.57754" lon="6.00674">
        <ele>996.06</ele>
        <time>2011-10-15T10:53:57Z</time>
      </trkpt>
      <trkpt lat="46.5775" lon="6.00683">
        <ele>995.58</ele>
        <time>2011-10-15T10:53:58Z</time>
      </trkpt>
      <trkpt lat="46.57743" lon="6.00702">
        <ele>994.14</ele>
        <time>2011-10-15T10:54:00Z</time>
      </trkpt>
      <trkpt lat="46.57739" lon="6.00712">
        <ele>994.14</ele>
        <time>2011-10-15T10:54:01Z</time>
      </trkpt>
      <trkpt lat="46.57735" lon="6.00722">
        <ele>993.18</ele>
        <time>2011-10-15T10:54:02Z</time>
      </trkpt>
      <trkpt lat="46.57731" lon="6.00731">
        <ele>993.18</ele>
        <time>2011-10-15T10:54:03Z</time>
      </trkpt>
      <trkpt lat="46.57727" lon="6.00741">
        <ele>992.22</ele>
        <time>2011-10-15T10:54:04Z</time>
      </trkpt>
      <trkpt lat="46.5771" lon="6.00788">
        <ele>992.22</ele>
        <time>2011-10-15T10:54:12Z</time>
      </trkpt>
      <trkpt lat="46.57703" lon="6.00803">
        <ele>991.26</ele>
        <time>2011-10-15T10:54:16Z</time>
      </trkpt>
      <trkpt lat="46.57703" lon="6.00808">
        <ele>991.26</ele>
        <time>2011-10-15T10:54:17Z</time>
      </trkpt>
      <trkpt lat="46.57702" lon="6.00812">
        <ele>991.26</ele>
        <time>2011-10-15T10:54:18Z</time>
      </trkpt>
      <trkpt lat="46.57701" lon="6.00817">
        <ele>994.14</ele>
        <time>2011-10-15T10:54:19Z</time>
      </trkpt>
      <trkpt lat="46.57699" lon="6.00821">
        <ele>992.22</ele>
        <time>2011-10-15T10:54:20Z</time>
      </trkpt>
      <trkpt lat="46.57698" lon="6.00826">
        <ele>990.3</ele>
        <time>2011-10-15T10:54:21Z</time>
      </trkpt>
      <trkpt lat="46.57696" lon="6.00832">
        <ele>990.3</ele>
        <time>2011-10-15T10:54:22Z</time>
      </trkpt>
      <trkpt lat="46.57691" lon="6.00845">
        <ele>988.37</ele>
        <time>2011-10-15T10:54:24Z</time>
      </trkpt>
      <trkpt lat="46.57688" lon="6.00851">
        <ele>988.85</ele>
        <time>2011-10-15T10:54:25Z</time>
      </trkpt>
      <trkpt lat="46.57685" lon="6.00857">
        <ele>987.89</ele>
        <time>2011-10-15T10:54:26Z</time>
      </trkpt>
      <trkpt lat="46.57684" lon="6.00861">
        <ele>988.37</ele>
        <time>2011-10-15T10:54:27Z</time>
      </trkpt>
      <trkpt lat="46.57683" lon="6.00866">
        <ele>987.41</ele>
        <time>2011-10-15T10:54:28Z</time>
      </trkpt>
      <trkpt lat="46.57681" lon="6.00871">
        <ele>986.93</ele>
        <time>2011-10-15T10:54:29Z</time>
      </trkpt>
      <trkpt lat="46.57679" lon="6.00876">
        <ele>987.89</ele>
        <time>2011-10-15T10:54:30Z</time>
      </trkpt>
      <trkpt lat="46.57677" lon="6.00881">
        <ele>986.93</ele>
        <time>2011-10-15T10:54:31Z</time>
      </trkpt>
      <trkpt lat="46.57659" lon="6.00931">
        <ele>985.97</ele>
        <time>2011-10-15T10:54:41Z</time>
      </trkpt>
      <trkpt lat="46.57656" lon="6.00937">
        <ele>985.49</ele>
        <time>2011-10-15T10:54:42Z</time>
      </trkpt>
      <trkpt lat="46.57654" lon="6.00943">
        <ele>985.97</ele>
        <time>2011-10-15T10:54:43Z</time>
      </trkpt>
      <trkpt lat="46.5765" lon="6.00956">
        <ele>985.49</ele>
        <time>2011-10-15T10:54:45Z</time>
      </trkpt>
      <trkpt lat="46.57649" lon="6.00961">
        <ele>985.97</ele>
        <time>2011-10-15T10:54:46Z</time>
      </trkpt>
      <trkpt lat="46.57647" lon="6.00966">
        <ele>985.01</ele>
        <time>2011-10-15T10:54:47Z</time>
      </trkpt>
      <trkpt lat="46.57645" lon="6.00971">
        <ele>985.01</ele>
        <time>2011-10-15T10:54:48Z</time>
      </trkpt>
      <trkpt lat="46.57643" lon="6.00976">
        <ele>985.01</ele>
        <time>2011-10-15T10:54:49Z</time>
      </trkpt>
      <trkpt lat="46.57641" lon="6.0098">
        <ele>985.49</ele>
        <time>2011-10-15T10:54:50Z</time>
      </trkpt>
      <trkpt lat="46.57637" lon="6.00989">
        <ele>986.45</ele>
        <time>2011-10-15T10:54:52Z</time>
      </trkpt>
      <trkpt lat="46.57625" lon="6.01016">
        <ele>989.81</ele>
        <time>2011-10-15T10:54:59Z</time>
      </trkpt>
      <trkpt lat="46.57624" lon="6.01019">
        <ele>989.81</ele>
        <time>2011-10-15T10:55:00Z</time>
      </trkpt>
      <trkpt lat="46.57622" lon="6.01027">
        <ele>991.74</ele>
        <time>2011-10-15T10:55:03Z</time>
      </trkpt>
      <trkpt lat="46.57621" lon="6.01029">
        <ele>992.7</ele>
        <time>2011-10-15T10:55:04Z</time>
      </trkpt>
      <trkpt lat="46.5762" lon="6.01032">
        <ele>992.7</ele>
        <time>2011-10-15T10:55:05Z</time>
      </trkpt>
      <trkpt lat="46.57619" lon="6.01034">
        <ele>992.22</ele>
        <time>2011-10-15T10:55:06Z</time>
      </trkpt>
      <trkpt lat="46.57618" lon="6.01036">
        <ele>992.7</ele>
        <time>2011-10-15T10:55:07Z</time>
      </trkpt>
      <trkpt lat="46.57617" lon="6.01039">
        <ele>994.14</ele>
        <time>2011-10-15T10:55:08Z</time>
      </trkpt>
      <trkpt lat="46.57616" lon="6.01041">
        <ele>994.14</ele>
        <time>2011-10-15T10:55:09Z</time>
      </trkpt>
      <trkpt lat="46.57612" lon="6.01056">
        <ele>995.58</ele>
        <time>2011-10-15T10:55:20Z</time>
      </trkpt>
      <trkpt lat="46.5761" lon="6.01069">
        <ele>996.06</ele>
        <time>2011-10-15T10:55:27Z</time>
      </trkpt>
      <trkpt lat="46.5761" lon="6.01072">
        <ele>996.06</ele>
        <time>2011-10-15T10:55:28Z</time>
      </trkpt>
      <trkpt lat="46.5761" lon="6.01076">
        <ele>995.58</ele>
        <time>2011-10-15T10:55:30Z</time>
      </trkpt>
      <trkpt lat="46.57609" lon="6.01078">
        <ele>995.58</ele>
        <time>2011-10-15T10:55:31Z</time>
      </trkpt>
      <trkpt lat="46.57609" lon="6.0108">
        <ele>996.06</ele>
        <time>2011-10-15T10:55:32Z</time>
      </trkpt>
      <trkpt lat="46.57608" lon="6.01081">
        <ele>996.06</ele>
        <time>2011-10-15T10:55:33Z</time>
      </trkpt>
      <trkpt lat="46.57605" lon="6.01095">
        <ele>997.02</ele>
        <time>2011-10-15T10:55:43Z</time>
      </trkpt>
      <trkpt lat="46.57604" lon="6.01099">
        <ele>996.06</ele>
        <time>2011-10-15T10:55:46Z</time>
      </trkpt>
      <trkpt lat="46.57599" lon="6.01117">
        <ele>996.06</ele>
        <time>2011-10-15T10:55:59Z</time>
      </trkpt>
      <trkpt lat="46.57598" lon="6.01119">
        <ele>997.02</ele>
        <time>2011-10-15T10:56:00Z</time>
      </trkpt>
      <trkpt lat="46.57596" lon="6.0112">
        <ele>997.51</ele>
        <time>2011-10-15T10:56:01Z</time>
      </trkpt>
      <trkpt lat="46.57594" lon="6.01124">
        <ele>997.51</ele>
        <time>2011-10-15T10:56:05Z</time>
      </trkpt>
      <trkpt lat="46.57591" lon="6.01136">
        <ele>998.47</ele>
        <time>2011-10-15T10:56:18Z</time>
      </trkpt>
      <trkpt lat="46.57589" lon="6.0114">
        <ele>998.95</ele>
        <time>2011-10-15T10:56:23Z</time>
      </trkpt>
      <trkpt lat="46.57587" lon="6.01141">
        <ele>998.95</ele>
        <time>2011-10-15T10:56:24Z</time>
      </trkpt>
      <trkpt lat="46.57581" lon="6.01153">
        <ele>999.91</ele>
        <time>2011-10-15T10:56:35Z</time>
      </trkpt>
      <trkpt lat="46.57575" lon="6.01165">
        <ele>1000.39</ele>
        <time>2011-10-15T10:56:41Z</time>
      </trkpt>
      <trkpt lat="46.57569" lon="6.01179">
        <ele>1000.39</ele>
        <time>2011-10-15T10:56:50Z</time>
      </trkpt>
      <trkpt lat="46.57568" lon="6.01197">
        <ele>1001.35</ele>
        <time>2011-10-15T10:57:01Z</time>
      </trkpt>
      <trkpt lat="46.5757" lon="6.01215">
        <ele>1002.31</ele>
        <time>2011-10-15T10:57:14Z</time>
      </trkpt>
      <trkpt lat="46.57568" lon="6.01227">
        <ele>1003.75</ele>
        <time>2011-10-15T10:57:24Z</time>
      </trkpt>
      <trkpt lat="46.57566" lon="6.01247">
        <ele>1004.23</ele>
        <time>2011-10-15T10:57:33Z</time>
      </trkpt>
      <trkpt lat="46.57567" lon="6.0127">
        <ele>1004.72</ele>
        <time>2011-10-15T10:57:45Z</time>
      </trkpt>
      <trkpt lat="46.57567" lon="6.0129">
        <ele>1005.68</ele>
        <time>2011-10-15T10:57:57Z</time>
      </trkpt>
      <trkpt lat="46.57567" lon="6.01295">
        <ele>1005.68</ele>
        <time>2011-10-15T10:58:01Z</time>
      </trkpt>
      <trkpt lat="46.57559" lon="6.01322">
        <ele>1006.64</ele>
        <time>2011-10-15T10:58:12Z</time>
      </trkpt>
      <trkpt lat="46.5755" lon="6.01346">
        <ele>1007.6</ele>
        <time>2011-10-15T10:58:25Z</time>
      </trkpt>
      <trkpt lat="46.57546" lon="6.01362">
        <ele>1009.04</ele>
        <time>2011-10-15T10:58:38Z</time>
      </trkpt>
      <trkpt lat="46.57546" lon="6.01364">
        <ele>1008.56</ele>
        <time>2011-10-15T10:58:40Z</time>
      </trkpt>
      <trkpt lat="46.57545" lon="6.01367">
        <ele>1008.56</ele>
        <time>2011-10-15T10:58:42Z</time>
      </trkpt>
      <trkpt lat="46.5754" lon="6.01379">
        <ele>1009.52</ele>
        <time>2011-10-15T10:58:49Z</time>
      </trkpt>
      <trkpt lat="46.57539" lon="6.01386">
        <ele>1010.48</ele>
        <time>2011-10-15T10:58:54Z</time>
      </trkpt>
      <trkpt lat="46.57531" lon="6.01412">
        <ele>1012.41</ele>
        <time>2011-10-15T10:59:06Z</time>
      </trkpt>
      <trkpt lat="46.57528" lon="6.01422">
        <ele>1008.56</ele>
        <time>2011-10-15T10:59:16Z</time>
      </trkpt>
      <trkpt lat="46.57527" lon="6.01424">
        <ele>1017.69</ele>
        <time>2011-10-15T10:59:17Z</time>
      </trkpt>
      <trkpt lat="46.57526" lon="6.01425">
        <ele>1014.33</ele>
        <time>2011-10-15T10:59:18Z</time>
      </trkpt>
      <trkpt lat="46.57525" lon="6.01428">
        <ele>1014.33</ele>
        <time>2011-10-15T10:59:20Z</time>
      </trkpt>
      <trkpt lat="46.57524" lon="6.0143">
        <ele>1014.33</ele>
        <time>2011-10-15T10:59:21Z</time>
      </trkpt>
      <trkpt lat="46.57521" lon="6.01433">
        <ele>1013.85</ele>
        <time>2011-10-15T10:59:24Z</time>
      </trkpt>
      <trkpt lat="46.57519" lon="6.01435">
        <ele>1015.29</ele>
        <time>2011-10-15T10:59:25Z</time>
      </trkpt>
      <trkpt lat="46.57514" lon="6.01442">
        <ele>1014.33</ele>
        <time>2011-10-15T10:59:29Z</time>
      </trkpt>
      <trkpt lat="46.57512" lon="6.01445">
        <ele>1015.29</ele>
        <time>2011-10-15T10:59:31Z</time>
      </trkpt>
      <trkpt lat="46.57511" lon="6.01447">
        <ele>1014.81</ele>
        <time>2011-10-15T10:59:32Z</time>
      </trkpt>
      <trkpt lat="46.575" lon="6.0146">
        <ele>1015.77</ele>
        <time>2011-10-15T10:59:46Z</time>
      </trkpt>
      <trkpt lat="46.57497" lon="6.01464">
        <ele>1017.69</ele>
        <time>2011-10-15T10:59:54Z</time>
      </trkpt>
      <trkpt lat="46.57491" lon="6.01467">
        <ele>1020.1</ele>
        <time>2011-10-15T11:00:04Z</time>
      </trkpt>
      <trkpt lat="46.57478" lon="6.01477">
        <ele>1021.54</ele>
        <time>2011-10-15T11:00:14Z</time>
      </trkpt>
      <trkpt lat="46.5747" lon="6.01481">
        <ele>1022.02</ele>
        <time>2011-10-15T11:00:17Z</time>
      </trkpt>
      <trkpt lat="46.57468" lon="6.01482">
        <ele>1021.06</ele>
        <time>2011-10-15T11:00:18Z</time>
      </trkpt>
      <trkpt lat="46.57455" lon="6.01496">
        <ele>1021.54</ele>
        <time>2011-10-15T11:00:28Z</time>
      </trkpt>
      <trkpt lat="46.57452" lon="6.01498">
        <ele>1022.5</ele>
        <time>2011-10-15T11:00:30Z</time>
      </trkpt>
      <trkpt lat="46.5745" lon="6.01499">
        <ele>1022.02</ele>
        <time>2011-10-15T11:00:31Z</time>
      </trkpt>
      <trkpt lat="46.57441" lon="6.01502">
        <ele>1021.06</ele>
        <time>2011-10-15T11:00:37Z</time>
      </trkpt>
      <trkpt lat="46.5744" lon="6.01504">
        <ele>1021.54</ele>
        <time>2011-10-15T11:00:38Z</time>
      </trkpt>
      <trkpt lat="46.57434" lon="6.01506">
        <ele>1020.58</ele>
        <time>2011-10-15T11:00:41Z</time>
      </trkpt>
      <trkpt lat="46.57431" lon="6.01505">
        <ele>1020.58</ele>
        <time>2011-10-15T11:00:42Z</time>
      </trkpt>
      <trkpt lat="46.57427" lon="6.01506">
        <ele>1020.1</ele>
        <time>2011-10-15T11:00:43Z</time>
      </trkpt>
      <trkpt lat="46.57425" lon="6.01506">
        <ele>1020.58</ele>
        <time>2011-10-15T11:00:44Z</time>
      </trkpt>
      <trkpt lat="46.57422" lon="6.01506">
        <ele>1021.06</ele>
        <time>2011-10-15T11:00:45Z</time>
      </trkpt>
      <trkpt lat="46.57399" lon="6.01527">
        <ele>1021.54</ele>
        <time>2011-10-15T11:00:55Z</time>
      </trkpt>
      <trkpt lat="46.57381" lon="6.01544">
        <ele>1020.58</ele>
        <time>2011-10-15T11:01:04Z</time>
      </trkpt>
      <trkpt lat="46.57358" lon="6.01565">
        <ele>1017.69</ele>
        <time>2011-10-15T11:01:13Z</time>
      </trkpt>
      <trkpt lat="46.57354" lon="6.01568">
        <ele>1018.65</ele>
        <time>2011-10-15T11:01:14Z</time>
      </trkpt>
      <trkpt lat="46.57328" lon="6.01596">
        <ele>1018.65</ele>
        <time>2011-10-15T11:01:23Z</time>
      </trkpt>
      <trkpt lat="46.57291" lon="6.01623">
        <ele>1016.73</ele>
        <time>2011-10-15T11:01:35Z</time>
      </trkpt>
      <trkpt lat="46.57272" lon="6.01632">
        <ele>1017.21</ele>
        <time>2011-10-15T11:01:44Z</time>
      </trkpt>
      <trkpt lat="46.57269" lon="6.01635">
        <ele>1017.21</ele>
        <time>2011-10-15T11:01:45Z</time>
      </trkpt>
      <trkpt lat="46.57266" lon="6.0164">
        <ele>1017.21</ele>
        <time>2011-10-15T11:01:46Z</time>
      </trkpt>
      <trkpt lat="46.57264" lon="6.01643">
        <ele>1016.73</ele>
        <time>2011-10-15T11:01:47Z</time>
      </trkpt>
      <trkpt lat="46.57261" lon="6.01649">
        <ele>1020.58</ele>
        <time>2011-10-15T11:01:52Z</time>
      </trkpt>
      <trkpt lat="46.57259" lon="6.01651">
        <ele>1016.73</ele>
        <time>2011-10-15T11:01:53Z</time>
      </trkpt>
      <trkpt lat="46.57256" lon="6.01654">
        <ele>1016.73</ele>
        <time>2011-10-15T11:01:54Z</time>
      </trkpt>
      <trkpt lat="46.57254" lon="6.01656">
        <ele>1016.25</ele>
        <time>2011-10-15T11:01:55Z</time>
      </trkpt>
      <trkpt lat="46.57251" lon="6.01659">
        <ele>1016.25</ele>
        <time>2011-10-15T11:01:56Z</time>
      </trkpt>
      <trkpt lat="46.57249" lon="6.01661">
        <ele>1016.25</ele>
        <time>2011-10-15T11:01:57Z</time>
      </trkpt>
      <trkpt lat="46.57246" lon="6.01664">
        <ele>1015.29</ele>
        <time>2011-10-15T11:01:58Z</time>
      </trkpt>
      <trkpt lat="46.57243" lon="6.01667">
        <ele>1015.77</ele>
        <time>2011-10-15T11:01:59Z</time>
      </trkpt>
      <trkpt lat="46.57241" lon="6.01671">
        <ele>1014.81</ele>
        <time>2011-10-15T11:02:00Z</time>
      </trkpt>
      <trkpt lat="46.57237" lon="6.01675">
        <ele>1015.77</ele>
        <time>2011-10-15T11:02:01Z</time>
      </trkpt>
      <trkpt lat="46.57234" lon="6.01678">
        <ele>1016.73</ele>
        <time>2011-10-15T11:02:02Z</time>
      </trkpt>
      <trkpt lat="46.57204" lon="6.01733">
        <ele>1016.73</ele>
        <time>2011-10-15T11:02:12Z</time>
      </trkpt>
      <trkpt lat="46.57193" lon="6.01748">
        <ele>1018.17</ele>
        <time>2011-10-15T11:02:16Z</time>
      </trkpt>
      <trkpt lat="46.5719" lon="6.01752">
        <ele>1018.17</ele>
        <time>2011-10-15T11:02:17Z</time>
      </trkpt>
      <trkpt lat="46.5717" lon="6.01778">
        <ele>1015.29</ele>
        <time>2011-10-15T11:02:24Z</time>
      </trkpt>
      <trkpt lat="46.57166" lon="6.01783">
        <ele>1014.81</ele>
        <time>2011-10-15T11:02:25Z</time>
      </trkpt>
      <trkpt lat="46.57161" lon="6.01788">
        <ele>1015.29</ele>
        <time>2011-10-15T11:02:26Z</time>
      </trkpt>
      <trkpt lat="46.57157" lon="6.01791">
        <ele>1014.81</ele>
        <time>2011-10-15T11:02:27Z</time>
      </trkpt>
      <trkpt lat="46.57153" lon="6.01796">
        <ele>1014.81</ele>
        <time>2011-10-15T11:02:28Z</time>
      </trkpt>
      <trkpt lat="46.57149" lon="6.01801">
        <ele>1014.33</ele>
        <time>2011-10-15T11:02:29Z</time>
      </trkpt>
      <trkpt lat="46.57143" lon="6.01806">
        <ele>1014.33</ele>
        <time>2011-10-15T11:02:30Z</time>
      </trkpt>
      <trkpt lat="46.57138" lon="6.01811">
        <ele>1013.85</ele>
        <time>2011-10-15T11:02:31Z</time>
      </trkpt>
      <trkpt lat="46.57126" lon="6.01827">
        <ele>1014.33</ele>
        <time>2011-10-15T11:02:34Z</time>
      </trkpt>
      <trkpt lat="46.57124" lon="6.01833">
        <ele>1014.33</ele>
        <time>2011-10-15T11:02:35Z</time>
      </trkpt>
      <trkpt lat="46.57123" lon="6.0184">
        <ele>1013.85</ele>
        <time>2011-10-15T11:02:36Z</time>
      </trkpt>
      <trkpt lat="46.57122" lon="6.01847">
        <ele>1013.85</ele>
        <time>2011-10-15T11:02:37Z</time>
      </trkpt>
      <trkpt lat="46.57122" lon="6.01854">
        <ele>1013.37</ele>
        <time>2011-10-15T11:02:38Z</time>
      </trkpt>
      <trkpt lat="46.57121" lon="6.0186">
        <ele>1013.85</ele>
        <time>2011-10-15T11:02:39Z</time>
      </trkpt>
      <trkpt lat="46.57119" lon="6.01867">
        <ele>1013.37</ele>
        <time>2011-10-15T11:02:40Z</time>
      </trkpt>
      <trkpt lat="46.57118" lon="6.01874">
        <ele>1012.89</ele>
        <time>2011-10-15T11:02:41Z</time>
      </trkpt>
      <trkpt lat="46.57117" lon="6.01882">
        <ele>1012.89</ele>
        <time>2011-10-15T11:02:42Z</time>
      </trkpt>
      <trkpt lat="46.57116" lon="6.01889">
        <ele>1011.93</ele>
        <time>2011-10-15T11:02:43Z</time>
      </trkpt>
      <trkpt lat="46.57115" lon="6.01897">
        <ele>1011.93</ele>
        <time>2011-10-15T11:02:44Z</time>
      </trkpt>
      <trkpt lat="46.57111" lon="6.01921">
        <ele>1011.44</ele>
        <time>2011-10-15T11:02:47Z</time>
      </trkpt>
      <trkpt lat="46.57109" lon="6.01928">
        <ele>1011.93</ele>
        <time>2011-10-15T11:02:48Z</time>
      </trkpt>
      <trkpt lat="46.57106" lon="6.01935">
        <ele>1011.93</ele>
        <time>2011-10-15T11:02:49Z</time>
      </trkpt>
      <trkpt lat="46.57103" lon="6.01942">
        <ele>1011.44</ele>
        <time>2011-10-15T11:02:50Z</time>
      </trkpt>
      <trkpt lat="46.571" lon="6.01949">
        <ele>1011.93</ele>
        <time>2011-10-15T11:02:51Z</time>
      </trkpt>
      <trkpt lat="46.57096" lon="6.01954">
        <ele>1011.44</ele>
        <time>2011-10-15T11:02:52Z</time>
      </trkpt>
      <trkpt lat="46.57093" lon="6.01956">
        <ele>1011.93</ele>
        <time>2011-10-15T11:02:53Z</time>
      </trkpt>
      <trkpt lat="46.57091" lon="6.01958">
        <ele>1012.89</ele>
        <time>2011-10-15T11:02:54Z</time>
      </trkpt>
      <trkpt lat="46.57088" lon="6.0196">
        <ele>1012.41</ele>
        <time>2011-10-15T11:02:55Z</time>
      </trkpt>
      <trkpt lat="46.57085" lon="6.01962">
        <ele>1011.93</ele>
        <time>2011-10-15T11:02:56Z</time>
      </trkpt>
      <trkpt lat="46.57083" lon="6.01964">
        <ele>1011.93</ele>
        <time>2011-10-15T11:02:57Z</time>
      </trkpt>
      <trkpt lat="46.5708" lon="6.01965">
        <ele>1011.93</ele>
        <time>2011-10-15T11:02:58Z</time>
      </trkpt>
      <trkpt lat="46.57078" lon="6.01966">
        <ele>1011.93</ele>
        <time>2011-10-15T11:02:59Z</time>
      </trkpt>
      <trkpt lat="46.57076" lon="6.01968">
        <ele>1011.44</ele>
        <time>2011-10-15T11:03:00Z</time>
      </trkpt>
      <trkpt lat="46.57074" lon="6.01972">
        <ele>1011.44</ele>
        <time>2011-10-15T11:03:01Z</time>
      </trkpt>
      <trkpt lat="46.57073" lon="6.01975">
        <ele>1010.48</ele>
        <time>2011-10-15T11:03:02Z</time>
      </trkpt>
      <trkpt lat="46.57072" lon="6.01977">
        <ele>1010.48</ele>
        <time>2011-10-15T11:03:03Z</time>
      </trkpt>
      <trkpt lat="46.57061" lon="6.01992">
        <ele>1010.48</ele>
        <time>2011-10-15T11:03:06Z</time>
      </trkpt>
      <trkpt lat="46.57056" lon="6.01999">
        <ele>1010</ele>
        <time>2011-10-15T11:03:07Z</time>
      </trkpt>
      <trkpt lat="46.57018" lon="6.02083">
        <ele>1011.44</ele>
        <time>2011-10-15T11:03:21Z</time>
      </trkpt>
      <trkpt lat="46.56997" lon="6.02125">
        <ele>1011.44</ele>
        <time>2011-10-15T11:03:34Z</time>
      </trkpt>
      <trkpt lat="46.56974" lon="6.02166">
        <ele>1010.48</ele>
        <time>2011-10-15T11:03:46Z</time>
      </trkpt>
      <trkpt lat="46.56974" lon="6.0217">
        <ele>1010</ele>
        <time>2011-10-15T11:03:47Z</time>
      </trkpt>
      <trkpt lat="46.56973" lon="6.02175">
        <ele>1009.52</ele>
        <time>2011-10-15T11:03:48Z</time>
      </trkpt>
      <trkpt lat="46.56958" lon="6.02227">
        <ele>1010</ele>
        <time>2011-10-15T11:04:00Z</time>
      </trkpt>
      <trkpt lat="46.56952" lon="6.02262">
        <ele>1005.68</ele>
        <time>2011-10-15T11:04:09Z</time>
      </trkpt>
      <trkpt lat="46.56951" lon="6.02275">
        <ele>1010</ele>
        <time>2011-10-15T11:04:11Z</time>
      </trkpt>
      <trkpt lat="46.5695" lon="6.0231">
        <ele>1006.16</ele>
        <time>2011-10-15T11:04:16Z</time>
      </trkpt>
      <trkpt lat="46.5695" lon="6.02317">
        <ele>1006.64</ele>
        <time>2011-10-15T11:04:17Z</time>
      </trkpt>
      <trkpt lat="46.56948" lon="6.02323">
        <ele>1006.64</ele>
        <time>2011-10-15T11:04:18Z</time>
      </trkpt>
      <trkpt lat="46.56947" lon="6.02328">
        <ele>1005.68</ele>
        <time>2011-10-15T11:04:19Z</time>
      </trkpt>
      <trkpt lat="46.56944" lon="6.02332">
        <ele>1005.2</ele>
        <time>2011-10-15T11:04:20Z</time>
      </trkpt>
      <trkpt lat="46.56942" lon="6.02336">
        <ele>1005.2</ele>
        <time>2011-10-15T11:04:21Z</time>
      </trkpt>
      <trkpt lat="46.56945" lon="6.02388">
        <ele>1002.31</ele>
        <time>2011-10-15T11:04:30Z</time>
      </trkpt>
      <trkpt lat="46.56945" lon="6.02394">
        <ele>1002.31</ele>
        <time>2011-10-15T11:04:31Z</time>
      </trkpt>
      <trkpt lat="46.56946" lon="6.02399">
        <ele>1002.31</ele>
        <time>2011-10-15T11:04:32Z</time>
      </trkpt>
      <trkpt lat="46.56958" lon="6.02488">
        <ele>1000.87</ele>
        <time>2011-10-15T11:04:47Z</time>
      </trkpt>
      <trkpt lat="46.56962" lon="6.0252">
        <ele>1000.87</ele>
        <time>2011-10-15T11:04:52Z</time>
      </trkpt>
      <trkpt lat="46.56963" lon="6.02526">
        <ele>1000.39</ele>
        <time>2011-10-15T11:04:53Z</time>
      </trkpt>
      <trkpt lat="46.56967" lon="6.02548">
        <ele>998.95</ele>
        <time>2011-10-15T11:04:56Z</time>
      </trkpt>
      <trkpt lat="46.56981" lon="6.02621">
        <ele>996.06</ele>
        <time>2011-10-15T11:05:04Z</time>
      </trkpt>
      <trkpt lat="46.56985" lon="6.0264">
        <ele>995.1</ele>
        <time>2011-10-15T11:05:06Z</time>
      </trkpt>
      <trkpt lat="46.56998" lon="6.02699">
        <ele>992.22</ele>
        <time>2011-10-15T11:05:12Z</time>
      </trkpt>
      <trkpt lat="46.57012" lon="6.02767">
        <ele>990.3</ele>
        <time>2011-10-15T11:05:19Z</time>
      </trkpt>
      <trkpt lat="46.57041" lon="6.029">
        <ele>987.41</ele>
        <time>2011-10-15T11:05:33Z</time>
      </trkpt>
      <trkpt lat="46.57044" lon="6.02904">
        <ele>987.41</ele>
        <time>2011-10-15T11:05:34Z</time>
      </trkpt>
      <trkpt lat="46.57047" lon="6.02907">
        <ele>987.89</ele>
        <time>2011-10-15T11:05:35Z</time>
      </trkpt>
      <trkpt lat="46.57051" lon="6.02908">
        <ele>988.85</ele>
        <time>2011-10-15T11:05:36Z</time>
      </trkpt>
      <trkpt lat="46.57054" lon="6.02908">
        <ele>988.85</ele>
        <time>2011-10-15T11:05:37Z</time>
      </trkpt>
      <trkpt lat="46.57057" lon="6.02908">
        <ele>988.85</ele>
        <time>2011-10-15T11:05:38Z</time>
      </trkpt>
      <trkpt lat="46.57076" lon="6.02911">
        <ele>990.3</ele>
        <time>2011-10-15T11:05:45Z</time>
      </trkpt>
      <trkpt lat="46.57079" lon="6.02912">
        <ele>990.78</ele>
        <time>2011-10-15T11:05:46Z</time>
      </trkpt>
      <trkpt lat="46.57081" lon="6.02913">
        <ele>990.3</ele>
        <time>2011-10-15T11:05:47Z</time>
      </trkpt>
      <trkpt lat="46.57102" lon="6.02942">
        <ele>994.14</ele>
        <time>2011-10-15T11:05:59Z</time>
      </trkpt>
      <trkpt lat="46.57125" lon="6.02969">
        <ele>995.1</ele>
        <time>2011-10-15T11:06:12Z</time>
      </trkpt>
      <trkpt lat="46.57151" lon="6.02995">
        <ele>997.51</ele>
        <time>2011-10-15T11:06:28Z</time>
      </trkpt>
      <trkpt lat="46.57169" lon="6.03004">
        <ele>1000.87</ele>
        <time>2011-10-15T11:06:39Z</time>
      </trkpt>
      <trkpt lat="46.57194" lon="6.03012">
        <ele>1003.27</ele>
        <time>2011-10-15T11:06:53Z</time>
      </trkpt>
      <trkpt lat="46.5721" lon="6.0302">
        <ele>1004.72</ele>
        <time>2011-10-15T11:07:04Z</time>
      </trkpt>
      <trkpt lat="46.57211" lon="6.0302">
        <ele>1004.72</ele>
        <time>2011-10-15T11:07:05Z</time>
      </trkpt>
      <trkpt lat="46.57213" lon="6.0302">
        <ele>1005.2</ele>
        <time>2011-10-15T11:07:06Z</time>
      </trkpt>
      <trkpt lat="46.57214" lon="6.03021">
        <ele>1005.2</ele>
        <time>2011-10-15T11:07:07Z</time>
      </trkpt>
      <trkpt lat="46.57215" lon="6.03023">
        <ele>1005.68</ele>
        <time>2011-10-15T11:07:08Z</time>
      </trkpt>
      <trkpt lat="46.57216" lon="6.03024">
        <ele>1005.2</ele>
        <time>2011-10-15T11:07:09Z</time>
      </trkpt>
      <trkpt lat="46.5723" lon="6.03024">
        <ele>1006.16</ele>
        <time>2011-10-15T11:07:18Z</time>
      </trkpt>
      <trkpt lat="46.57232" lon="6.03025">
        <ele>1006.64</ele>
        <time>2011-10-15T11:07:19Z</time>
      </trkpt>
      <trkpt lat="46.57234" lon="6.03026">
        <ele>1007.12</ele>
        <time>2011-10-15T11:07:20Z</time>
      </trkpt>
      <trkpt lat="46.57235" lon="6.03027">
        <ele>1006.64</ele>
        <time>2011-10-15T11:07:21Z</time>
      </trkpt>
      <trkpt lat="46.57237" lon="6.03028">
        <ele>1007.12</ele>
        <time>2011-10-15T11:07:22Z</time>
      </trkpt>
      <trkpt lat="46.57239" lon="6.03028">
        <ele>1007.12</ele>
        <time>2011-10-15T11:07:23Z</time>
      </trkpt>
      <trkpt lat="46.57241" lon="6.03029">
        <ele>1007.12</ele>
        <time>2011-10-15T11:07:24Z</time>
      </trkpt>
      <trkpt lat="46.57262" lon="6.03049">
        <ele>1008.08</ele>
        <time>2011-10-15T11:07:38Z</time>
      </trkpt>
      <trkpt lat="46.57271" lon="6.03085">
        <ele>1008.56</ele>
        <time>2011-10-15T11:07:51Z</time>
      </trkpt>
      <trkpt lat="46.57297" lon="6.03135">
        <ele>1010</ele>
        <time>2011-10-15T11:08:05Z</time>
      </trkpt>
      <trkpt lat="46.5732" lon="6.03174">
        <ele>1008.56</ele>
        <time>2011-10-15T11:08:17Z</time>
      </trkpt>
      <trkpt lat="46.57321" lon="6.03187">
        <ele>1008.08</ele>
        <time>2011-10-15T11:08:19Z</time>
      </trkpt>
      <trkpt lat="46.57319" lon="6.03221">
        <ele>1006.16</ele>
        <time>2011-10-15T11:08:24Z</time>
      </trkpt>
      <trkpt lat="46.57317" lon="6.03235">
        <ele>1004.23</ele>
        <time>2011-10-15T11:08:26Z</time>
      </trkpt>
      <trkpt lat="46.57316" lon="6.03243">
        <ele>1004.72</ele>
        <time>2011-10-15T11:08:27Z</time>
      </trkpt>
      <trkpt lat="46.57312" lon="6.03266">
        <ele>1003.27</ele>
        <time>2011-10-15T11:08:30Z</time>
      </trkpt>
      <trkpt lat="46.57306" lon="6.03314">
        <ele>1000.39</ele>
        <time>2011-10-15T11:08:36Z</time>
      </trkpt>
      <trkpt lat="46.57307" lon="6.03345">
        <ele>999.91</ele>
        <time>2011-10-15T11:08:44Z</time>
      </trkpt>
      <trkpt lat="46.57314" lon="6.03346">
        <ele>995.1</ele>
        <time>2011-10-15T11:08:48Z</time>
      </trkpt>
      <trkpt lat="46.57315" lon="6.03348">
        <ele>999.91</ele>
        <time>2011-10-15T11:08:49Z</time>
      </trkpt>
      <trkpt lat="46.57308" lon="6.03344">
        <ele>990</ele>
      </trkpt>
      <trkpt lat="46.5731" lon="6.03354">
        <ele>990</ele>
      </trkpt>
      <trkpt lat="46.57314" lon="6.03364">
        <ele>989.66796875</ele>
      </trkpt>
      <trkpt lat="46.57317" lon="6.03374">
        <ele>989.31640625</ele>
      </trkpt>
      <trkpt lat="46.5732" lon="6.03383">
        <ele>989.01171875</ele>
      </trkpt>
      <trkpt lat="46.57322" lon="6.03393">
        <ele>989.08984375</ele>
      </trkpt>
      <trkpt lat="46.57326" lon="6.03401">
        <ele>989.05859375</ele>
      </trkpt>
      <trkpt lat="46.57331" lon="6.03411">
        <ele>989.0703125</ele>
      </trkpt>
      <trkpt lat="46.57335" lon="6.0342">
        <ele>989.49609375</ele>
      </trkpt>
      <trkpt lat="46.5734" lon="6.03428">
        <ele>989.7890625</ele>
      </trkpt>
      <trkpt lat="46.57345" lon="6.03434">
        <ele>989.94140625</ele>
      </trkpt>
      <trkpt lat="46.57351" lon="6.0344">
        <ele>990.0859375</ele>
      </trkpt>
      <trkpt lat="46.57355" lon="6.03448">
        <ele>990.375</ele>
      </trkpt>
      <trkpt lat="46.57357" lon="6.03457">
        <ele>990.734375</ele>
      </trkpt>
      <trkpt lat="46.57362" lon="6.03467">
        <ele>991.21484375</ele>
      </trkpt>
      <trkpt lat="46.57366" lon="6.03475">
        <ele>991.54296875</ele>
      </trkpt>
      <trkpt lat="46.5737" lon="6.03483">
        <ele>991.79296875</ele>
      </trkpt>
      <trkpt lat="46.57374" lon="6.0349">
        <ele>991.95703125</ele>
      </trkpt>
      <trkpt lat="46.57376" lon="6.035">
        <ele>992.31640625</ele>
      </trkpt>
      <trkpt lat="46.57379" lon="6.0351">
        <ele>992.71484375</ele>
      </trkpt>
      <trkpt lat="46.57384" lon="6.03516">
        <ele>992.80859375</ele>
      </trkpt>
      <trkpt lat="46.57384" lon="6.03529">
        <ele>993.30078125</ele>
      </trkpt>
      <trkpt lat="46.57384" lon="6.03545">
        <ele>993.8671875</ele>
      </trkpt>
      <trkpt lat="46.57384" lon="6.03559">
        <ele>994.70703125</ele>
      </trkpt>
      <trkpt lat="46.57383" lon="6.0357">
        <ele>995.609375</ele>
      </trkpt>
      <trkpt lat="46.57383" lon="6.03584">
        <ele>996.31640625</ele>
      </trkpt>
      <trkpt lat="46.57387" lon="6.03592">
        <ele>996.35546875</ele>
      </trkpt>
      <trkpt lat="46.5739" lon="6.03602">
        <ele>996.515625</ele>
      </trkpt>
      <trkpt lat="46.57393" lon="6.03611">
        <ele>996.671875</ele>
      </trkpt>
      <trkpt lat="46.57397" lon="6.03621">
        <ele>996.73046875</ele>
      </trkpt>
      <trkpt lat="46.57402" lon="6.03627">
        <ele>996.55078125</ele>
      </trkpt>
      <trkpt lat="46.57407" lon="6.03635">
        <ele>996.37109375</ele>
      </trkpt>
      <trkpt lat="46.57413" lon="6.03644">
        <ele>996</ele>
      </trkpt>
      <trkpt lat="46.57413" lon="6.03658">
        <ele>996</ele>
      </trkpt>
      <trkpt lat="46.57411" lon="6.0367">
        <ele>996.44921875</ele>
      </trkpt>
      <trkpt lat="46.57411" lon="6.03683">
        <ele>996.94140625</ele>
      </trkpt>
      <trkpt lat="46.57411" lon="6.03699">
        <ele>997.50390625</ele>
      </trkpt>
      <trkpt lat="46.57411" lon="6.03713">
        <ele>997.9921875</ele>
      </trkpt>
      <trkpt lat="46.5741" lon="6.03724">
        <ele>998.55859375</ele>
      </trkpt>
      <trkpt lat="46.57407" lon="6.03734">
        <ele>999.203125</ele>
      </trkpt>
      <trkpt lat="46.57406" lon="6.03746">
        <ele>999.76953125</ele>
      </trkpt>
      <trkpt lat="46.57405" lon="6.03757">
        <ele>1000.3359375</ele>
      </trkpt>
      <trkpt lat="46.57405" lon="6.03771">
        <ele>1000.82421875</ele>
      </trkpt>
      <trkpt lat="46.57405" lon="6.03785">
        <ele>1000.82421875</ele>
      </trkpt>
      <trkpt lat="46.57405" lon="6.03798">
        <ele>1000.82421875</ele>
      </trkpt>
      <trkpt lat="46.57405" lon="6.03812">
        <ele>1001.30078125</ele>
      </trkpt>
      <trkpt lat="46.57405" lon="6.03826">
        <ele>1001.79296875</ele>
      </trkpt>
      <trkpt lat="46.57407" lon="6.03835">
        <ele>1002.171875</ele>
      </trkpt>
      <trkpt lat="46.57409" lon="6.03847">
        <ele>1002.8671875</ele>
      </trkpt>
      <trkpt lat="46.57411" lon="6.03857">
        <ele>1003.1875</ele>
      </trkpt>
      <trkpt lat="46.57414" lon="6.03869">
        <ele>1003.4453125</ele>
      </trkpt>
      <trkpt lat="46.57418" lon="6.03876">
        <ele>1003.58203125</ele>
      </trkpt>
      <trkpt lat="46.57422" lon="6.03884">
        <ele>1003.71875</ele>
      </trkpt>
      <trkpt lat="46.57423" lon="6.03896">
        <ele>1004.08984375</ele>
      </trkpt>
      <trkpt lat="46.57426" lon="6.03906">
        <ele>1004.34375</ele>
      </trkpt>
      <trkpt lat="46.57429" lon="6.03915">
        <ele>1004.79296875</ele>
      </trkpt>
      <trkpt lat="46.57433" lon="6.03925">
        <ele>1005.3515625</ele>
      </trkpt>
      <trkpt lat="46.57437" lon="6.03935">
        <ele>1005.90625</ele>
      </trkpt>
      <trkpt lat="46.57441" lon="6.03945">
        <ele>1006.22265625</ele>
      </trkpt>
      <trkpt lat="46.57445" lon="6.03954">
        <ele>1006.52734375</ele>
      </trkpt>
      <trkpt lat="46.57448" lon="6.03964">
        <ele>1006.9375</ele>
      </trkpt>
      <trkpt lat="46.5745" lon="6.03974">
        <ele>1007.4921875</ele>
      </trkpt>
      <trkpt lat="46.57453" lon="6.03985">
        <ele>1008.10546875</ele>
      </trkpt>
      <trkpt lat="46.57456" lon="6.03995">
        <ele>1008.50390625</ele>
      </trkpt>
      <trkpt lat="46.57457" lon="6.04007">
        <ele>1008.87890625</ele>
      </trkpt>
      <trkpt lat="46.57461" lon="6.04015">
        <ele>1009.01171875</ele>
      </trkpt>
      <trkpt lat="46.57464" lon="6.04024">
        <ele>1009.265625</ele>
      </trkpt>
      <trkpt lat="46.57467" lon="6.04036">
        <ele>1009.58984375</ele>
      </trkpt>
      <trkpt lat="46.57469" lon="6.04046">
        <ele>1009.8515625</ele>
      </trkpt>
      <trkpt lat="46.57471" lon="6.04058">
        <ele>1010.21875</ele>
      </trkpt>
      <trkpt lat="46.57472" lon="6.04069">
        <ele>1010.58984375</ele>
      </trkpt>
      <trkpt lat="46.57472" lon="6.04083">
        <ele>1011.046875</ele>
      </trkpt>
      <trkpt lat="46.57473" lon="6.04095">
        <ele>1011.32421875</ele>
      </trkpt>
      <trkpt lat="46.57473" lon="6.04108">
        <ele>1011.859375</ele>
      </trkpt>
      <trkpt lat="46.57473" lon="6.04122">
        <ele>1012.74609375</ele>
      </trkpt>
      <trkpt lat="46.57471" lon="6.04132">
        <ele>1013.66796875</ele>
      </trkpt>
      <trkpt lat="46.57469" lon="6.04143">
        <ele>1013.859375</ele>
      </trkpt>
      <trkpt lat="46.57467" lon="6.04153">
        <ele>1014.07421875</ele>
      </trkpt>
      <trkpt lat="46.57467" lon="6.04167">
        <ele>1014.3359375</ele>
      </trkpt>
      <trkpt lat="46.57465" lon="6.04178">
        <ele>1014.85546875</ele>
      </trkpt>
      <trkpt lat="46.57464" lon="6.0419">
        <ele>1015.27734375</ele>
      </trkpt>
      <trkpt lat="46.57463" lon="6.04202">
        <ele>1015.375</ele>
      </trkpt>
      <trkpt lat="46.57463" lon="6.04215">
        <ele>1015.375</ele>
      </trkpt>
      <trkpt lat="46.57461" lon="6.04227">
        <ele>1015.47265625</ele>
      </trkpt>
      <trkpt lat="46.57461" lon="6.04241">
        <ele>1015.47265625</ele>
      </trkpt>
      <trkpt lat="46.5746" lon="6.04252">
        <ele>1015.5703125</ele>
      </trkpt>
      <trkpt lat="46.5746" lon="6.04266">
        <ele>1015.5703125</ele>
      </trkpt>
      <trkpt lat="46.57461" lon="6.0428">
        <ele>1015.47265625</ele>
      </trkpt>
      <trkpt lat="46.57463" lon="6.04291">
        <ele>1015.375</ele>
      </trkpt>
      <trkpt lat="46.57464" lon="6.04303">
        <ele>1015.421875</ele>
      </trkpt>
      <trkpt lat="46.57467" lon="6.04313">
        <ele>1015.578125</ele>
      </trkpt>
      <trkpt lat="46.57469" lon="6.04323">
        <ele>1015.921875</ele>
      </trkpt>
      <trkpt lat="46.57469" lon="6.04336">
        <ele>1016.43359375</ele>
      </trkpt>
      <trkpt lat="46.57469" lon="6.0435">
        <ele>1016.94921875</ele>
      </trkpt>
      <trkpt lat="46.57469" lon="6.04363">
        <ele>1017.44921875</ele>
      </trkpt>
      <trkpt lat="46.57468" lon="6.04377">
        <ele>1017.84375</ele>
      </trkpt>
      <trkpt lat="46.57468" lon="6.04391">
        <ele>1018.33203125</ele>
      </trkpt>
      <trkpt lat="46.57467" lon="6.04402">
        <ele>1018.78515625</ele>
      </trkpt>
      <trkpt lat="46.57464" lon="6.04412">
        <ele>1019.140625</ele>
      </trkpt>
      <trkpt lat="46.57464" lon="6.04426">
        <ele>1019.140625</ele>
      </trkpt>
      <trkpt lat="46.57464" lon="6.04439">
        <ele>1019.20703125</ele>
      </trkpt>
      <trkpt lat="46.57465" lon="6.04453">
        <ele>1019.609375</ele>
      </trkpt>
      <trkpt lat="46.57467" lon="6.04465">
        <ele>1019.9921875</ele>
      </trkpt>
      <trkpt lat="46.57468" lon="6.04476">
        <ele>1020.0078125</ele>
      </trkpt>
      <trkpt lat="46.57468" lon="6.0449">
        <ele>1020.0078125</ele>
      </trkpt>
      <trkpt lat="46.57469" lon="6.04502">
        <ele>1020.0546875</ele>
      </trkpt>
      <trkpt lat="46.57469" lon="6.04515">
        <ele>1020.0546875</ele>
      </trkpt>
      <trkpt lat="46.57469" lon="6.04519">
        <ele>1020.0546875</ele>
      </trkpt>
      <trkpt lat="46.57473" lon="6.04541">
        <ele>1020.0546875</ele>
      </trkpt>
      <trkpt lat="46.57476" lon="6.04552">
        <ele>1020</ele>
      </trkpt>
      <trkpt lat="46.5748" lon="6.04562">
        <ele>1020</ele>
      </trkpt>
      <trkpt lat="46.57487" lon="6.04568">
        <ele>1020</ele>
      </trkpt>
      <trkpt lat="46.57491" lon="6.04578">
        <ele>1020.01171875</ele>
      </trkpt>
      <trkpt lat="46.57495" lon="6.04586">
        <ele>1020.0078125</ele>
      </trkpt>
      <trkpt lat="46.57499" lon="6.04593">
        <ele>1020.12109375</ele>
      </trkpt>
      <trkpt lat="46.57503" lon="6.04603">
        <ele>1020.26953125</ele>
      </trkpt>
      <trkpt lat="46.57507" lon="6.04613">
        <ele>1020.28125</ele>
      </trkpt>
      <trkpt lat="46.5751" lon="6.04623">
        <ele>1020.16796875</ele>
      </trkpt>
      <trkpt lat="46.57514" lon="6.04632">
        <ele>1020.0078125</ele>
      </trkpt>
      <trkpt lat="46.57516" lon="6.04642">
        <ele>1020.09375</ele>
      </trkpt>
      <trkpt lat="46.57519" lon="6.04652">
        <ele>1020.109375</ele>
      </trkpt>
      <trkpt lat="46.57522" lon="6.04662">
        <ele>1020.05078125</ele>
      </trkpt>
      <trkpt lat="46.57523" lon="6.04673">
        <ele>1020.00390625</ele>
      </trkpt>
      <trkpt lat="46.57526" lon="6.04683">
        <ele>1020.015625</ele>
      </trkpt>
      <trkpt lat="46.57529" lon="6.04693">
        <ele>1020</ele>
      </trkpt>
      <trkpt lat="46.57529" lon="6.04706">
        <ele>1020</ele>
      </trkpt>
      <trkpt lat="46.57529" lon="6.0472">
        <ele>1020</ele>
      </trkpt>
      <trkpt lat="46.57529" lon="6.04734">
        <ele>1020</ele>
      </trkpt>
      <trkpt lat="46.57529" lon="6.04747">
        <ele>1019.96875</ele>
      </trkpt>
      <trkpt lat="46.57529" lon="6.04761">
        <ele>1019.875</ele>
      </trkpt>
      <trkpt lat="46.57529" lon="6.04775">
        <ele>1019.80859375</ele>
      </trkpt>
      <trkpt lat="46.57529" lon="6.04788">
        <ele>1019.80859375</ele>
      </trkpt>
      <trkpt lat="46.57529" lon="6.04802">
        <ele>1019.703125</ele>
      </trkpt>
      <trkpt lat="46.57529" lon="6.04815">
        <ele>1019.3046875</ele>
      </trkpt>
      <trkpt lat="46.57529" lon="6.04831">
        <ele>1019</ele>
      </trkpt>
      <trkpt lat="46.57527" lon="6.04843">
        <ele>1019</ele>
      </trkpt>
      <trkpt lat="46.57523" lon="6.04852">
        <ele>1019</ele>
      </trkpt>
      <trkpt lat="46.57521" lon="6.04864">
        <ele>1019</ele>
      </trkpt>
      <trkpt lat="46.57518" lon="6.04874">
        <ele>1019</ele>
      </trkpt>
      <trkpt lat="46.57516" lon="6.04886">
        <ele>1019</ele>
      </trkpt>
      <trkpt lat="46.57512" lon="6.04895">
        <ele>1019</ele>
      </trkpt>
      <trkpt lat="46.57511" lon="6.04907">
        <ele>1019</ele>
      </trkpt>
      <trkpt lat="46.5751" lon="6.04919">
        <ele>1019</ele>
      </trkpt>
      <trkpt lat="46.5751" lon="6.04932">
        <ele>1019</ele>
      </trkpt>
      <trkpt lat="46.57518" lon="6.0494">
        <ele>1019</ele>
      </trkpt>
      <trkpt lat="46.57525" lon="6.04944">
        <ele>1019</ele>
      </trkpt>
      <trkpt lat="46.57529" lon="6.04954">
        <ele>1019</ele>
      </trkpt>
      <trkpt lat="46.57534" lon="6.04962">
        <ele>1019</ele>
      </trkpt>
      <trkpt lat="46.57541" lon="6.04965">
        <ele>1019</ele>
      </trkpt>
      <trkpt lat="46.57547" lon="6.04969">
        <ele>1019</ele>
      </trkpt>
      <trkpt lat="46.57553" lon="6.04975">
        <ele>1019.0625</ele>
      </trkpt>
      <trkpt lat="46.57558" lon="6.04981">
        <ele>1019.2578125</ele>
      </trkpt>
      <trkpt lat="46.57562" lon="6.04989">
        <ele>1019.40234375</ele>
      </trkpt>
      <trkpt lat="46.57566" lon="6.04999">
        <ele>1019.55078125</ele>
      </trkpt>
      <trkpt lat="46.57573" lon="6.05004">
        <ele>1019.79296875</ele>
      </trkpt>
      <trkpt lat="46.5758" lon="6.0501">
        <ele>1020.03515625</ele>
      </trkpt>
      <trkpt lat="46.57585" lon="6.05016">
        <ele>1020.23046875</ele>
      </trkpt>
      <trkpt lat="46.57591" lon="6.05024">
        <ele>1020.5546875</ele>
      </trkpt>
      <trkpt lat="46.57596" lon="6.0503">
        <ele>1020.9609375</ele>
      </trkpt>
      <trkpt lat="46.57601" lon="6.05036">
        <ele>1021.3671875</ele>
      </trkpt>
      <trkpt lat="46.57607" lon="6.05041">
        <ele>1021.77734375</ele>
      </trkpt>
      <trkpt lat="46.57612" lon="6.05047">
        <ele>1022.375</ele>
      </trkpt>
      <trkpt lat="46.57616" lon="6.05055">
        <ele>1022.859375</ele>
      </trkpt>
      <trkpt lat="46.57618" lon="6.05071">
        <ele>1023.28125</ele>
      </trkpt>
      <trkpt lat="46.5762" lon="6.0508">
        <ele>1023.66015625</ele>
      </trkpt>
      <trkpt lat="46.57624" lon="6.05088">
        <ele>1024.0859375</ele>
      </trkpt>
      <trkpt lat="46.57631" lon="6.05096">
        <ele>1024.609375</ele>
      </trkpt>
      <trkpt lat="46.57638" lon="6.051">
        <ele>1025.11328125</ele>
      </trkpt>
      <trkpt lat="46.57646" lon="6.05102">
        <ele>1025.765625</ele>
      </trkpt>
      <trkpt lat="46.57654" lon="6.05102">
        <ele>1026.3515625</ele>
      </trkpt>
      <trkpt lat="46.57661" lon="6.05104">
        <ele>1026.89453125</ele>
      </trkpt>
      <trkpt lat="46.57667" lon="6.0511">
        <ele>1027.37890625</ele>
      </trkpt>
      <trkpt lat="46.57673" lon="6.05116">
        <ele>1027.765625</ele>
      </trkpt>
      <trkpt lat="46.57677" lon="6.05123">
        <ele>1028.05859375</ele>
      </trkpt>
      <trkpt lat="46.57681" lon="6.05131">
        <ele>1028.3515625</ele>
      </trkpt>
      <trkpt lat="46.57685" lon="6.05139">
        <ele>1028.69140625</ele>
      </trkpt>
      <trkpt lat="46.57689" lon="6.05147">
        <ele>1028.94921875</ele>
      </trkpt>
      <trkpt lat="46.57696" lon="6.05155">
        <ele>1029.625</ele>
      </trkpt>
      <trkpt lat="46.57702" lon="6.0516">
        <ele>1030.40234375</ele>
      </trkpt>
      <trkpt lat="46.57708" lon="6.05166">
        <ele>1031.1953125</ele>
      </trkpt>
      <trkpt lat="46.57715" lon="6.0517">
        <ele>1032.0625</ele>
      </trkpt>
      <trkpt lat="46.57721" lon="6.05176">
        <ele>1033.00390625</ele>
      </trkpt>
      <trkpt lat="46.57728" lon="6.0518">
        <ele>1033.87109375</ele>
      </trkpt>
      <trkpt lat="46.57735" lon="6.05186">
        <ele>1034.80859375</ele>
      </trkpt>
      <trkpt lat="46.57742" lon="6.0519">
        <ele>1035.578125</ele>
      </trkpt>
      <trkpt lat="46.57748" lon="6.05193">
        <ele>1036.3046875</ele>
      </trkpt>
      <trkpt lat="46.57754" lon="6.05199">
        <ele>1036.88671875</ele>
      </trkpt>
      <trkpt lat="46.57762" lon="6.05203">
        <ele>1037.76171875</ele>
      </trkpt>
      <trkpt lat="46.57768" lon="6.05207">
        <ele>1038.48828125</ele>
      </trkpt>
      <trkpt lat="46.57774" lon="6.05213">
        <ele>1039.0703125</ele>
      </trkpt>
      <trkpt lat="46.57781" lon="6.05219">
        <ele>1039.80078125</ele>
      </trkpt>
      <trkpt lat="46.57786" lon="6.05225">
        <ele>1040.3828125</ele>
      </trkpt>
      <trkpt lat="46.57793" lon="6.05229">
        <ele>1041.11328125</ele>
      </trkpt>
      <trkpt lat="46.57801" lon="6.05229">
        <ele>1041.984375</ele>
      </trkpt>
      <trkpt lat="46.57809" lon="6.0523">
        <ele>1042.28515625</ele>
      </trkpt>
      <trkpt lat="46.57812" lon="6.05234">
        <ele>1042.3828125</ele>
      </trkpt>
      <trkpt lat="46.57822" lon="6.05234">
        <ele>1042.7734375</ele>
      </trkpt>
      <trkpt lat="46.57829" lon="6.05238">
        <ele>1043.02734375</ele>
      </trkpt>
      <trkpt lat="46.57836" lon="6.05244">
        <ele>1043.515625</ele>
      </trkpt>
      <trkpt lat="46.57843" lon="6.05244">
        <ele>1044</ele>
      </trkpt>
      <trkpt lat="46.57851" lon="6.05244">
        <ele>1044.58203125</ele>
      </trkpt>
      <trkpt lat="46.5786" lon="6.05246">
        <ele>1045.12890625</ele>
      </trkpt>
      <trkpt lat="46.57867" lon="6.05248">
        <ele>1045.375</ele>
      </trkpt>
      <trkpt lat="46.57872" lon="6.05254">
        <ele>1045.56640625</ele>
      </trkpt>
      <trkpt lat="46.57876" lon="6.05262">
        <ele>1045.71484375</ele>
      </trkpt>
      <trkpt lat="46.57882" lon="6.05268">
        <ele>1045.90625</ele>
      </trkpt>
      <trkpt lat="46.57887" lon="6.05273">
        <ele>1046.0859375</ele>
      </trkpt>
      <trkpt lat="46.5789" lon="6.05283">
        <ele>1045.9296875</ele>
      </trkpt>
      <trkpt lat="46.5789" lon="6.05297">
        <ele>1045.4375</ele>
      </trkpt>
      <trkpt lat="46.5789" lon="6.0531">
        <ele>1045.3984375</ele>
      </trkpt>
      <trkpt lat="46.5789" lon="6.05324">
        <ele>1045.3984375</ele>
      </trkpt>
      <trkpt lat="46.5789" lon="6.05338">
        <ele>1045.83203125</ele>
      </trkpt>
      <trkpt lat="46.5789" lon="6.05351">
        <ele>1046.32421875</ele>
      </trkpt>
      <trkpt lat="46.5789" lon="6.05365">
        <ele>1046.8125</ele>
      </trkpt>
      <trkpt lat="46.5789" lon="6.05379">
        <ele>1047.3046875</ele>
      </trkpt>
      <trkpt lat="46.57891" lon="6.0539">
        <ele>1047.4921875</ele>
      </trkpt>
      <trkpt lat="46.57891" lon="6.05404">
        <ele>1047.4921875</ele>
      </trkpt>
      <trkpt lat="46.57892" lon="6.05416">
        <ele>1047.83203125</ele>
      </trkpt>
      <trkpt lat="46.57892" lon="6.05429">
        <ele>1048.32421875</ele>
      </trkpt>
      <trkpt lat="46.57894" lon="6.05441">
        <ele>1048.6875</ele>
      </trkpt>
      <trkpt lat="46.57895" lon="6.05453">
        <ele>1048.78515625</ele>
      </trkpt>
      <trkpt lat="46.57898" lon="6.05462">
        <ele>1048.98046875</ele>
      </trkpt>
      <trkpt lat="46.57899" lon="6.05474">
        <ele>1049.42578125</ele>
      </trkpt>
      <trkpt lat="46.57902" lon="6.05484">
        <ele>1049.96875</ele>
      </trkpt>
      <trkpt lat="46.57905" lon="6.05494">
        <ele>1050.4296875</ele>
      </trkpt>
      <trkpt lat="46.57909" lon="6.05501">
        <ele>1050.46484375</ele>
      </trkpt>
      <trkpt lat="46.57913" lon="6.05509">
        <ele>1050.4375</ele>
      </trkpt>
      <trkpt lat="46.57915" lon="6.05519">
        <ele>1050.28125</ele>
      </trkpt>
      <trkpt lat="46.57921" lon="6.05525">
        <ele>1050.62890625</ele>
      </trkpt>
      <trkpt lat="46.57926" lon="6.05533">
        <ele>1051.01953125</ele>
      </trkpt>
      <trkpt lat="46.5793" lon="6.0554">
        <ele>1051.30859375</ele>
      </trkpt>
      <trkpt lat="46.57934" lon="6.05544">
        <ele>1051.6015625</ele>
      </trkpt>
      <trkpt lat="46.57942" lon="6.05556">
        <ele>1052.6328125</ele>
      </trkpt>
      <trkpt lat="46.57948" lon="6.05562">
        <ele>1053.50390625</ele>
      </trkpt>
      <trkpt lat="46.57952" lon="6.05572">
        <ele>1054.21484375</ele>
      </trkpt>
      <trkpt lat="46.57954" lon="6.05581">
        <ele>1054.5859375</ele>
      </trkpt>
      <trkpt lat="46.57956" lon="6.05593">
        <ele>1054.73046875</ele>
      </trkpt>
      <trkpt lat="46.57958" lon="6.05603">
        <ele>1055.0234375</ele>
      </trkpt>
      <trkpt lat="46.57961" lon="6.05612">
        <ele>1055.390625</ele>
      </trkpt>
      <trkpt lat="46.57962" lon="6.05624">
        <ele>1055.59375</ele>
      </trkpt>
      <trkpt lat="46.57964" lon="6.05636">
        <ele>1055.91015625</ele>
      </trkpt>
      <trkpt lat="46.57962" lon="6.05647">
        <ele>1056.234375</ele>
      </trkpt>
      <trkpt lat="46.57967" lon="6.05655">
        <ele>1056.8046875</ele>
      </trkpt>
      <trkpt lat="46.57971" lon="6.05665">
        <ele>1057.53515625</ele>
      </trkpt>
      <trkpt lat="46.57973" lon="6.05675">
        <ele>1058.08203125</ele>
      </trkpt>
      <trkpt lat="46.57979" lon="6.05683">
        <ele>1058.71875</ele>
      </trkpt>
      <trkpt lat="46.57983" lon="6.0569">
        <ele>1059.234375</ele>
      </trkpt>
      <trkpt lat="46.57988" lon="6.05698">
        <ele>1059.90234375</ele>
      </trkpt>
      <trkpt lat="46.57992" lon="6.05708">
        <ele>1060.546875</ele>
      </trkpt>
      <trkpt lat="46.57995" lon="6.05718">
        <ele>1061.08984375</ele>
      </trkpt>
      <trkpt lat="46.57999" lon="6.05725">
        <ele>1061.6640625</ele>
      </trkpt>
      <trkpt lat="46.58002" lon="6.05737">
        <ele>1062.27734375</ele>
      </trkpt>
      <trkpt lat="46.58006" lon="6.05745">
        <ele>1062.78515625</ele>
      </trkpt>
      <trkpt lat="46.5801" lon="6.05755">
        <ele>1063.2734375</ele>
      </trkpt>
      <trkpt lat="46.58012" lon="6.05764">
        <ele>1063.7265625</ele>
      </trkpt>
      <trkpt lat="46.58016" lon="6.05772">
        <ele>1064.28515625</ele>
      </trkpt>
      <trkpt lat="46.5802" lon="6.0578">
        <ele>1064.71875</ele>
      </trkpt>
      <trkpt lat="46.58022" lon="6.05782">
        <ele>1064.8671875</ele>
      </trkpt>
      <trkpt lat="46.5802" lon="6.05794">
        <ele>1064.71875</ele>
      </trkpt>
      <trkpt lat="46.58016" lon="6.05801">
        <ele>1064.28515625</ele>
      </trkpt>
      <trkpt lat="46.58012" lon="6.05813">
        <ele>1063.84765625</ele>
      </trkpt>
      <trkpt lat="46.58011" lon="6.05825">
        <ele>1063.69921875</ele>
      </trkpt>
      <trkpt lat="46.58007" lon="6.05833">
        <ele>1063.67578125</ele>
      </trkpt>
      <trkpt lat="46.58006" lon="6.05844">
        <ele>1064.23046875</ele>
      </trkpt>
      <trkpt lat="46.58004" lon="6.05856">
        <ele>1064.75390625</ele>
      </trkpt>
      <trkpt lat="46.58002" lon="6.05866">
        <ele>1064.91015625</ele>
      </trkpt>
      <trkpt lat="46.57998" lon="6.05875">
        <ele>1064.96875</ele>
      </trkpt>
      <trkpt lat="46.57996" lon="6.05887">
        <ele>1065.51953125</ele>
      </trkpt>
      <trkpt lat="46.57995" lon="6.05899">
        <ele>1066.26953125</ele>
      </trkpt>
      <trkpt lat="46.57992" lon="6.05909">
        <ele>1066.7734375</ele>
      </trkpt>
      <trkpt lat="46.57991" lon="6.0592">
        <ele>1067.1640625</ele>
      </trkpt>
      <trkpt lat="46.57987" lon="6.05928">
        <ele>1067.30078125</ele>
      </trkpt>
      <trkpt lat="46.57985" lon="6.0594">
        <ele>1067.765625</ele>
      </trkpt>
      <trkpt lat="46.57981" lon="6.05949">
        <ele>1067.97265625</ele>
      </trkpt>
      <trkpt lat="46.5798" lon="6.05961">
        <ele>1068.34375</ele>
      </trkpt>
      <trkpt lat="46.57979" lon="6.05973">
        <ele>1068.90625</ele>
      </trkpt>
      <trkpt lat="46.57979" lon="6.05987">
        <ele>1069.69140625</ele>
      </trkpt>
      <trkpt lat="46.57977" lon="6.05998">
        <ele>1070.45703125</ele>
      </trkpt>
      <trkpt lat="46.57977" lon="6.06012">
        <ele>1071.4375</ele>
      </trkpt>
      <trkpt lat="46.5798" lon="6.06022">
        <ele>1072.1796875</ele>
      </trkpt>
      <trkpt lat="46.57983" lon="6.06031">
        <ele>1073.03125</ele>
      </trkpt>
      <trkpt lat="46.57987" lon="6.06039">
        <ele>1073.6171875</ele>
      </trkpt>
      <trkpt lat="46.57989" lon="6.06049">
        <ele>1074.31640625</ele>
      </trkpt>
      <trkpt lat="46.57991" lon="6.06053">
        <ele>1074.546875</ele>
      </trkpt>
      <trkpt lat="46.57995" lon="6.06063">
        <ele>1075.10546875</ele>
      </trkpt>
      <trkpt lat="46.57996" lon="6.06074">
        <ele>1075.96484375</ele>
      </trkpt>
      <trkpt lat="46.57996" lon="6.06088">
        <ele>1076.9296875</ele>
      </trkpt>
      <trkpt lat="46.57996" lon="6.06101">
        <ele>1077.8984375</ele>
      </trkpt>
      <trkpt lat="46.57996" lon="6.06115">
        <ele>1078.4375</ele>
      </trkpt>
      <trkpt lat="46.57996" lon="6.06129">
        <ele>1078.9296875</ele>
      </trkpt>
      <trkpt lat="46.57995" lon="6.06142">
        <ele>1079.4375</ele>
      </trkpt>
      <trkpt lat="46.57995" lon="6.06158">
        <ele>1080</ele>
      </trkpt>
      <trkpt lat="46.57993" lon="6.0617">
        <ele>1080.46875</ele>
      </trkpt>
      <trkpt lat="46.57991" lon="6.06179">
        <ele>1080.91796875</ele>
      </trkpt>
      <trkpt lat="46.57988" lon="6.06189">
        <ele>1081.36328125</ele>
      </trkpt>
      <trkpt lat="46.57985" lon="6.06199">
        <ele>1081.8125</ele>
      </trkpt>
      <trkpt lat="46.57984" lon="6.06211">
        <ele>1082.28125</ele>
      </trkpt>
      <trkpt lat="46.57981" lon="6.06222">
        <ele>1082.80078125</ele>
      </trkpt>
      <trkpt lat="46.57979" lon="6.06232">
        <ele>1083.25</ele>
      </trkpt>
      <trkpt lat="46.57975" lon="6.0624">
        <ele>1083.67578125</ele>
      </trkpt>
      <trkpt lat="46.57971" lon="6.06248">
        <ele>1084.3125</ele>
      </trkpt>
      <trkpt lat="46.57968" lon="6.06257">
        <ele>1085.11328125</ele>
      </trkpt>
      <trkpt lat="46.57964" lon="6.06265">
        <ele>1086.08203125</ele>
      </trkpt>
      <trkpt lat="46.57961" lon="6.06275">
        <ele>1086.8828125</ele>
      </trkpt>
      <trkpt lat="46.57958" lon="6.06285">
        <ele>1087.5234375</ele>
      </trkpt>
      <trkpt lat="46.57957" lon="6.06296">
        <ele>1088.08984375</ele>
      </trkpt>
      <trkpt lat="46.5796" lon="6.063">
        <ele>1088.15625</ele>
      </trkpt>
      <trkpt lat="46.57962" lon="6.06316">
        <ele>1089.546875</ele>
      </trkpt>
      <trkpt lat="46.57968" lon="6.06322">
        <ele>1089.609375</ele>
      </trkpt>
      <trkpt lat="46.57972" lon="6.06329">
        <ele>1090</ele>
      </trkpt>
      <trkpt lat="46.57976" lon="6.06337">
        <ele>1090.26953125</ele>
      </trkpt>
      <trkpt lat="46.5798" lon="6.06347">
        <ele>1090.6796875</ele>
      </trkpt>
      <trkpt lat="46.57983" lon="6.06357">
        <ele>1091.109375</ele>
      </trkpt>
      <trkpt lat="46.57988" lon="6.06365">
        <ele>1091.05078125</ele>
      </trkpt>
      <trkpt lat="46.57992" lon="6.06374">
        <ele>1091.0859375</ele>
      </trkpt>
      <trkpt lat="46.57996" lon="6.06384">
        <ele>1091.05859375</ele>
      </trkpt>
      <trkpt lat="46.58" lon="6.06394">
        <ele>1091.1171875</ele>
      </trkpt>
      <trkpt lat="46.58004" lon="6.06403">
        <ele>1091.1796875</ele>
      </trkpt>
      <trkpt lat="46.58008" lon="6.06411">
        <ele>1091.1171875</ele>
      </trkpt>
      <trkpt lat="46.58012" lon="6.06423">
        <ele>1090.97265625</ele>
      </trkpt>
      <trkpt lat="46.58015" lon="6.06433">
        <ele>1090.828125</ele>
      </trkpt>
      <trkpt lat="46.5802" lon="6.06441">
        <ele>1090.44140625</ele>
      </trkpt>
      <trkpt lat="46.58023" lon="6.0645">
        <ele>1090.50390625</ele>
      </trkpt>
      <trkpt lat="46.58027" lon="6.06458">
        <ele>1090.5234375</ele>
      </trkpt>
      <trkpt lat="46.58033" lon="6.06464">
        <ele>1090.3125</ele>
      </trkpt>
      <trkpt lat="46.58037" lon="6.06472">
        <ele>1090.16015625</ele>
      </trkpt>
      <trkpt lat="46.58041" lon="6.06479">
        <ele>1090.08984375</ele>
      </trkpt>
      <trkpt lat="46.58045" lon="6.06487">
        <ele>1090.09765625</ele>
      </trkpt>
      <trkpt lat="46.5805" lon="6.06495">
        <ele>1090.02734375</ele>
      </trkpt>
      <trkpt lat="46.58053" lon="6.06505">
        <ele>1089.890625</ele>
      </trkpt>
      <trkpt lat="46.58057" lon="6.06515">
        <ele>1089.74609375</ele>
      </trkpt>
      <trkpt lat="46.58061" lon="6.06522">
        <ele>1089.63671875</ele>
      </trkpt>
      <trkpt lat="46.58065" lon="6.0653">
        <ele>1089.4921875</ele>
      </trkpt>
      <trkpt lat="46.58069" lon="6.0654">
        <ele>1089.34765625</ele>
      </trkpt>
      <trkpt lat="46.58072" lon="6.0655">
        <ele>1089.31640625</ele>
      </trkpt>
      <trkpt lat="46.58076" lon="6.06557">
        <ele>1089.4375</ele>
      </trkpt>
      <trkpt lat="46.5808" lon="6.06565">
        <ele>1089.6953125</ele>
      </trkpt>
      <trkpt lat="46.58084" lon="6.06573">
        <ele>1090.12109375</ele>
      </trkpt>
      <trkpt lat="46.58088" lon="6.06583">
        <ele>1090.6171875</ele>
      </trkpt>
      <trkpt lat="46.5809" lon="6.06592">
        <ele>1091.06640625</ele>
      </trkpt>
      <trkpt lat="46.58097" lon="6.06596">
        <ele>1091.44921875</ele>
      </trkpt>
      <trkpt lat="46.58101" lon="6.06604">
        <ele>1091.875</ele>
      </trkpt>
      <trkpt lat="46.58107" lon="6.06612">
        <ele>1092.3359375</ele>
      </trkpt>
      <trkpt lat="46.58112" lon="6.06616">
        <ele>1092.4765625</ele>
      </trkpt>
      <trkpt lat="46.58121" lon="6.06626">
        <ele>1092.828125</ele>
      </trkpt>
      <trkpt lat="46.58124" lon="6.06635">
        <ele>1093.359375</ele>
      </trkpt>
      <trkpt lat="46.58127" lon="6.06645">
        <ele>1094.0625</ele>
      </trkpt>
      <trkpt lat="46.58128" lon="6.06657">
        <ele>1094.90234375</ele>
      </trkpt>
      <trkpt lat="46.58131" lon="6.06667">
        <ele>1095.60546875</ele>
      </trkpt>
      <trkpt lat="46.58134" lon="6.06672">
        <ele>1096.02734375</ele>
      </trkpt>
      <trkpt lat="46.58138" lon="6.06688">
        <ele>1097.22265625</ele>
      </trkpt>
      <trkpt lat="46.58142" lon="6.06698">
        <ele>1098.27734375</ele>
      </trkpt>
      <trkpt lat="46.58146" lon="6.06706">
        <ele>1099.1171875</ele>
      </trkpt>
      <trkpt lat="46.58151" lon="6.06711">
        <ele>1099.75</ele>
      </trkpt>
      <trkpt lat="46.58154" lon="6.06721">
        <ele>1100.61328125</ele>
      </trkpt>
      <trkpt lat="46.58158" lon="6.06729">
        <ele>1101.17578125</ele>
      </trkpt>
      <trkpt lat="46.58162" lon="6.06739">
        <ele>1101.796875</ele>
      </trkpt>
      <trkpt lat="46.58165" lon="6.06748">
        <ele>1102.65234375</ele>
      </trkpt>
      <trkpt lat="46.58167" lon="6.06758">
        <ele>1103.60546875</ele>
      </trkpt>
      <trkpt lat="46.5817" lon="6.06768">
        <ele>1104.5625</ele>
      </trkpt>
      <trkpt lat="46.58173" lon="6.06778">
        <ele>1105.21484375</ele>
      </trkpt>
      <trkpt lat="46.58175" lon="6.06787">
        <ele>1105.8203125</ele>
      </trkpt>
      <trkpt lat="46.58177" lon="6.06799">
        <ele>1106.5</ele>
      </trkpt>
      <trkpt lat="46.58179" lon="6.06809">
        <ele>1106.5234375</ele>
      </trkpt>
      <trkpt lat="46.58185" lon="6.06815">
        <ele>1106.28125</ele>
      </trkpt>
      <trkpt lat="46.58189" lon="6.06822">
        <ele>1106.05078125</ele>
      </trkpt>
      <trkpt lat="46.58193" lon="6.0683">
        <ele>1105.73828125</ele>
      </trkpt>
      <trkpt lat="46.58197" lon="6.0684">
        <ele>1105.32421875</ele>
      </trkpt>
      <trkpt lat="46.58201" lon="6.0685">
        <ele>1104.80859375</ele>
      </trkpt>
      <trkpt lat="46.58205" lon="6.06858">
        <ele>1104.0703125</ele>
      </trkpt>
      <trkpt lat="46.58209" lon="6.06867">
        <ele>1103.203125</ele>
      </trkpt>
      <trkpt lat="46.58213" lon="6.06875">
        <ele>1102.51953125</ele>
      </trkpt>
      <trkpt lat="46.58217" lon="6.06883">
        <ele>1101.82421875</ele>
      </trkpt>
      <trkpt lat="46.58221" lon="6.06891">
        <ele>1100.97265625</ele>
      </trkpt>
      <trkpt lat="46.58224" lon="6.069">
        <ele>1100.078125</ele>
      </trkpt>
      <trkpt lat="46.58228" lon="6.0691">
        <ele>1099.0390625</ele>
      </trkpt>
      <trkpt lat="46.58233" lon="6.06916">
        <ele>1098.15234375</ele>
      </trkpt>
      <trkpt lat="46.58237" lon="6.06924">
        <ele>1097.26171875</ele>
      </trkpt>
      <trkpt lat="46.58244" lon="6.0693">
        <ele>1096.48828125</ele>
      </trkpt>
      <trkpt lat="46.58251" lon="6.06933">
        <ele>1095.75</ele>
      </trkpt>
      <trkpt lat="46.58256" lon="6.06939">
        <ele>1094.94140625</ele>
      </trkpt>
      <trkpt lat="46.58263" lon="6.06941">
        <ele>1094.3125</ele>
      </trkpt>
      <trkpt lat="46.5827" lon="6.06945">
        <ele>1093.546875</ele>
      </trkpt>
      <trkpt lat="46.58276" lon="6.06951">
        <ele>1092.51171875</ele>
      </trkpt>
      <trkpt lat="46.58285" lon="6.06953">
        <ele>1091.5</ele>
      </trkpt>
      <trkpt lat="46.58291" lon="6.06957">
        <ele>1090.48828125</ele>
      </trkpt>
      <trkpt lat="46.58298" lon="6.06961">
        <ele>1089.48046875</ele>
      </trkpt>
      <trkpt lat="46.58306" lon="6.06963">
        <ele>1088.6640625</ele>
      </trkpt>
      <trkpt lat="46.58313" lon="6.06967">
        <ele>1087.9453125</ele>
      </trkpt>
      <trkpt lat="46.5832" lon="6.06969">
        <ele>1087.39453125</ele>
      </trkpt>
      <trkpt lat="46.58329" lon="6.06969">
        <ele>1086.7734375</ele>
      </trkpt>
      <trkpt lat="46.58337" lon="6.06971">
        <ele>1086.12109375</ele>
      </trkpt>
      <trkpt lat="46.58344" lon="6.06974">
        <ele>1085.49609375</ele>
      </trkpt>
      <trkpt lat="46.58348" lon="6.06982">
        <ele>1084.921875</ele>
      </trkpt>
      <trkpt lat="46.58351" lon="6.06992">
        <ele>1084.3984375</ele>
      </trkpt>
      <trkpt lat="46.58353" lon="6.07002">
        <ele>1084.16796875</ele>
      </trkpt>
      <trkpt lat="46.58357" lon="6.07009">
        <ele>1084</ele>
      </trkpt>
      <trkpt lat="46.5836" lon="6.07019">
        <ele>1084.0078125</ele>
      </trkpt>
      <trkpt lat="46.58363" lon="6.07029">
        <ele>1084.2734375</ele>
      </trkpt>
      <trkpt lat="46.58367" lon="6.07037">
        <ele>1084.39453125</ele>
      </trkpt>
      <trkpt lat="46.58371" lon="6.07045">
        <ele>1084.43359375</ele>
      </trkpt>
      <trkpt lat="46.58375" lon="6.07054">
        <ele>1084.59765625</ele>
      </trkpt>
      <trkpt lat="46.58379" lon="6.07062">
        <ele>1084.734375</ele>
      </trkpt>
      <trkpt lat="46.58383" lon="6.0707">
        <ele>1084.8671875</ele>
      </trkpt>
      <trkpt lat="46.58387" lon="6.07078">
        <ele>1085.00390625</ele>
      </trkpt>
      <trkpt lat="46.58391" lon="6.07085">
        <ele>1085.140625</ele>
      </trkpt>
      <trkpt lat="46.58395" lon="6.07095">
        <ele>1085.34375</ele>
      </trkpt>
      <trkpt lat="46.58399" lon="6.07105">
        <ele>1085.64453125</ele>
      </trkpt>
      <trkpt lat="46.58402" lon="6.07115">
        <ele>1086.25</ele>
      </trkpt>
      <trkpt lat="46.58406" lon="6.07123">
        <ele>1086.66796875</ele>
      </trkpt>
      <trkpt lat="46.5841" lon="6.0713">
        <ele>1087.07421875</ele>
      </trkpt>
      <trkpt lat="46.58413" lon="6.0714">
        <ele>1087.296875</ele>
      </trkpt>
      <trkpt lat="46.58415" lon="6.0715">
        <ele>1087.453125</ele>
      </trkpt>
      <trkpt lat="46.58419" lon="6.0716">
        <ele>1087.55859375</ele>
      </trkpt>
      <trkpt lat="46.58423" lon="6.07167">
        <ele>1087.703125</ele>
      </trkpt>
      <trkpt lat="46.58423" lon="6.07177">
        <ele>1088.2578125</ele>
      </trkpt>
      <trkpt lat="46.58423" lon="6.0714">
        <ele>1086.51953125</ele>
      </trkpt>
      <trkpt lat="46.58422" lon="6.07128">
        <ele>1086.15625</ele>
      </trkpt>
      <trkpt lat="46.58419" lon="6.07119">
        <ele>1085.73828125</ele>
      </trkpt>
      <trkpt lat="46.58418" lon="6.07107">
        <ele>1085.06640625</ele>
      </trkpt>
      <trkpt lat="46.58417" lon="6.07095">
        <ele>1084.61328125</ele>
      </trkpt>
      <trkpt lat="46.58415" lon="6.07084">
        <ele>1084.28125</ele>
      </trkpt>
      <trkpt lat="46.58413" lon="6.07074">
        <ele>1084</ele>
      </trkpt>
      <trkpt lat="46.58411" lon="6.07062">
        <ele>1084.0078125</ele>
      </trkpt>
      <trkpt lat="46.5841" lon="6.0705">
        <ele>1084.0078125</ele>
      </trkpt>
      <trkpt lat="46.58408" lon="6.07039">
        <ele>1083.7421875</ele>
      </trkpt>
      <trkpt lat="46.58407" lon="6.07027">
        <ele>1083.40234375</ele>
      </trkpt>
      <trkpt lat="46.58406" lon="6.07015">
        <ele>1083.2109375</ele>
      </trkpt>
      <trkpt lat="46.58406" lon="6.07002">
        <ele>1083.2109375</ele>
      </trkpt>
      <trkpt lat="46.58406" lon="6.06988">
        <ele>1083.3046875</ele>
      </trkpt>
      <trkpt lat="46.58406" lon="6.06974">
        <ele>1083.69140625</ele>
      </trkpt>
      <trkpt lat="46.58406" lon="6.06961">
        <ele>1084.04296875</ele>
      </trkpt>
      <trkpt lat="46.58406" lon="6.06947">
        <ele>1084.25</ele>
      </trkpt>
      <trkpt lat="46.58407" lon="6.06935">
        <ele>1084.3359375</ele>
      </trkpt>
      <trkpt lat="46.58411" lon="6.06926">
        <ele>1084.3984375</ele>
      </trkpt>
      <trkpt lat="46.58415" lon="6.06916">
        <ele>1084.49609375</ele>
      </trkpt>
      <trkpt lat="46.58418" lon="6.06906">
        <ele>1084.6640625</ele>
      </trkpt>
      <trkpt lat="46.58421" lon="6.06896">
        <ele>1085.0546875</ele>
      </trkpt>
      <trkpt lat="46.58426" lon="6.06889">
        <ele>1085</ele>
      </trkpt>
      <trkpt lat="46.5843" lon="6.06881">
        <ele>1084.984375</ele>
      </trkpt>
      <trkpt lat="46.58435" lon="6.06873">
        <ele>1084.6875</ele>
      </trkpt>
      <trkpt lat="46.58439" lon="6.06863">
        <ele>1084.60546875</ele>
      </trkpt>
      <trkpt lat="46.58444" lon="6.06856">
        <ele>1084.59375</ele>
      </trkpt>
      <trkpt lat="46.58449" lon="6.0685">
        <ele>1084.41796875</ele>
      </trkpt>
      <trkpt lat="46.58454" lon="6.0684">
        <ele>1084.37890625</ele>
      </trkpt>
      <trkpt lat="46.5846" lon="6.06834">
        <ele>1084.203125</ele>
      </trkpt>
      <trkpt lat="46.58464" lon="6.06824">
        <ele>1084.26171875</ele>
      </trkpt>
      <trkpt lat="46.58466" lon="6.06815">
        <ele>1084.41796875</ele>
      </trkpt>
      <trkpt lat="46.5847" lon="6.06807">
        <ele>1084.41015625</ele>
      </trkpt>
      <trkpt lat="46.58476" lon="6.06799">
        <ele>1084.30078125</ele>
      </trkpt>
      <trkpt lat="46.58481" lon="6.06793">
        <ele>1084.12109375</ele>
      </trkpt>
      <trkpt lat="46.58485" lon="6.06785">
        <ele>1084.11328125</ele>
      </trkpt>
      <trkpt lat="46.58488" lon="6.06778">
        <ele>1084.19921875</ele>
      </trkpt>
      <trkpt lat="46.585" lon="6.06758">
        <ele>1084.2890625</ele>
      </trkpt>
      <trkpt lat="46.58503" lon="6.06748">
        <ele>1084.6796875</ele>
      </trkpt>
      <trkpt lat="46.58507" lon="6.06741">
        <ele>1085.03125</ele>
      </trkpt>
      <trkpt lat="46.58511" lon="6.06731">
        <ele>1085.3828125</ele>
      </trkpt>
      <trkpt lat="46.58516" lon="6.06723">
        <ele>1085.6640625</ele>
      </trkpt>
      <trkpt lat="46.58522" lon="6.06713">
        <ele>1086</ele>
      </trkpt>
      <trkpt lat="46.58526" lon="6.06705">
        <ele>1086</ele>
      </trkpt>
      <trkpt lat="46.58531" lon="6.067">
        <ele>1086</ele>
      </trkpt>
      <trkpt lat="46.58536" lon="6.06694">
        <ele>1086</ele>
      </trkpt>
      <trkpt lat="46.58539" lon="6.06684">
        <ele>1086</ele>
      </trkpt>
      <trkpt lat="46.58543" lon="6.06676">
        <ele>1086</ele>
      </trkpt>
      <trkpt lat="46.58545" lon="6.06665">
        <ele>1086</ele>
      </trkpt>
      <trkpt lat="46.58545" lon="6.06651">
        <ele>1085.796875</ele>
      </trkpt>
      <trkpt lat="46.58545" lon="6.06637">
        <ele>1085.41015625</ele>
      </trkpt>
      <trkpt lat="46.58545" lon="6.06624">
        <ele>1085.07421875</ele>
      </trkpt>
      <trkpt lat="46.58546" lon="6.06612">
        <ele>1084.71875</ele>
      </trkpt>
      <trkpt lat="46.58547" lon="6.066">
        <ele>1084.26953125</ele>
      </trkpt>
      <trkpt lat="46.58549" lon="6.06589">
        <ele>1083.7265625</ele>
      </trkpt>
      <trkpt lat="46.58549" lon="6.06575">
        <ele>1083.26953125</ele>
      </trkpt>
      <trkpt lat="46.58549" lon="6.06561">
        <ele>1082.80859375</ele>
      </trkpt>
      <trkpt lat="46.58549" lon="6.06548">
        <ele>1082.3515625</ele>
      </trkpt>
      <trkpt lat="46.58549" lon="6.06534">
        <ele>1082.33203125</ele>
      </trkpt>
      <trkpt lat="46.58549" lon="6.0652">
        <ele>1082.33203125</ele>
      </trkpt>
      <trkpt lat="46.58547" lon="6.06509">
        <ele>1082.62109375</ele>
      </trkpt>
      <trkpt lat="46.58547" lon="6.06495">
        <ele>1082.67578125</ele>
      </trkpt>
      <trkpt lat="46.58546" lon="6.06483">
        <ele>1082.98046875</ele>
      </trkpt>
      <trkpt lat="46.58543" lon="6.06472">
        <ele>1083.5625</ele>
      </trkpt>
      <trkpt lat="46.58542" lon="6.0646">
        <ele>1083.85546875</ele>
      </trkpt>
      <trkpt lat="46.58542" lon="6.06446">
        <ele>1083.85546875</ele>
      </trkpt>
      <trkpt lat="46.58545" lon="6.06437">
        <ele>1083.2734375</ele>
      </trkpt>
      <trkpt lat="46.58547" lon="6.06425">
        <ele>1082.3359375</ele>
      </trkpt>
      <trkpt lat="46.5855" lon="6.06415">
        <ele>1081.37109375</ele>
      </trkpt>
      <trkpt lat="46.58551" lon="6.06403">
        <ele>1080.91015625</ele>
      </trkpt>
      <trkpt lat="46.58554" lon="6.06394">
        <ele>1080.6171875</ele>
      </trkpt>
      <trkpt lat="46.58557" lon="6.06384">
        <ele>1080.32421875</ele>
      </trkpt>
      <trkpt lat="46.58559" lon="6.06374">
        <ele>1080.03515625</ele>
      </trkpt>
      <trkpt lat="46.58562" lon="6.06364">
        <ele>1079.7421875</ele>
      </trkpt>
      <trkpt lat="46.58563" lon="6.06353">
        <ele>1079.59765625</ele>
      </trkpt>
      <trkpt lat="46.58567" lon="6.06345">
        <ele>1079.16015625</ele>
      </trkpt>
      <trkpt lat="46.58572" lon="6.06337">
        <ele>1078.72265625</ele>
      </trkpt>
      <trkpt lat="46.58574" lon="6.06327">
        <ele>1078.43359375</ele>
      </trkpt>
      <trkpt lat="46.58577" lon="6.06318">
        <ele>1078.140625</ele>
      </trkpt>
      <trkpt lat="46.58581" lon="6.0631">
        <ele>1077.90234375</ele>
      </trkpt>
      <trkpt lat="46.58584" lon="6.063">
        <ele>1077.8046875</ele>
      </trkpt>
      <trkpt lat="46.58588" lon="6.06292">
        <ele>1077.83203125</ele>
      </trkpt>
      <trkpt lat="46.58592" lon="6.06285">
        <ele>1077.96875</ele>
      </trkpt>
      <trkpt lat="46.58594" lon="6.06275">
        <ele>1078.22265625</ele>
      </trkpt>
      <trkpt lat="46.58601" lon="6.06257">
        <ele>1078.171875</ele>
      </trkpt>
      <trkpt lat="46.58605" lon="6.06248">
        <ele>1078.02734375</ele>
      </trkpt>
      <trkpt lat="46.58608" lon="6.06238">
        <ele>1078.12890625</ele>
      </trkpt>
      <trkpt lat="46.58612" lon="6.06228">
        <ele>1078.38671875</ele>
      </trkpt>
      <trkpt lat="46.58615" lon="6.06216">
        <ele>1078.62890625</ele>
      </trkpt>
      <trkpt lat="46.58617" lon="6.06205">
        <ele>1078.58984375</ele>
      </trkpt>
      <trkpt lat="46.5862" lon="6.06195">
        <ele>1078.4921875</ele>
      </trkpt>
      <trkpt lat="46.58623" lon="6.06185">
        <ele>1078.3984375</ele>
      </trkpt>
      <trkpt lat="46.58625" lon="6.06175">
        <ele>1078.30078125</ele>
      </trkpt>
      <trkpt lat="46.58628" lon="6.06166">
        <ele>1078.203125</ele>
      </trkpt>
      <trkpt lat="46.58629" lon="6.06154">
        <ele>1078.12890625</ele>
      </trkpt>
      <trkpt lat="46.58627" lon="6.06144">
        <ele>1078.125</ele>
      </trkpt>
      <trkpt lat="46.58623" lon="6.06137">
        <ele>1078.08203125</ele>
      </trkpt>
      <trkpt lat="46.5862" lon="6.06127">
        <ele>1078</ele>
      </trkpt>
      <trkpt lat="46.58615" lon="6.06119">
        <ele>1078</ele>
      </trkpt>
      <trkpt lat="46.58612" lon="6.06109">
        <ele>1078</ele>
      </trkpt>
      <trkpt lat="46.58609" lon="6.06099">
        <ele>1078</ele>
      </trkpt>
      <trkpt lat="46.58607" lon="6.0609">
        <ele>1078</ele>
      </trkpt>
      <trkpt lat="46.58605" lon="6.06078">
        <ele>1078.02734375</ele>
      </trkpt>
      <trkpt lat="46.58603" lon="6.06068">
        <ele>1078.125</ele>
      </trkpt>
      <trkpt lat="46.58601" lon="6.06059">
        <ele>1078.171875</ele>
      </trkpt>
      <trkpt lat="46.58628" lon="6.06068">
        <ele>1084.99</ele>
        <time>2011-10-15T11:44:10Z</time>
      </trkpt>
      <trkpt lat="46.58674" lon="6.06082">
        <ele>1085.95</ele>
        <time>2011-10-15T11:44:23Z</time>
      </trkpt>
      <trkpt lat="46.58682" lon="6.06087">
        <ele>1085.95</ele>
        <time>2011-10-15T11:44:25Z</time>
      </trkpt>
      <trkpt lat="46.58686" lon="6.0609">
        <ele>1084.99</ele>
        <time>2011-10-15T11:44:26Z</time>
      </trkpt>
      <trkpt lat="46.58723" lon="6.06139">
        <ele>1084.99</ele>
        <time>2011-10-15T11:44:36Z</time>
      </trkpt>
      <trkpt lat="46.58735" lon="6.06161">
        <ele>1086.91</ele>
        <time>2011-10-15T11:44:43Z</time>
      </trkpt>
      <trkpt lat="46.58752" lon="6.06191">
        <ele>1088.83</ele>
        <time>2011-10-15T11:44:54Z</time>
      </trkpt>
      <trkpt lat="46.58772" lon="6.06218">
        <ele>1091.23</ele>
        <time>2011-10-15T11:45:07Z</time>
      </trkpt>
      <trkpt lat="46.58789" lon="6.06234">
        <ele>1092.2</ele>
        <time>2011-10-15T11:45:18Z</time>
      </trkpt>
      <trkpt lat="46.58805" lon="6.06245">
        <ele>1095.08</ele>
        <time>2011-10-15T11:45:29Z</time>
      </trkpt>
      <trkpt lat="46.58819" lon="6.06254">
        <ele>1097.48</ele>
        <time>2011-10-15T11:45:42Z</time>
      </trkpt>
      <trkpt lat="46.58826" lon="6.0626">
        <ele>1098.92</ele>
        <time>2011-10-15T11:45:48Z</time>
      </trkpt>
      <trkpt lat="46.58838" lon="6.06269">
        <ele>1099.89</ele>
        <time>2011-10-15T11:46:00Z</time>
      </trkpt>
      <trkpt lat="46.58858" lon="6.0628">
        <ele>1101.81</ele>
        <time>2011-10-15T11:46:15Z</time>
      </trkpt>
      <trkpt lat="46.5887" lon="6.06285">
        <ele>1104.21</ele>
        <time>2011-10-15T11:46:26Z</time>
      </trkpt>
      <trkpt lat="46.58877" lon="6.06288">
        <ele>1104.21</ele>
        <time>2011-10-15T11:46:32Z</time>
      </trkpt>
      <trkpt lat="46.58882" lon="6.06287">
        <ele>1105.17</ele>
        <time>2011-10-15T11:46:35Z</time>
      </trkpt>
      <trkpt lat="46.58894" lon="6.06292">
        <ele>1105.65</ele>
        <time>2011-10-15T11:46:46Z</time>
      </trkpt>
      <trkpt lat="46.58908" lon="6.06296">
        <ele>1105.17</ele>
        <time>2011-10-15T11:46:57Z</time>
      </trkpt>
      <trkpt lat="46.5891" lon="6.06296">
        <ele>1104.69</ele>
        <time>2011-10-15T11:46:58Z</time>
      </trkpt>
      <trkpt lat="46.58911" lon="6.06296">
        <ele>1104.69</ele>
        <time>2011-10-15T11:46:59Z</time>
      </trkpt>
      <trkpt lat="46.58913" lon="6.06296">
        <ele>1104.69</ele>
        <time>2011-10-15T11:47:00Z</time>
      </trkpt>
      <trkpt lat="46.58931" lon="6.06297">
        <ele>1105.17</ele>
        <time>2011-10-15T11:47:11Z</time>
      </trkpt>
      <trkpt lat="46.58966" lon="6.06306">
        <ele>1103.73</ele>
        <time>2011-10-15T11:47:23Z</time>
      </trkpt>
      <trkpt lat="46.58977" lon="6.06309">
        <ele>1102.77</ele>
        <time>2011-10-15T11:47:25Z</time>
      </trkpt>
      <trkpt lat="46.58995" lon="6.06312">
        <ele>1101.81</ele>
        <time>2011-10-15T11:47:28Z</time>
      </trkpt>
      <trkpt lat="46.59009" lon="6.06313">
        <ele>1101.81</ele>
        <time>2011-10-15T11:47:30Z</time>
      </trkpt>
      <trkpt lat="46.59014" lon="6.06316">
        <ele>1102.29</ele>
        <time>2011-10-15T11:47:31Z</time>
      </trkpt>
      <trkpt lat="46.59019" lon="6.0632">
        <ele>1101.33</ele>
        <time>2011-10-15T11:47:32Z</time>
      </trkpt>
      <trkpt lat="46.59024" lon="6.06325">
        <ele>1100.85</ele>
        <time>2011-10-15T11:47:33Z</time>
      </trkpt>
      <trkpt lat="46.59029" lon="6.06329">
        <ele>1101.33</ele>
        <time>2011-10-15T11:47:34Z</time>
      </trkpt>
      <trkpt lat="46.59032" lon="6.06335">
        <ele>1101.81</ele>
        <time>2011-10-15T11:47:35Z</time>
      </trkpt>
      <trkpt lat="46.59035" lon="6.06339">
        <ele>1101.33</ele>
        <time>2011-10-15T11:47:36Z</time>
      </trkpt>
      <trkpt lat="46.59062" lon="6.06398">
        <ele>1101.33</ele>
        <time>2011-10-15T11:47:47Z</time>
      </trkpt>
      <trkpt lat="46.59065" lon="6.06403">
        <ele>1101.33</ele>
        <time>2011-10-15T11:47:48Z</time>
      </trkpt>
      <trkpt lat="46.59104" lon="6.06448">
        <ele>1102.77</ele>
        <time>2011-10-15T11:48:00Z</time>
      </trkpt>
      <trkpt lat="46.59124" lon="6.06469">
        <ele>1102.29</ele>
        <time>2011-10-15T11:48:07Z</time>
      </trkpt>
      <trkpt lat="46.59128" lon="6.06474">
        <ele>1101.81</ele>
        <time>2011-10-15T11:48:08Z</time>
      </trkpt>
      <trkpt lat="46.59131" lon="6.06482">
        <ele>1100.85</ele>
        <time>2011-10-15T11:48:09Z</time>
      </trkpt>
      <trkpt lat="46.59133" lon="6.0649">
        <ele>1100.37</ele>
        <time>2011-10-15T11:48:10Z</time>
      </trkpt>
      <trkpt lat="46.59135" lon="6.06499">
        <ele>1100.37</ele>
        <time>2011-10-15T11:48:11Z</time>
      </trkpt>
      <trkpt lat="46.59136" lon="6.06507">
        <ele>1100.37</ele>
        <time>2011-10-15T11:48:12Z</time>
      </trkpt>
      <trkpt lat="46.59137" lon="6.06515">
        <ele>1100.37</ele>
        <time>2011-10-15T11:48:13Z</time>
      </trkpt>
      <trkpt lat="46.5915" lon="6.06559">
        <ele>1099.4</ele>
        <time>2011-10-15T11:48:20Z</time>
      </trkpt>
      <trkpt lat="46.59153" lon="6.06562">
        <ele>1098.92</ele>
        <time>2011-10-15T11:48:21Z</time>
      </trkpt>
      <trkpt lat="46.59188" lon="6.06582">
        <ele>1099.4</ele>
        <time>2011-10-15T11:48:32Z</time>
      </trkpt>
      <trkpt lat="46.59209" lon="6.0661">
        <ele>1102.77</ele>
        <time>2011-10-15T11:48:41Z</time>
      </trkpt>
      <trkpt lat="46.59236" lon="6.06642">
        <ele>1103.25</ele>
        <time>2011-10-15T11:48:54Z</time>
      </trkpt>
      <trkpt lat="46.59244" lon="6.06648">
        <ele>1106.61</ele>
        <time>2011-10-15T11:48:57Z</time>
      </trkpt>
      <trkpt lat="46.5925" lon="6.06652">
        <ele>1102.77</ele>
        <time>2011-10-15T11:48:59Z</time>
      </trkpt>
      <trkpt lat="46.59283" lon="6.06668">
        <ele>1105.17</ele>
        <time>2011-10-15T11:49:13Z</time>
      </trkpt>
      <trkpt lat="46.59304" lon="6.06669">
        <ele>1107.1</ele>
        <time>2011-10-15T11:49:24Z</time>
      </trkpt>
      <trkpt lat="46.59305" lon="6.06668">
        <ele>1108.54</ele>
        <time>2011-10-15T11:49:25Z</time>
      </trkpt>
      <trkpt lat="46.59314" lon="6.06661">
        <ele>1108.06</ele>
        <time>2011-10-15T11:49:32Z</time>
      </trkpt>
      <trkpt lat="46.59324" lon="6.06655">
        <ele>1109.98</ele>
        <time>2011-10-15T11:49:40Z</time>
      </trkpt>
      <trkpt lat="46.59326" lon="6.06654">
        <ele>1109.98</ele>
        <time>2011-10-15T11:49:41Z</time>
      </trkpt>
      <trkpt lat="46.59327" lon="6.06653">
        <ele>1110.46</ele>
        <time>2011-10-15T11:49:42Z</time>
      </trkpt>
      <trkpt lat="46.59329" lon="6.06652">
        <ele>1110.46</ele>
        <time>2011-10-15T11:49:43Z</time>
      </trkpt>
      <trkpt lat="46.5933" lon="6.06652">
        <ele>1110.94</ele>
        <time>2011-10-15T11:49:44Z</time>
      </trkpt>
      <trkpt lat="46.59332" lon="6.06651">
        <ele>1110.94</ele>
        <time>2011-10-15T11:49:45Z</time>
      </trkpt>
      <trkpt lat="46.59334" lon="6.06651">
        <ele>1111.42</ele>
        <time>2011-10-15T11:49:46Z</time>
      </trkpt>
      <trkpt lat="46.59335" lon="6.06651">
        <ele>1111.42</ele>
        <time>2011-10-15T11:49:47Z</time>
      </trkpt>
      <trkpt lat="46.59337" lon="6.06651">
        <ele>1111.42</ele>
        <time>2011-10-15T11:49:48Z</time>
      </trkpt>
      <trkpt lat="46.59338" lon="6.06651">
        <ele>1111.9</ele>
        <time>2011-10-15T11:49:49Z</time>
      </trkpt>
      <trkpt lat="46.5934" lon="6.06651">
        <ele>1112.38</ele>
        <time>2011-10-15T11:49:50Z</time>
      </trkpt>
      <trkpt lat="46.59341" lon="6.06651">
        <ele>1111.42</ele>
        <time>2011-10-15T11:49:51Z</time>
      </trkpt>
      <trkpt lat="46.59343" lon="6.0665">
        <ele>1111.42</ele>
        <time>2011-10-15T11:49:52Z</time>
      </trkpt>
      <trkpt lat="46.59344" lon="6.0665">
        <ele>1112.38</ele>
        <time>2011-10-15T11:49:53Z</time>
      </trkpt>
      <trkpt lat="46.59359" lon="6.06655">
        <ele>1113.82</ele>
        <time>2011-10-15T11:50:02Z</time>
      </trkpt>
      <trkpt lat="46.5936" lon="6.06656">
        <ele>1113.82</ele>
        <time>2011-10-15T11:50:03Z</time>
      </trkpt>
      <trkpt lat="46.59361" lon="6.06657">
        <ele>1113.82</ele>
        <time>2011-10-15T11:50:04Z</time>
      </trkpt>
      <trkpt lat="46.59369" lon="6.06661">
        <ele>1114.31</ele>
        <time>2011-10-15T11:50:09Z</time>
      </trkpt>
      <trkpt lat="46.5937" lon="6.06663">
        <ele>1115.27</ele>
        <time>2011-10-15T11:50:10Z</time>
      </trkpt>
      <trkpt lat="46.59372" lon="6.06664">
        <ele>1115.27</ele>
        <time>2011-10-15T11:50:11Z</time>
      </trkpt>
      <trkpt lat="46.59386" lon="6.06676">
        <ele>1116.23</ele>
        <time>2011-10-15T11:50:24Z</time>
      </trkpt>
      <trkpt lat="46.59387" lon="6.06675">
        <ele>1116.23</ele>
        <time>2011-10-15T11:50:25Z</time>
      </trkpt>
      <trkpt lat="46.59387" lon="6.06674">
        <ele>1117.19</ele>
        <time>2011-10-15T11:50:26Z</time>
      </trkpt>
      <trkpt lat="46.59388" lon="6.06672">
        <ele>1116.71</ele>
        <time>2011-10-15T11:50:27Z</time>
      </trkpt>
      <trkpt lat="46.59387" lon="6.06671">
        <ele>1116.71</ele>
        <time>2011-10-15T11:50:28Z</time>
      </trkpt>
      <trkpt lat="46.59386" lon="6.0667">
        <ele>1117.19</ele>
        <time>2011-10-15T11:50:30Z</time>
      </trkpt>
      <trkpt lat="46.59385" lon="6.0667">
        <ele>1116.71</ele>
        <time>2011-10-15T11:50:31Z</time>
      </trkpt>
      <trkpt lat="46.59384" lon="6.06671">
        <ele>1117.19</ele>
        <time>2011-10-15T11:50:32Z</time>
      </trkpt>
      <trkpt lat="46.59384" lon="6.06673">
        <ele>1116.23</ele>
        <time>2011-10-15T11:50:33Z</time>
      </trkpt>
      <trkpt lat="46.59393" lon="6.06685">
        <ele>1116.71</ele>
        <time>2011-10-15T11:50:42Z</time>
      </trkpt>
      <trkpt lat="46.59394" lon="6.06687">
        <ele>1117.19</ele>
        <time>2011-10-15T11:50:43Z</time>
      </trkpt>
      <trkpt lat="46.594" lon="6.06694">
        <ele>1118.15</ele>
        <time>2011-10-15T11:50:49Z</time>
      </trkpt>
      <trkpt lat="46.59408" lon="6.06715">
        <ele>1120.07</ele>
        <time>2011-10-15T11:51:03Z</time>
      </trkpt>
      <trkpt lat="46.59409" lon="6.06723">
        <ele>1119.59</ele>
        <time>2011-10-15T11:51:07Z</time>
      </trkpt>
      <trkpt lat="46.59414" lon="6.06738">
        <ele>1120.55</ele>
        <time>2011-10-15T11:51:19Z</time>
      </trkpt>
      <trkpt lat="46.59415" lon="6.0674">
        <ele>1120.55</ele>
        <time>2011-10-15T11:51:20Z</time>
      </trkpt>
      <trkpt lat="46.59416" lon="6.06749">
        <ele>1120.07</ele>
        <time>2011-10-15T11:51:25Z</time>
      </trkpt>
      <trkpt lat="46.59416" lon="6.06752">
        <ele>1120.55</ele>
        <time>2011-10-15T11:51:27Z</time>
      </trkpt>
      <trkpt lat="46.59417" lon="6.06759">
        <ele>1119.11</ele>
        <time>2011-10-15T11:51:32Z</time>
      </trkpt>
      <trkpt lat="46.59413" lon="6.06802">
        <ele>1117.19</ele>
        <time>2011-10-15T11:51:47Z</time>
      </trkpt>
      <trkpt lat="46.59427" lon="6.06829">
        <ele>1114.79</ele>
        <time>2011-10-15T11:51:55Z</time>
      </trkpt>
      <trkpt lat="46.59435" lon="6.06835">
        <ele>1113.34</ele>
        <time>2011-10-15T11:51:57Z</time>
      </trkpt>
      <trkpt lat="46.5945" lon="6.06848">
        <ele>1109.98</ele>
        <time>2011-10-15T11:52:00Z</time>
      </trkpt>
      <trkpt lat="46.59455" lon="6.0685">
        <ele>1109.5</ele>
        <time>2011-10-15T11:52:01Z</time>
      </trkpt>
      <trkpt lat="46.5946" lon="6.06853">
        <ele>1109.5</ele>
        <time>2011-10-15T11:52:02Z</time>
      </trkpt>
      <trkpt lat="46.59468" lon="6.06851">
        <ele>1109.02</ele>
        <time>2011-10-15T11:52:05Z</time>
      </trkpt>
      <trkpt lat="46.5947" lon="6.0685">
        <ele>1109.02</ele>
        <time>2011-10-15T11:52:06Z</time>
      </trkpt>
      <trkpt lat="46.59477" lon="6.06844">
        <ele>1108.06</ele>
        <time>2011-10-15T11:52:13Z</time>
      </trkpt>
      <trkpt lat="46.59496" lon="6.06824">
        <ele>1107.58</ele>
        <time>2011-10-15T11:52:23Z</time>
      </trkpt>
      <trkpt lat="46.59498" lon="6.06823">
        <ele>1107.1</ele>
        <time>2011-10-15T11:52:24Z</time>
      </trkpt>
      <trkpt lat="46.595" lon="6.06822">
        <ele>1106.61</ele>
        <time>2011-10-15T11:52:25Z</time>
      </trkpt>
      <trkpt lat="46.59501" lon="6.06821">
        <ele>1107.1</ele>
        <time>2011-10-15T11:52:26Z</time>
      </trkpt>
      <trkpt lat="46.59503" lon="6.0682">
        <ele>1106.61</ele>
        <time>2011-10-15T11:52:27Z</time>
      </trkpt>
      <trkpt lat="46.59532" lon="6.06798">
        <ele>1106.13</ele>
        <time>2011-10-15T11:52:41Z</time>
      </trkpt>
      <trkpt lat="46.59559" lon="6.06764">
        <ele>1103.25</ele>
        <time>2011-10-15T11:52:51Z</time>
      </trkpt>
      <trkpt lat="46.59562" lon="6.06759">
        <ele>1103.25</ele>
        <time>2011-10-15T11:52:52Z</time>
      </trkpt>
      <trkpt lat="46.59578" lon="6.0674">
        <ele>1099.89</ele>
        <time>2011-10-15T11:52:57Z</time>
      </trkpt>
      <trkpt lat="46.59589" lon="6.06724">
        <ele>1097.96</ele>
        <time>2011-10-15T11:53:00Z</time>
      </trkpt>
      <trkpt lat="46.59593" lon="6.0672">
        <ele>1097.96</ele>
        <time>2011-10-15T11:53:01Z</time>
      </trkpt>
      <trkpt lat="46.59598" lon="6.06716">
        <ele>1097.48</ele>
        <time>2011-10-15T11:53:02Z</time>
      </trkpt>
      <trkpt lat="46.59601" lon="6.06711">
        <ele>1097</ele>
        <time>2011-10-15T11:53:03Z</time>
      </trkpt>
      <trkpt lat="46.59604" lon="6.0671">
        <ele>1095.56</ele>
        <time>2011-10-15T11:53:04Z</time>
      </trkpt>
      <trkpt lat="46.59607" lon="6.0671">
        <ele>1096.04</ele>
        <time>2011-10-15T11:53:05Z</time>
      </trkpt>
      <trkpt lat="46.59613" lon="6.06712">
        <ele>1095.08</ele>
        <time>2011-10-15T11:53:07Z</time>
      </trkpt>
      <trkpt lat="46.59616" lon="6.06715">
        <ele>1094.6</ele>
        <time>2011-10-15T11:53:08Z</time>
      </trkpt>
      <trkpt lat="46.59619" lon="6.06718">
        <ele>1095.08</ele>
        <time>2011-10-15T11:53:09Z</time>
      </trkpt>
      <trkpt lat="46.59633" lon="6.06749">
        <ele>1096.04</ele>
        <time>2011-10-15T11:53:20Z</time>
      </trkpt>
      <trkpt lat="46.59639" lon="6.06763">
        <ele>1097.96</ele>
        <time>2011-10-15T11:53:26Z</time>
      </trkpt>
      <trkpt lat="46.59642" lon="6.06768">
        <ele>1097.96</ele>
        <time>2011-10-15T11:53:29Z</time>
      </trkpt>
      <trkpt lat="46.59641" lon="6.06771">
        <ele>1097.96</ele>
        <time>2011-10-15T11:53:30Z</time>
      </trkpt>
      <trkpt lat="46.59641" lon="6.06774">
        <ele>1097.48</ele>
        <time>2011-10-15T11:53:31Z</time>
      </trkpt>
      <trkpt lat="46.59644" lon="6.06784">
        <ele>1097.48</ele>
        <time>2011-10-15T11:53:34Z</time>
      </trkpt>
      <trkpt lat="46.59644" lon="6.06786">
        <ele>1097.48</ele>
        <time>2011-10-15T11:53:35Z</time>
      </trkpt>
      <trkpt lat="46.59643" lon="6.06788">
        <ele>1097.96</ele>
        <time>2011-10-15T11:53:36Z</time>
      </trkpt>
      <trkpt lat="46.59642" lon="6.06791">
        <ele>1097.96</ele>
        <time>2011-10-15T11:53:37Z</time>
      </trkpt>
      <trkpt lat="46.59642" lon="6.06794">
        <ele>1098.92</ele>
        <time>2011-10-15T11:53:38Z</time>
      </trkpt>
      <trkpt lat="46.59643" lon="6.06797">
        <ele>1097.96</ele>
        <time>2011-10-15T11:53:39Z</time>
      </trkpt>
      <trkpt lat="46.59644" lon="6.068">
        <ele>1098.44</ele>
        <time>2011-10-15T11:53:40Z</time>
      </trkpt>
      <trkpt lat="46.59645" lon="6.06804">
        <ele>1097.96</ele>
        <time>2011-10-15T11:53:41Z</time>
      </trkpt>
      <trkpt lat="46.59644" lon="6.06809">
        <ele>1097.48</ele>
        <time>2011-10-15T11:53:42Z</time>
      </trkpt>
      <trkpt lat="46.59643" lon="6.06813">
        <ele>1097.96</ele>
        <time>2011-10-15T11:53:43Z</time>
      </trkpt>
      <trkpt lat="46.59642" lon="6.06816">
        <ele>1097</ele>
        <time>2011-10-15T11:53:44Z</time>
      </trkpt>
      <trkpt lat="46.59642" lon="6.0682">
        <ele>1097.96</ele>
        <time>2011-10-15T11:53:45Z</time>
      </trkpt>
      <trkpt lat="46.59642" lon="6.06824">
        <ele>1097.48</ele>
        <time>2011-10-15T11:53:46Z</time>
      </trkpt>
      <trkpt lat="46.59642" lon="6.06827">
        <ele>1097</ele>
        <time>2011-10-15T11:53:47Z</time>
      </trkpt>
      <trkpt lat="46.59641" lon="6.06832">
        <ele>1097</ele>
        <time>2011-10-15T11:53:49Z</time>
      </trkpt>
      <trkpt lat="46.59639" lon="6.06835">
        <ele>1096.52</ele>
        <time>2011-10-15T11:53:50Z</time>
      </trkpt>
      <trkpt lat="46.59638" lon="6.06837">
        <ele>1096.52</ele>
        <time>2011-10-15T11:53:51Z</time>
      </trkpt>
      <trkpt lat="46.59637" lon="6.06841">
        <ele>1096.52</ele>
        <time>2011-10-15T11:53:52Z</time>
      </trkpt>
      <trkpt lat="46.59635" lon="6.06845">
        <ele>1096.04</ele>
        <time>2011-10-15T11:53:53Z</time>
      </trkpt>
      <trkpt lat="46.59632" lon="6.0685">
        <ele>1096.52</ele>
        <time>2011-10-15T11:53:54Z</time>
      </trkpt>
      <trkpt lat="46.5963" lon="6.06855">
        <ele>1096.04</ele>
        <time>2011-10-15T11:53:55Z</time>
      </trkpt>
      <trkpt lat="46.5963" lon="6.0686">
        <ele>1094.6</ele>
        <time>2011-10-15T11:53:56Z</time>
      </trkpt>
      <trkpt lat="46.5963" lon="6.06866">
        <ele>1095.56</ele>
        <time>2011-10-15T11:53:57Z</time>
      </trkpt>
      <trkpt lat="46.59631" lon="6.06872">
        <ele>1094.6</ele>
        <time>2011-10-15T11:53:58Z</time>
      </trkpt>
      <trkpt lat="46.59632" lon="6.06878">
        <ele>1095.08</ele>
        <time>2011-10-15T11:53:59Z</time>
      </trkpt>
      <trkpt lat="46.59643" lon="6.06906">
        <ele>1093.16</ele>
        <time>2011-10-15T11:54:06Z</time>
      </trkpt>
      <trkpt lat="46.59668" lon="6.06914">
        <ele>1092.2</ele>
        <time>2011-10-15T11:54:15Z</time>
      </trkpt>
      <trkpt lat="46.59677" lon="6.06914">
        <ele>1091.71</ele>
        <time>2011-10-15T11:54:19Z</time>
      </trkpt>
      <trkpt lat="46.59679" lon="6.06914">
        <ele>1092.2</ele>
        <time>2011-10-15T11:54:20Z</time>
      </trkpt>
      <trkpt lat="46.59682" lon="6.06914">
        <ele>1092.68</ele>
        <time>2011-10-15T11:54:21Z</time>
      </trkpt>
      <trkpt lat="46.5971" lon="6.06938">
        <ele>1090.75</ele>
        <time>2011-10-15T11:54:32Z</time>
      </trkpt>
      <trkpt lat="46.59725" lon="6.06954">
        <ele>1089.79</ele>
        <time>2011-10-15T11:54:41Z</time>
      </trkpt>
      <trkpt lat="46.59741" lon="6.06964">
        <ele>1089.31</ele>
        <time>2011-10-15T11:55:22Z</time>
      </trkpt>
      <trkpt lat="46.59774" lon="6.0698">
        <ele>1090.75</ele>
        <time>2011-10-15T11:55:35Z</time>
      </trkpt>
      <trkpt lat="46.59786" lon="6.06989">
        <ele>1090.75</ele>
        <time>2011-10-15T11:55:43Z</time>
      </trkpt>
      <trkpt lat="46.59788" lon="6.06989">
        <ele>1089.31</ele>
        <time>2011-10-15T11:55:44Z</time>
      </trkpt>
      <trkpt lat="46.5979" lon="6.0699">
        <ele>1090.27</ele>
        <time>2011-10-15T11:55:45Z</time>
      </trkpt>
      <trkpt lat="46.59792" lon="6.06989">
        <ele>1090.27</ele>
        <time>2011-10-15T11:55:46Z</time>
      </trkpt>
      <trkpt lat="46.59793" lon="6.06988">
        <ele>1090.27</ele>
        <time>2011-10-15T11:55:47Z</time>
      </trkpt>
      <trkpt lat="46.59813" lon="6.06977">
        <ele>1092.2</ele>
        <time>2011-10-15T11:55:59Z</time>
      </trkpt>
      <trkpt lat="46.59815" lon="6.06975">
        <ele>1092.68</ele>
        <time>2011-10-15T11:56:01Z</time>
      </trkpt>
      <trkpt lat="46.59817" lon="6.06974">
        <ele>1092.2</ele>
        <time>2011-10-15T11:56:02Z</time>
      </trkpt>
      <trkpt lat="46.59819" lon="6.06973">
        <ele>1092.68</ele>
        <time>2011-10-15T11:56:03Z</time>
      </trkpt>
      <trkpt lat="46.59822" lon="6.0697">
        <ele>1092.2</ele>
        <time>2011-10-15T11:56:04Z</time>
      </trkpt>
      <trkpt lat="46.59825" lon="6.06968">
        <ele>1092.68</ele>
        <time>2011-10-15T11:56:05Z</time>
      </trkpt>
      <trkpt lat="46.59828" lon="6.06965">
        <ele>1092.2</ele>
        <time>2011-10-15T11:56:06Z</time>
      </trkpt>
      <trkpt lat="46.59849" lon="6.06934">
        <ele>1092.2</ele>
        <time>2011-10-15T11:56:17Z</time>
      </trkpt>
      <trkpt lat="46.59854" lon="6.06927">
        <ele>1090.75</ele>
        <time>2011-10-15T11:56:19Z</time>
      </trkpt>
      <trkpt lat="46.59878" lon="6.06876">
        <ele>1088.35</ele>
        <time>2011-10-15T11:56:31Z</time>
      </trkpt>
      <trkpt lat="46.59895" lon="6.06857">
        <ele>1088.35</ele>
        <time>2011-10-15T11:56:38Z</time>
      </trkpt>
      <trkpt lat="46.59896" lon="6.06853">
        <ele>1088.83</ele>
        <time>2011-10-15T11:56:39Z</time>
      </trkpt>
      <trkpt lat="46.59898" lon="6.06849">
        <ele>1087.39</ele>
        <time>2011-10-15T11:56:40Z</time>
      </trkpt>
      <trkpt lat="46.599" lon="6.06845">
        <ele>1088.35</ele>
        <time>2011-10-15T11:56:41Z</time>
      </trkpt>
      <trkpt lat="46.59903" lon="6.0684">
        <ele>1087.39</ele>
        <time>2011-10-15T11:56:42Z</time>
      </trkpt>
      <trkpt lat="46.59916" lon="6.06823">
        <ele>1087.87</ele>
        <time>2011-10-15T11:56:46Z</time>
      </trkpt>
      <trkpt lat="46.59927" lon="6.06813">
        <ele>1085.95</ele>
        <time>2011-10-15T11:56:49Z</time>
      </trkpt>
      <trkpt lat="46.59931" lon="6.0681">
        <ele>1085.95</ele>
        <time>2011-10-15T11:56:50Z</time>
      </trkpt>
      <trkpt lat="46.5994" lon="6.06804">
        <ele>1084.99</ele>
        <time>2011-10-15T11:56:52Z</time>
      </trkpt>
      <trkpt lat="46.59945" lon="6.06801">
        <ele>1084.5</ele>
        <time>2011-10-15T11:56:53Z</time>
      </trkpt>
      <trkpt lat="46.59961" lon="6.0679">
        <ele>1083.06</ele>
        <time>2011-10-15T11:56:56Z</time>
      </trkpt>
      <trkpt lat="46.59966" lon="6.06786">
        <ele>1083.06</ele>
        <time>2011-10-15T11:56:57Z</time>
      </trkpt>
      <trkpt lat="46.60007" lon="6.06746">
        <ele>1083.06</ele>
        <time>2011-10-15T11:57:08Z</time>
      </trkpt>
      <trkpt lat="46.6004" lon="6.06707">
        <ele>1083.54</ele>
        <time>2011-10-15T11:57:20Z</time>
      </trkpt>
      <trkpt lat="46.60055" lon="6.06683">
        <ele>1084.5</ele>
        <time>2011-10-15T11:57:27Z</time>
      </trkpt>
      <trkpt lat="46.60071" lon="6.06652">
        <ele>1085.95</ele>
        <time>2011-10-15T11:57:40Z</time>
      </trkpt>
      <trkpt lat="46.60072" lon="6.0665">
        <ele>1085.95</ele>
        <time>2011-10-15T11:57:41Z</time>
      </trkpt>
      <trkpt lat="46.60086" lon="6.06632">
        <ele>1084.99</ele>
        <time>2011-10-15T11:57:54Z</time>
      </trkpt>
      <trkpt lat="46.60086" lon="6.06632">
        <ele>1085.47</ele>
        <time>2011-10-15T11:57:59Z</time>
      </trkpt>
      <trkpt lat="46.60086" lon="6.06632">
        <ele>1082.58</ele>
        <time>2011-10-15T11:58:05Z</time>
      </trkpt>
      <trkpt lat="46.60086" lon="6.06632">
        <ele>1085.47</ele>
        <time>2011-10-15T11:58:06Z</time>
      </trkpt>
      <trkpt lat="46.60086" lon="6.06632">
        <ele>1084.5</ele>
        <time>2011-10-15T11:58:18Z</time>
      </trkpt>
      <trkpt lat="46.60086" lon="6.06632">
        <ele>1084.99</ele>
        <time>2011-10-15T11:58:21Z</time>
      </trkpt>
      <trkpt lat="46.60088" lon="6.0663">
        <ele>1084.99</ele>
        <time>2011-10-15T11:58:23Z</time>
      </trkpt>
      <trkpt lat="46.6009" lon="6.06628">
        <ele>1085.47</ele>
        <time>2011-10-15T11:58:24Z</time>
      </trkpt>
      <trkpt lat="46.60091" lon="6.06627">
        <ele>1085.47</ele>
        <time>2011-10-15T11:58:25Z</time>
      </trkpt>
      <trkpt lat="46.60105" lon="6.0661">
        <ele>1084.5</ele>
        <time>2011-10-15T11:58:32Z</time>
      </trkpt>
      <trkpt lat="46.60112" lon="6.06597">
        <ele>1084.02</ele>
        <time>2011-10-15T11:58:37Z</time>
      </trkpt>
      <trkpt lat="46.60113" lon="6.06594">
        <ele>1084.02</ele>
        <time>2011-10-15T11:58:38Z</time>
      </trkpt>
      <trkpt lat="46.60118" lon="6.06572">
        <ele>1082.58</ele>
        <time>2011-10-15T11:58:47Z</time>
      </trkpt>
      <trkpt lat="46.6012" lon="6.06571">
        <ele>1081.62</ele>
        <time>2011-10-15T11:58:48Z</time>
      </trkpt>
      <trkpt lat="46.60121" lon="6.06571">
        <ele>1081.62</ele>
        <time>2011-10-15T11:58:49Z</time>
      </trkpt>
      <trkpt lat="46.60134" lon="6.06565">
        <ele>1079.7</ele>
        <time>2011-10-15T11:58:54Z</time>
      </trkpt>
      <trkpt lat="46.60137" lon="6.06564">
        <ele>1079.22</ele>
        <time>2011-10-15T11:58:55Z</time>
      </trkpt>
      <trkpt lat="46.60162" lon="6.0654">
        <ele>1078.74</ele>
        <time>2011-10-15T11:59:05Z</time>
      </trkpt>
      <trkpt lat="46.60174" lon="6.06518">
        <ele>1077.78</ele>
        <time>2011-10-15T11:59:17Z</time>
      </trkpt>
      <trkpt lat="46.60186" lon="6.06512">
        <ele>1077.78</ele>
        <time>2011-10-15T12:11:56Z</time>
      </trkpt>
      <trkpt lat="46.60211" lon="6.06532">
        <ele>1077.29</ele>
        <time>2011-10-15T12:12:06Z</time>
      </trkpt>
      <trkpt lat="46.6022" lon="6.06551">
        <ele>1077.29</ele>
        <time>2011-10-15T12:12:15Z</time>
      </trkpt>
      <trkpt lat="46.60226" lon="6.06575">
        <ele>1073.93</ele>
        <time>2011-10-15T12:12:23Z</time>
      </trkpt>
      <trkpt lat="46.60231" lon="6.06596">
        <ele>1075.37</ele>
        <time>2011-10-15T12:12:31Z</time>
      </trkpt>
      <trkpt lat="46.60231" lon="6.06599">
        <ele>1075.37</ele>
        <time>2011-10-15T12:12:32Z</time>
      </trkpt>
      <trkpt lat="46.60232" lon="6.06602">
        <ele>1074.41</ele>
        <time>2011-10-15T12:12:33Z</time>
      </trkpt>
      <trkpt lat="46.60233" lon="6.06605">
        <ele>1074.41</ele>
        <time>2011-10-15T12:12:34Z</time>
      </trkpt>
      <trkpt lat="46.60234" lon="6.06609">
        <ele>1074.41</ele>
        <time>2011-10-15T12:12:35Z</time>
      </trkpt>
      <trkpt lat="46.60235" lon="6.06614">
        <ele>1072.97</ele>
        <time>2011-10-15T12:12:36Z</time>
      </trkpt>
      <trkpt lat="46.60236" lon="6.0662">
        <ele>1073.93</ele>
        <time>2011-10-15T12:12:37Z</time>
      </trkpt>
      <trkpt lat="46.60237" lon="6.06627">
        <ele>1072.49</ele>
        <time>2011-10-15T12:12:38Z</time>
      </trkpt>
      <trkpt lat="46.60239" lon="6.06634">
        <ele>1072.01</ele>
        <time>2011-10-15T12:12:39Z</time>
      </trkpt>
      <trkpt lat="46.60241" lon="6.06642">
        <ele>1071.53</ele>
        <time>2011-10-15T12:12:40Z</time>
      </trkpt>
      <trkpt lat="46.60243" lon="6.06648">
        <ele>1072.01</ele>
        <time>2011-10-15T12:12:41Z</time>
      </trkpt>
      <trkpt lat="46.60244" lon="6.06655">
        <ele>1072.97</ele>
        <time>2011-10-15T12:12:42Z</time>
      </trkpt>
      <trkpt lat="46.60257" lon="6.06681">
        <ele>1074.41</ele>
        <time>2011-10-15T12:12:49Z</time>
      </trkpt>
      <trkpt lat="46.60272" lon="6.06709">
        <ele>1071.53</ele>
        <time>2011-10-15T12:12:57Z</time>
      </trkpt>
      <trkpt lat="46.60295" lon="6.06751">
        <ele>1073.45</ele>
        <time>2011-10-15T12:13:09Z</time>
      </trkpt>
      <trkpt lat="46.60304" lon="6.06771">
        <ele>1075.37</ele>
        <time>2011-10-15T12:13:16Z</time>
      </trkpt>
      <trkpt lat="46.60314" lon="6.06797">
        <ele>1077.29</ele>
        <time>2011-10-15T12:13:25Z</time>
      </trkpt>
      <trkpt lat="46.60327" lon="6.06828">
        <ele>1078.26</ele>
        <time>2011-10-15T12:13:38Z</time>
      </trkpt>
      <trkpt lat="46.60327" lon="6.0683">
        <ele>1077.78</ele>
        <time>2011-10-15T12:13:39Z</time>
      </trkpt>
      <trkpt lat="46.60328" lon="6.06832">
        <ele>1078.74</ele>
        <time>2011-10-15T12:13:40Z</time>
      </trkpt>
      <trkpt lat="46.60329" lon="6.06834">
        <ele>1078.26</ele>
        <time>2011-10-15T12:13:41Z</time>
      </trkpt>
      <trkpt lat="46.6033" lon="6.06836">
        <ele>1078.26</ele>
        <time>2011-10-15T12:13:42Z</time>
      </trkpt>
      <trkpt lat="46.60331" lon="6.06838">
        <ele>1078.74</ele>
        <time>2011-10-15T12:13:43Z</time>
      </trkpt>
      <trkpt lat="46.60332" lon="6.0684">
        <ele>1080.18</ele>
        <time>2011-10-15T12:13:44Z</time>
      </trkpt>
      <trkpt lat="46.60333" lon="6.06842">
        <ele>1080.18</ele>
        <time>2011-10-15T12:13:45Z</time>
      </trkpt>
      <trkpt lat="46.60335" lon="6.06844">
        <ele>1079.7</ele>
        <time>2011-10-15T12:13:46Z</time>
      </trkpt>
      <trkpt lat="46.60336" lon="6.06846">
        <ele>1080.66</ele>
        <time>2011-10-15T12:13:47Z</time>
      </trkpt>
      <trkpt lat="46.60348" lon="6.06875">
        <ele>1084.02</ele>
        <time>2011-10-15T12:14:01Z</time>
      </trkpt>
      <trkpt lat="46.60356" lon="6.06899">
        <ele>1084.5</ele>
        <time>2011-10-15T12:14:13Z</time>
      </trkpt>
      <trkpt lat="46.6036" lon="6.06911">
        <ele>1084.02</ele>
        <time>2011-10-15T12:14:21Z</time>
      </trkpt>
      <trkpt lat="46.60361" lon="6.06915">
        <ele>1083.54</ele>
        <time>2011-10-15T12:14:23Z</time>
      </trkpt>
      <trkpt lat="46.60368" lon="6.06949">
        <ele>1084.5</ele>
        <time>2011-10-15T12:14:38Z</time>
      </trkpt>
      <trkpt lat="46.60371" lon="6.06958">
        <ele>1085.47</ele>
        <time>2011-10-15T12:14:42Z</time>
      </trkpt>
      <trkpt lat="46.60371" lon="6.0696">
        <ele>1085.47</ele>
        <time>2011-10-15T12:14:43Z</time>
      </trkpt>
      <trkpt lat="46.60371" lon="6.06962">
        <ele>1085.47</ele>
        <time>2011-10-15T12:14:44Z</time>
      </trkpt>
      <trkpt lat="46.60371" lon="6.06964">
        <ele>1085.47</ele>
        <time>2011-10-15T12:14:45Z</time>
      </trkpt>
      <trkpt lat="46.60372" lon="6.06966">
        <ele>1084.02</ele>
        <time>2011-10-15T12:14:46Z</time>
      </trkpt>
      <trkpt lat="46.60372" lon="6.06968">
        <ele>1079.7</ele>
        <time>2011-10-15T12:14:47Z</time>
      </trkpt>
      <trkpt lat="46.60373" lon="6.06969">
        <ele>1084.99</ele>
        <time>2011-10-15T12:14:48Z</time>
      </trkpt>
      <trkpt lat="46.60374" lon="6.06971">
        <ele>1084.99</ele>
        <time>2011-10-15T12:14:49Z</time>
      </trkpt>
      <trkpt lat="46.60374" lon="6.06973">
        <ele>1084.5</ele>
        <time>2011-10-15T12:14:50Z</time>
      </trkpt>
      <trkpt lat="46.60374" lon="6.06975">
        <ele>1084.99</ele>
        <time>2011-10-15T12:14:51Z</time>
      </trkpt>
      <trkpt lat="46.60375" lon="6.06976">
        <ele>1084.5</ele>
        <time>2011-10-15T12:14:52Z</time>
      </trkpt>
      <trkpt lat="46.60376" lon="6.0698">
        <ele>1084.02</ele>
        <time>2011-10-15T12:14:55Z</time>
      </trkpt>
      <trkpt lat="46.60383" lon="6.06985">
        <ele>1084.02</ele>
        <time>2011-10-15T12:15:07Z</time>
      </trkpt>
      <trkpt lat="46.60383" lon="6.06985">
        <ele>1084.02</ele>
        <time>2011-10-15T12:15:22Z</time>
      </trkpt>
      <trkpt lat="46.60383" lon="6.06984">
        <ele>1084.5</ele>
        <time>2011-10-15T12:15:44Z</time>
      </trkpt>
      <trkpt lat="46.60383" lon="6.06984">
        <ele>1084.5</ele>
        <time>2011-10-15T12:16:00Z</time>
      </trkpt>
      <trkpt lat="46.60383" lon="6.06984">
        <ele>1080.66</ele>
        <time>2011-10-15T12:16:01Z</time>
      </trkpt>
      <trkpt lat="46.60383" lon="6.06984">
        <ele>1083.54</ele>
        <time>2011-10-15T12:16:02Z</time>
      </trkpt>
      <trkpt lat="46.60383" lon="6.06984">
        <ele>1084.99</ele>
        <time>2011-10-15T12:16:07Z</time>
      </trkpt>
      <trkpt lat="46.60383" lon="6.06984">
        <ele>1084.5</ele>
        <time>2011-10-15T12:16:12Z</time>
      </trkpt>
      <trkpt lat="46.60386" lon="6.06977">
        <ele>1084.5</ele>
        <time>2011-10-15T12:16:15Z</time>
      </trkpt>
      <trkpt lat="46.60388" lon="6.06975">
        <ele>1084.5</ele>
        <time>2011-10-15T12:16:16Z</time>
      </trkpt>
      <trkpt lat="46.60389" lon="6.06973">
        <ele>1084.02</ele>
        <time>2011-10-15T12:16:17Z</time>
      </trkpt>
      <trkpt lat="46.60391" lon="6.0697">
        <ele>1085.47</ele>
        <time>2011-10-15T12:16:18Z</time>
      </trkpt>
      <trkpt lat="46.60392" lon="6.06968">
        <ele>1084.99</ele>
        <time>2011-10-15T12:16:19Z</time>
      </trkpt>
      <trkpt lat="46.60419" lon="6.06923">
        <ele>1086.43</ele>
        <time>2011-10-15T12:16:35Z</time>
      </trkpt>
      <trkpt lat="46.60434" lon="6.06906">
        <ele>1088.35</ele>
        <time>2011-10-15T12:16:45Z</time>
      </trkpt>
      <trkpt lat="46.60435" lon="6.06904">
        <ele>1088.35</ele>
        <time>2011-10-15T12:16:46Z</time>
      </trkpt>
      <trkpt lat="46.60451" lon="6.06889">
        <ele>1089.79</ele>
        <time>2011-10-15T12:16:58Z</time>
      </trkpt>
      <trkpt lat="46.60453" lon="6.06885">
        <ele>1090.27</ele>
        <time>2011-10-15T12:17:00Z</time>
      </trkpt>
      <trkpt lat="46.60463" lon="6.06868">
        <ele>1091.71</ele>
        <time>2011-10-15T12:17:07Z</time>
      </trkpt>
      <trkpt lat="46.60476" lon="6.06845">
        <ele>1094.12</ele>
        <time>2011-10-15T12:17:19Z</time>
      </trkpt>
      <trkpt lat="46.60477" lon="6.06842">
        <ele>1093.16</ele>
        <time>2011-10-15T12:17:20Z</time>
      </trkpt>
      <trkpt lat="46.60478" lon="6.0684">
        <ele>1092.2</ele>
        <time>2011-10-15T12:17:21Z</time>
      </trkpt>
      <trkpt lat="46.6048" lon="6.06836">
        <ele>1093.16</ele>
        <time>2011-10-15T12:17:24Z</time>
      </trkpt>
      <trkpt lat="46.60481" lon="6.06835">
        <ele>1093.16</ele>
        <time>2011-10-15T12:17:25Z</time>
      </trkpt>
      <trkpt lat="46.60482" lon="6.06833">
        <ele>1093.64</ele>
        <time>2011-10-15T12:17:26Z</time>
      </trkpt>
      <trkpt lat="46.60482" lon="6.06831">
        <ele>1094.6</ele>
        <time>2011-10-15T12:17:27Z</time>
      </trkpt>
      <trkpt lat="46.60483" lon="6.0683">
        <ele>1094.12</ele>
        <time>2011-10-15T12:17:28Z</time>
      </trkpt>
      <trkpt lat="46.60484" lon="6.06828">
        <ele>1094.12</ele>
        <time>2011-10-15T12:17:29Z</time>
      </trkpt>
      <trkpt lat="46.60485" lon="6.06827">
        <ele>1094.12</ele>
        <time>2011-10-15T12:17:30Z</time>
      </trkpt>
      <trkpt lat="46.60488" lon="6.06819">
        <ele>1094.6</ele>
        <time>2011-10-15T12:17:35Z</time>
      </trkpt>
      <trkpt lat="46.60489" lon="6.06815">
        <ele>1095.08</ele>
        <time>2011-10-15T12:17:37Z</time>
      </trkpt>
      <trkpt lat="46.60499" lon="6.06799">
        <ele>1096.52</ele>
        <time>2011-10-15T12:17:49Z</time>
      </trkpt>
      <trkpt lat="46.60503" lon="6.06793">
        <ele>1097</ele>
        <time>2011-10-15T12:17:53Z</time>
      </trkpt>
      <trkpt lat="46.60509" lon="6.06778">
        <ele>1097.48</ele>
        <time>2011-10-15T12:18:01Z</time>
      </trkpt>
      <trkpt lat="46.60509" lon="6.06773">
        <ele>1098.44</ele>
        <time>2011-10-15T12:18:03Z</time>
      </trkpt>
      <trkpt lat="46.60511" lon="6.06758">
        <ele>1099.4</ele>
        <time>2011-10-15T12:18:10Z</time>
      </trkpt>
      <trkpt lat="46.60512" lon="6.06756">
        <ele>1100.37</ele>
        <time>2011-10-15T12:18:11Z</time>
      </trkpt>
      <trkpt lat="46.60513" lon="6.06754">
        <ele>1099.89</ele>
        <time>2011-10-15T12:18:12Z</time>
      </trkpt>
      <trkpt lat="46.60516" lon="6.06749">
        <ele>1102.29</ele>
        <time>2011-10-15T12:18:15Z</time>
      </trkpt>
      <trkpt lat="46.60517" lon="6.06747">
        <ele>1102.29</ele>
        <time>2011-10-15T12:18:16Z</time>
      </trkpt>
      <trkpt lat="46.60523" lon="6.06737">
        <ele>1102.77</ele>
        <time>2011-10-15T12:18:22Z</time>
      </trkpt>
      <trkpt lat="46.60524" lon="6.06732">
        <ele>1103.25</ele>
        <time>2011-10-15T12:18:25Z</time>
      </trkpt>
      <trkpt lat="46.60528" lon="6.0671">
        <ele>1104.21</ele>
        <time>2011-10-15T12:18:35Z</time>
      </trkpt>
      <trkpt lat="46.60533" lon="6.06699">
        <ele>1103.25</ele>
        <time>2011-10-15T12:18:43Z</time>
      </trkpt>
      <trkpt lat="46.60537" lon="6.0668">
        <ele>1102.29</ele>
        <time>2011-10-15T12:18:51Z</time>
      </trkpt>
      <trkpt lat="46.60544" lon="6.06659">
        <ele>1099.89</ele>
        <time>2011-10-15T12:18:56Z</time>
      </trkpt>
      <trkpt lat="46.60545" lon="6.06652">
        <ele>1098.92</ele>
        <time>2011-10-15T12:18:57Z</time>
      </trkpt>
      <trkpt lat="46.60547" lon="6.06646">
        <ele>1098.44</ele>
        <time>2011-10-15T12:18:58Z</time>
      </trkpt>
      <trkpt lat="46.6055" lon="6.06639">
        <ele>1097.48</ele>
        <time>2011-10-15T12:18:59Z</time>
      </trkpt>
      <trkpt lat="46.60555" lon="6.06632">
        <ele>1097.48</ele>
        <time>2011-10-15T12:19:00Z</time>
      </trkpt>
      <trkpt lat="46.60559" lon="6.06625">
        <ele>1096.52</ele>
        <time>2011-10-15T12:19:01Z</time>
      </trkpt>
      <trkpt lat="46.60564" lon="6.06619">
        <ele>1096.52</ele>
        <time>2011-10-15T12:19:02Z</time>
      </trkpt>
      <trkpt lat="46.60569" lon="6.06613">
        <ele>1096.04</ele>
        <time>2011-10-15T12:19:03Z</time>
      </trkpt>
      <trkpt lat="46.60575" lon="6.06602">
        <ele>1095.08</ele>
        <time>2011-10-15T12:19:05Z</time>
      </trkpt>
      <trkpt lat="46.60578" lon="6.06595">
        <ele>1095.08</ele>
        <time>2011-10-15T12:19:06Z</time>
      </trkpt>
      <trkpt lat="46.60581" lon="6.06587">
        <ele>1094.12</ele>
        <time>2011-10-15T12:19:07Z</time>
      </trkpt>
      <trkpt lat="46.60584" lon="6.06567">
        <ele>1093.64</ele>
        <time>2011-10-15T12:19:09Z</time>
      </trkpt>
      <trkpt lat="46.60588" lon="6.06549">
        <ele>1092.68</ele>
        <time>2011-10-15T12:19:11Z</time>
      </trkpt>
      <trkpt lat="46.60591" lon="6.06542">
        <ele>1093.16</ele>
        <time>2011-10-15T12:19:12Z</time>
      </trkpt>
      <trkpt lat="46.60594" lon="6.06534">
        <ele>1093.64</ele>
        <time>2011-10-15T12:19:13Z</time>
      </trkpt>
      <trkpt lat="46.60597" lon="6.06527">
        <ele>1093.16</ele>
        <time>2011-10-15T12:19:14Z</time>
      </trkpt>
      <trkpt lat="46.60599" lon="6.06522">
        <ele>1093.64</ele>
        <time>2011-10-15T12:19:15Z</time>
      </trkpt>
      <trkpt lat="46.60602" lon="6.06516">
        <ele>1094.12</ele>
        <time>2011-10-15T12:19:16Z</time>
      </trkpt>
      <trkpt lat="46.60615" lon="6.06463">
        <ele>1093.16</ele>
        <time>2011-10-15T12:19:27Z</time>
      </trkpt>
      <trkpt lat="46.60621" lon="6.06453">
        <ele>1095.08</ele>
        <time>2011-10-15T12:19:30Z</time>
      </trkpt>
      <trkpt lat="46.60626" lon="6.06439">
        <ele>1096.04</ele>
        <time>2011-10-15T12:19:34Z</time>
      </trkpt>
      <trkpt lat="46.60628" lon="6.06435">
        <ele>1095.08</ele>
        <time>2011-10-15T12:19:35Z</time>
      </trkpt>
      <trkpt lat="46.6063" lon="6.06433">
        <ele>1096.04</ele>
        <time>2011-10-15T12:19:36Z</time>
      </trkpt>
      <trkpt lat="46.60632" lon="6.06429">
        <ele>1095.56</ele>
        <time>2011-10-15T12:19:37Z</time>
      </trkpt>
      <trkpt lat="46.60633" lon="6.06425">
        <ele>1095.56</ele>
        <time>2011-10-15T12:19:38Z</time>
      </trkpt>
      <trkpt lat="46.60635" lon="6.0642">
        <ele>1095.08</ele>
        <time>2011-10-15T12:19:39Z</time>
      </trkpt>
      <trkpt lat="46.60637" lon="6.06416">
        <ele>1094.6</ele>
        <time>2011-10-15T12:19:40Z</time>
      </trkpt>
      <trkpt lat="46.6065" lon="6.06384">
        <ele>1095.08</ele>
        <time>2011-10-15T12:19:50Z</time>
      </trkpt>
      <trkpt lat="46.60653" lon="6.06379">
        <ele>1094.6</ele>
        <time>2011-10-15T12:19:54Z</time>
      </trkpt>
      <trkpt lat="46.60655" lon="6.06378">
        <ele>1095.08</ele>
        <time>2011-10-15T12:19:55Z</time>
      </trkpt>
      <trkpt lat="46.60658" lon="6.06375">
        <ele>1095.56</ele>
        <time>2011-10-15T12:20:11Z</time>
      </trkpt>
      <trkpt lat="46.60666" lon="6.06366">
        <ele>1095.56</ele>
        <time>2011-10-15T12:20:18Z</time>
      </trkpt>
      <trkpt lat="46.6067" lon="6.06362">
        <ele>1095.56</ele>
        <time>2011-10-15T12:20:19Z</time>
      </trkpt>
      <trkpt lat="46.60672" lon="6.06359">
        <ele>1096.04</ele>
        <time>2011-10-15T12:20:20Z</time>
      </trkpt>
      <trkpt lat="46.6069" lon="6.06346">
        <ele>1097.48</ele>
        <time>2011-10-15T12:20:25Z</time>
      </trkpt>
      <trkpt lat="46.60696" lon="6.06343">
        <ele>1098.92</ele>
        <time>2011-10-15T12:20:27Z</time>
      </trkpt>
      <trkpt lat="46.60699" lon="6.06343">
        <ele>1099.4</ele>
        <time>2011-10-15T12:20:28Z</time>
      </trkpt>
      <trkpt lat="46.60706" lon="6.0634">
        <ele>1100.85</ele>
        <time>2011-10-15T12:20:31Z</time>
      </trkpt>
      <trkpt lat="46.60707" lon="6.06338">
        <ele>1100.85</ele>
        <time>2011-10-15T12:20:32Z</time>
      </trkpt>
      <trkpt lat="46.6071" lon="6.06336">
        <ele>1101.33</ele>
        <time>2011-10-15T12:20:33Z</time>
      </trkpt>
      <trkpt lat="46.60712" lon="6.06333">
        <ele>1101.81</ele>
        <time>2011-10-15T12:20:34Z</time>
      </trkpt>
      <trkpt lat="46.60715" lon="6.06332">
        <ele>1102.29</ele>
        <time>2011-10-15T12:20:35Z</time>
      </trkpt>
      <trkpt lat="46.60717" lon="6.06331">
        <ele>1102.29</ele>
        <time>2011-10-15T12:20:36Z</time>
      </trkpt>
      <trkpt lat="46.60719" lon="6.06331">
        <ele>1102.29</ele>
        <time>2011-10-15T12:20:37Z</time>
      </trkpt>
      <trkpt lat="46.60721" lon="6.0633">
        <ele>1102.29</ele>
        <time>2011-10-15T12:20:38Z</time>
      </trkpt>
      <trkpt lat="46.60723" lon="6.0633">
        <ele>1102.77</ele>
        <time>2011-10-15T12:20:39Z</time>
      </trkpt>
      <trkpt lat="46.60725" lon="6.06329">
        <ele>1102.77</ele>
        <time>2011-10-15T12:20:40Z</time>
      </trkpt>
      <trkpt lat="46.60727" lon="6.06328">
        <ele>1102.29</ele>
        <time>2011-10-15T12:20:41Z</time>
      </trkpt>
      <trkpt lat="46.60751" lon="6.06317">
        <ele>1102.77</ele>
        <time>2011-10-15T12:20:55Z</time>
      </trkpt>
      <trkpt lat="46.60773" lon="6.06305">
        <ele>1101.33</ele>
        <time>2011-10-15T12:21:07Z</time>
      </trkpt>
      <trkpt lat="46.60782" lon="6.063">
        <ele>1102.77</ele>
        <time>2011-10-15T12:21:12Z</time>
      </trkpt>
      <trkpt lat="46.60784" lon="6.063">
        <ele>1103.25</ele>
        <time>2011-10-15T12:21:13Z</time>
      </trkpt>
      <trkpt lat="46.60803" lon="6.0628">
        <ele>1106.13</ele>
        <time>2011-10-15T12:21:24Z</time>
      </trkpt>
      <trkpt lat="46.60811" lon="6.06271">
        <ele>1105.17</ele>
        <time>2011-10-15T12:21:29Z</time>
      </trkpt>
      <trkpt lat="46.60813" lon="6.0627">
        <ele>1105.17</ele>
        <time>2011-10-15T12:21:30Z</time>
      </trkpt>
      <trkpt lat="46.60815" lon="6.06268">
        <ele>1105.65</ele>
        <time>2011-10-15T12:21:31Z</time>
      </trkpt>
      <trkpt lat="46.60816" lon="6.06266">
        <ele>1105.65</ele>
        <time>2011-10-15T12:21:32Z</time>
      </trkpt>
      <trkpt lat="46.60818" lon="6.06264">
        <ele>1106.13</ele>
        <time>2011-10-15T12:21:33Z</time>
      </trkpt>
      <trkpt lat="46.60819" lon="6.06261">
        <ele>1106.61</ele>
        <time>2011-10-15T12:21:34Z</time>
      </trkpt>
      <trkpt lat="46.60821" lon="6.06258">
        <ele>1107.1</ele>
        <time>2011-10-15T12:21:35Z</time>
      </trkpt>
      <trkpt lat="46.60822" lon="6.06256">
        <ele>1106.61</ele>
        <time>2011-10-15T12:21:36Z</time>
      </trkpt>
      <trkpt lat="46.60823" lon="6.06254">
        <ele>1106.61</ele>
        <time>2011-10-15T12:21:37Z</time>
      </trkpt>
      <trkpt lat="46.60825" lon="6.06252">
        <ele>1105.65</ele>
        <time>2011-10-15T12:21:38Z</time>
      </trkpt>
      <trkpt lat="46.60826" lon="6.0625">
        <ele>1106.13</ele>
        <time>2011-10-15T12:21:39Z</time>
      </trkpt>
      <trkpt lat="46.60828" lon="6.06248">
        <ele>1106.61</ele>
        <time>2011-10-15T12:21:40Z</time>
      </trkpt>
      <trkpt lat="46.60829" lon="6.06244">
        <ele>1106.61</ele>
        <time>2011-10-15T12:21:42Z</time>
      </trkpt>
      <trkpt lat="46.60829" lon="6.06242">
        <ele>1106.61</ele>
        <time>2011-10-15T12:21:43Z</time>
      </trkpt>
      <trkpt lat="46.6083" lon="6.06239">
        <ele>1105.65</ele>
        <time>2011-10-15T12:21:44Z</time>
      </trkpt>
      <trkpt lat="46.60831" lon="6.06237">
        <ele>1106.13</ele>
        <time>2011-10-15T12:21:45Z</time>
      </trkpt>
      <trkpt lat="46.60832" lon="6.06234">
        <ele>1106.61</ele>
        <time>2011-10-15T12:21:46Z</time>
      </trkpt>
      <trkpt lat="46.60832" lon="6.06231">
        <ele>1107.1</ele>
        <time>2011-10-15T12:21:47Z</time>
      </trkpt>
      <trkpt lat="46.60833" lon="6.06229">
        <ele>1107.58</ele>
        <time>2011-10-15T12:21:48Z</time>
      </trkpt>
      <trkpt lat="46.60833" lon="6.06225">
        <ele>1106.61</ele>
        <time>2011-10-15T12:21:49Z</time>
      </trkpt>
      <trkpt lat="46.60834" lon="6.06223">
        <ele>1107.1</ele>
        <time>2011-10-15T12:21:50Z</time>
      </trkpt>
      <trkpt lat="46.60835" lon="6.06217">
        <ele>1107.58</ele>
        <time>2011-10-15T12:21:53Z</time>
      </trkpt>
      <trkpt lat="46.60835" lon="6.06215">
        <ele>1106.61</ele>
        <time>2011-10-15T12:21:54Z</time>
      </trkpt>
      <trkpt lat="46.60835" lon="6.06213">
        <ele>1106.61</ele>
        <time>2011-10-15T12:21:55Z</time>
      </trkpt>
      <trkpt lat="46.60835" lon="6.06211">
        <ele>1107.58</ele>
        <time>2011-10-15T12:21:56Z</time>
      </trkpt>
      <trkpt lat="46.60835" lon="6.06208">
        <ele>1107.58</ele>
        <time>2011-10-15T12:21:57Z</time>
      </trkpt>
      <trkpt lat="46.60835" lon="6.06206">
        <ele>1107.1</ele>
        <time>2011-10-15T12:21:58Z</time>
      </trkpt>
      <trkpt lat="46.60835" lon="6.06204">
        <ele>1107.1</ele>
        <time>2011-10-15T12:21:59Z</time>
      </trkpt>
      <trkpt lat="46.60836" lon="6.06201">
        <ele>1107.58</ele>
        <time>2011-10-15T12:22:00Z</time>
      </trkpt>
      <trkpt lat="46.60836" lon="6.06199">
        <ele>1106.61</ele>
        <time>2011-10-15T12:22:01Z</time>
      </trkpt>
      <trkpt lat="46.60836" lon="6.06196">
        <ele>1107.58</ele>
        <time>2011-10-15T12:22:02Z</time>
      </trkpt>
      <trkpt lat="46.60837" lon="6.06194">
        <ele>1107.58</ele>
        <time>2011-10-15T12:22:03Z</time>
      </trkpt>
      <trkpt lat="46.60837" lon="6.06191">
        <ele>1108.06</ele>
        <time>2011-10-15T12:22:04Z</time>
      </trkpt>
      <trkpt lat="46.60837" lon="6.06188">
        <ele>1107.58</ele>
        <time>2011-10-15T12:22:05Z</time>
      </trkpt>
      <trkpt lat="46.60837" lon="6.06185">
        <ele>1108.54</ele>
        <time>2011-10-15T12:22:06Z</time>
      </trkpt>
      <trkpt lat="46.60838" lon="6.06183">
        <ele>1108.54</ele>
        <time>2011-10-15T12:22:07Z</time>
      </trkpt>
      <trkpt lat="46.60846" lon="6.06145">
        <ele>1110.46</ele>
        <time>2011-10-15T12:22:21Z</time>
      </trkpt>
      <trkpt lat="46.60847" lon="6.06143">
        <ele>1109.98</ele>
        <time>2011-10-15T12:22:22Z</time>
      </trkpt>
      <trkpt lat="46.60847" lon="6.0614">
        <ele>1109.5</ele>
        <time>2011-10-15T12:22:23Z</time>
      </trkpt>
      <trkpt lat="46.60848" lon="6.06138">
        <ele>1109.98</ele>
        <time>2011-10-15T12:22:24Z</time>
      </trkpt>
      <trkpt lat="46.60849" lon="6.06136">
        <ele>1110.46</ele>
        <time>2011-10-15T12:22:25Z</time>
      </trkpt>
      <trkpt lat="46.6085" lon="6.06133">
        <ele>1110.94</ele>
        <time>2011-10-15T12:22:26Z</time>
      </trkpt>
      <trkpt lat="46.60852" lon="6.06123">
        <ele>1110.46</ele>
        <time>2011-10-15T12:22:31Z</time>
      </trkpt>
      <trkpt lat="46.60853" lon="6.06121">
        <ele>1111.9</ele>
        <time>2011-10-15T12:22:32Z</time>
      </trkpt>
      <trkpt lat="46.60854" lon="6.06119">
        <ele>1111.9</ele>
        <time>2011-10-15T12:22:33Z</time>
      </trkpt>
      <trkpt lat="46.60863" lon="6.06093">
        <ele>1111.9</ele>
        <time>2011-10-15T12:22:46Z</time>
      </trkpt>
      <trkpt lat="46.60873" lon="6.06052">
        <ele>1113.34</ele>
        <time>2011-10-15T12:23:00Z</time>
      </trkpt>
      <trkpt lat="46.60876" lon="6.06046">
        <ele>1113.82</ele>
        <time>2011-10-15T12:23:03Z</time>
      </trkpt>
      <trkpt lat="46.6088" lon="6.06028">
        <ele>1115.75</ele>
        <time>2011-10-15T12:23:10Z</time>
      </trkpt>
      <trkpt lat="46.60881" lon="6.06025">
        <ele>1115.27</ele>
        <time>2011-10-15T12:23:11Z</time>
      </trkpt>
      <trkpt lat="46.60887" lon="6.0601">
        <ele>1115.27</ele>
        <time>2011-10-15T12:23:18Z</time>
      </trkpt>
      <trkpt lat="46.60887" lon="6.06006">
        <ele>1116.71</ele>
        <time>2011-10-15T12:23:19Z</time>
      </trkpt>
      <trkpt lat="46.60899" lon="6.05961">
        <ele>1117.19</ele>
        <time>2011-10-15T12:23:33Z</time>
      </trkpt>
      <trkpt lat="46.60894" lon="6.05911">
        <ele>1117.19</ele>
        <time>2011-10-15T12:23:45Z</time>
      </trkpt>
      <trkpt lat="46.60896" lon="6.05877">
        <ele>1119.59</ele>
        <time>2011-10-15T12:23:57Z</time>
      </trkpt>
      <trkpt lat="46.60895" lon="6.05875">
        <ele>1119.11</ele>
        <time>2011-10-15T12:23:58Z</time>
      </trkpt>
      <trkpt lat="46.60896" lon="6.05871">
        <ele>1120.55</ele>
        <time>2011-10-15T12:23:59Z</time>
      </trkpt>
      <trkpt lat="46.60896" lon="6.05867">
        <ele>1119.11</ele>
        <time>2011-10-15T12:24:00Z</time>
      </trkpt>
      <trkpt lat="46.60897" lon="6.05864">
        <ele>1120.55</ele>
        <time>2011-10-15T12:24:01Z</time>
      </trkpt>
      <trkpt lat="46.60898" lon="6.05861">
        <ele>1119.59</ele>
        <time>2011-10-15T12:24:02Z</time>
      </trkpt>
      <trkpt lat="46.60899" lon="6.05859">
        <ele>1120.07</ele>
        <time>2011-10-15T12:24:03Z</time>
      </trkpt>
      <trkpt lat="46.60899" lon="6.05856">
        <ele>1120.07</ele>
        <time>2011-10-15T12:24:04Z</time>
      </trkpt>
      <trkpt lat="46.609" lon="6.05853">
        <ele>1120.07</ele>
        <time>2011-10-15T12:24:05Z</time>
      </trkpt>
      <trkpt lat="46.609" lon="6.0585">
        <ele>1120.55</ele>
        <time>2011-10-15T12:24:06Z</time>
      </trkpt>
      <trkpt lat="46.60901" lon="6.05847">
        <ele>1120.55</ele>
        <time>2011-10-15T12:24:07Z</time>
      </trkpt>
      <trkpt lat="46.60902" lon="6.05845">
        <ele>1121.03</ele>
        <time>2011-10-15T12:24:08Z</time>
      </trkpt>
      <trkpt lat="46.60902" lon="6.05842">
        <ele>1120.55</ele>
        <time>2011-10-15T12:24:09Z</time>
      </trkpt>
      <trkpt lat="46.60903" lon="6.0584">
        <ele>1120.07</ele>
        <time>2011-10-15T12:24:10Z</time>
      </trkpt>
      <trkpt lat="46.60904" lon="6.05837">
        <ele>1121.52</ele>
        <time>2011-10-15T12:24:11Z</time>
      </trkpt>
      <trkpt lat="46.60905" lon="6.05835">
        <ele>1121.03</ele>
        <time>2011-10-15T12:24:12Z</time>
      </trkpt>
      <trkpt lat="46.60906" lon="6.05833">
        <ele>1121.52</ele>
        <time>2011-10-15T12:24:13Z</time>
      </trkpt>
      <trkpt lat="46.60907" lon="6.0583">
        <ele>1122</ele>
        <time>2011-10-15T12:24:14Z</time>
      </trkpt>
      <trkpt lat="46.60907" lon="6.05827">
        <ele>1122</ele>
        <time>2011-10-15T12:24:15Z</time>
      </trkpt>
      <trkpt lat="46.60909" lon="6.05824">
        <ele>1122</ele>
        <time>2011-10-15T12:24:16Z</time>
      </trkpt>
      <trkpt lat="46.6091" lon="6.05822">
        <ele>1121.52</ele>
        <time>2011-10-15T12:24:17Z</time>
      </trkpt>
      <trkpt lat="46.60911" lon="6.05819">
        <ele>1121.52</ele>
        <time>2011-10-15T12:24:18Z</time>
      </trkpt>
      <trkpt lat="46.60912" lon="6.05816">
        <ele>1122.48</ele>
        <time>2011-10-15T12:24:19Z</time>
      </trkpt>
      <trkpt lat="46.60927" lon="6.05772">
        <ele>1123.92</ele>
        <time>2011-10-15T12:24:34Z</time>
      </trkpt>
      <trkpt lat="46.60936" lon="6.05735">
        <ele>1124.4</ele>
        <time>2011-10-15T12:24:44Z</time>
      </trkpt>
      <trkpt lat="46.60932" lon="6.05692">
        <ele>1125.36</ele>
        <time>2011-10-15T12:24:53Z</time>
      </trkpt>
      <trkpt lat="46.60918" lon="6.0566">
        <ele>1125.84</ele>
        <time>2011-10-15T12:25:03Z</time>
      </trkpt>
      <trkpt lat="46.60903" lon="6.0562">
        <ele>1125.36</ele>
        <time>2011-10-15T12:25:13Z</time>
      </trkpt>
      <trkpt lat="46.60893" lon="6.05571">
        <ele>1127.76</ele>
        <time>2011-10-15T12:25:23Z</time>
      </trkpt>
      <trkpt lat="46.60892" lon="6.05567">
        <ele>1127.76</ele>
        <time>2011-10-15T12:25:24Z</time>
      </trkpt>
      <trkpt lat="46.60892" lon="6.05563">
        <ele>1128.24</ele>
        <time>2011-10-15T12:25:25Z</time>
      </trkpt>
      <trkpt lat="46.60893" lon="6.0552">
        <ele>1128.24</ele>
        <time>2011-10-15T12:25:35Z</time>
      </trkpt>
      <trkpt lat="46.60894" lon="6.05499">
        <ele>1130.17</ele>
        <time>2011-10-15T12:25:41Z</time>
      </trkpt>
      <trkpt lat="46.60894" lon="6.05486">
        <ele>1131.13</ele>
        <time>2011-10-15T12:25:45Z</time>
      </trkpt>
      <trkpt lat="46.60895" lon="6.05483">
        <ele>1130.65</ele>
        <time>2011-10-15T12:25:46Z</time>
      </trkpt>
      <trkpt lat="46.60894" lon="6.0548">
        <ele>1131.13</ele>
        <time>2011-10-15T12:25:47Z</time>
      </trkpt>
      <trkpt lat="46.60894" lon="6.05477">
        <ele>1131.61</ele>
        <time>2011-10-15T12:25:48Z</time>
      </trkpt>
      <trkpt lat="46.60895" lon="6.05473">
        <ele>1131.61</ele>
        <time>2011-10-15T12:25:49Z</time>
      </trkpt>
      <trkpt lat="46.60895" lon="6.05467">
        <ele>1132.09</ele>
        <time>2011-10-15T12:25:51Z</time>
      </trkpt>
      <trkpt lat="46.60895" lon="6.05463">
        <ele>1132.09</ele>
        <time>2011-10-15T12:25:52Z</time>
      </trkpt>
      <trkpt lat="46.60894" lon="6.05461">
        <ele>1132.09</ele>
        <time>2011-10-15T12:25:53Z</time>
      </trkpt>
      <trkpt lat="46.60895" lon="6.05458">
        <ele>1131.61</ele>
        <time>2011-10-15T12:25:54Z</time>
      </trkpt>
      <trkpt lat="46.60895" lon="6.05455">
        <ele>1131.61</ele>
        <time>2011-10-15T12:25:55Z</time>
      </trkpt>
      <trkpt lat="46.60895" lon="6.05453">
        <ele>1131.61</ele>
        <time>2011-10-15T12:25:56Z</time>
      </trkpt>
      <trkpt lat="46.60895" lon="6.0545">
        <ele>1131.13</ele>
        <time>2011-10-15T12:25:57Z</time>
      </trkpt>
      <trkpt lat="46.60895" lon="6.05447">
        <ele>1131.61</ele>
        <time>2011-10-15T12:25:58Z</time>
      </trkpt>
      <trkpt lat="46.60894" lon="6.05443">
        <ele>1131.13</ele>
        <time>2011-10-15T12:25:59Z</time>
      </trkpt>
      <trkpt lat="46.60893" lon="6.05439">
        <ele>1130.65</ele>
        <time>2011-10-15T12:26:00Z</time>
      </trkpt>
      <trkpt lat="46.60893" lon="6.05434">
        <ele>1130.65</ele>
        <time>2011-10-15T12:26:01Z</time>
      </trkpt>
      <trkpt lat="46.60891" lon="6.0543">
        <ele>1131.13</ele>
        <time>2011-10-15T12:26:03Z</time>
      </trkpt>
      <trkpt lat="46.60889" lon="6.05429">
        <ele>1129.69</ele>
        <time>2011-10-15T12:26:04Z</time>
      </trkpt>
      <trkpt lat="46.60886" lon="6.05428">
        <ele>1128.73</ele>
        <time>2011-10-15T12:26:05Z</time>
      </trkpt>
      <trkpt lat="46.60876" lon="6.05427">
        <ele>1127.28</ele>
        <time>2011-10-15T12:26:07Z</time>
      </trkpt>
      <trkpt lat="46.60868" lon="6.05424">
        <ele>1127.28</ele>
        <time>2011-10-15T12:26:08Z</time>
      </trkpt>
      <trkpt lat="46.60861" lon="6.0542">
        <ele>1126.32</ele>
        <time>2011-10-15T12:26:09Z</time>
      </trkpt>
      <trkpt lat="46.60855" lon="6.05415">
        <ele>1127.28</ele>
        <time>2011-10-15T12:26:10Z</time>
      </trkpt>
      <trkpt lat="46.60851" lon="6.05409">
        <ele>1127.28</ele>
        <time>2011-10-15T12:26:11Z</time>
      </trkpt>
      <trkpt lat="46.60847" lon="6.05404">
        <ele>1126.8</ele>
        <time>2011-10-15T12:26:12Z</time>
      </trkpt>
      <trkpt lat="46.60844" lon="6.05398">
        <ele>1126.8</ele>
        <time>2011-10-15T12:26:13Z</time>
      </trkpt>
      <trkpt lat="46.60842" lon="6.05393">
        <ele>1127.28</ele>
        <time>2011-10-15T12:26:14Z</time>
      </trkpt>
      <trkpt lat="46.60841" lon="6.05389">
        <ele>1127.76</ele>
        <time>2011-10-15T12:26:15Z</time>
      </trkpt>
      <trkpt lat="46.6084" lon="6.05384">
        <ele>1127.28</ele>
        <time>2011-10-15T12:26:16Z</time>
      </trkpt>
      <trkpt lat="46.60838" lon="6.0538">
        <ele>1127.76</ele>
        <time>2011-10-15T12:26:17Z</time>
      </trkpt>
      <trkpt lat="46.60836" lon="6.05375">
        <ele>1128.24</ele>
        <time>2011-10-15T12:26:18Z</time>
      </trkpt>
      <trkpt lat="46.60834" lon="6.05371">
        <ele>1127.76</ele>
        <time>2011-10-15T12:26:19Z</time>
      </trkpt>
      <trkpt lat="46.60814" lon="6.05338">
        <ele>1128.24</ele>
        <time>2011-10-15T12:26:28Z</time>
      </trkpt>
      <trkpt lat="46.60813" lon="6.05335">
        <ele>1128.73</ele>
        <time>2011-10-15T12:26:29Z</time>
      </trkpt>
      <trkpt lat="46.60802" lon="6.0531">
        <ele>1128.73</ele>
        <time>2011-10-15T12:26:36Z</time>
      </trkpt>
      <trkpt lat="46.60791" lon="6.05295">
        <ele>1121.03</ele>
        <time>2011-10-15T12:26:43Z</time>
      </trkpt>
      <trkpt lat="46.60789" lon="6.05294">
        <ele>1128.73</ele>
        <time>2011-10-15T12:26:44Z</time>
      </trkpt>
      <trkpt lat="46.60782" lon="6.05288">
        <ele>1129.21</ele>
        <time>2011-10-15T12:26:49Z</time>
      </trkpt>
      <trkpt lat="46.60781" lon="6.05286">
        <ele>1128.24</ele>
        <time>2011-10-15T12:26:50Z</time>
      </trkpt>
      <trkpt lat="46.60779" lon="6.05283">
        <ele>1127.28</ele>
        <time>2011-10-15T12:26:51Z</time>
      </trkpt>
      <trkpt lat="46.60777" lon="6.0528">
        <ele>1128.73</ele>
        <time>2011-10-15T12:26:52Z</time>
      </trkpt>
      <trkpt lat="46.60776" lon="6.05278">
        <ele>1128.24</ele>
        <time>2011-10-15T12:26:53Z</time>
      </trkpt>
      <trkpt lat="46.60775" lon="6.05276">
        <ele>1128.24</ele>
        <time>2011-10-15T12:26:54Z</time>
      </trkpt>
      <trkpt lat="46.60775" lon="6.05273">
        <ele>1127.76</ele>
        <time>2011-10-15T12:26:55Z</time>
      </trkpt>
      <trkpt lat="46.60774" lon="6.05271">
        <ele>1127.76</ele>
        <time>2011-10-15T12:26:56Z</time>
      </trkpt>
      <trkpt lat="46.60771" lon="6.05255">
        <ele>1126.32</ele>
        <time>2011-10-15T12:27:00Z</time>
      </trkpt>
      <trkpt lat="46.60771" lon="6.05245">
        <ele>1126.8</ele>
        <time>2011-10-15T12:27:02Z</time>
      </trkpt>
      <trkpt lat="46.60774" lon="6.05235">
        <ele>1125.36</ele>
        <time>2011-10-15T12:27:04Z</time>
      </trkpt>
      <trkpt lat="46.60776" lon="6.05233">
        <ele>1125.84</ele>
        <time>2011-10-15T12:27:05Z</time>
      </trkpt>
      <trkpt lat="46.60779" lon="6.05228">
        <ele>1124.4</ele>
        <time>2011-10-15T12:27:07Z</time>
      </trkpt>
      <trkpt lat="46.60779" lon="6.05224">
        <ele>1124.4</ele>
        <time>2011-10-15T12:27:08Z</time>
      </trkpt>
      <trkpt lat="46.6078" lon="6.0522">
        <ele>1123.44</ele>
        <time>2011-10-15T12:27:09Z</time>
      </trkpt>
      <trkpt lat="46.60781" lon="6.05217">
        <ele>1122.96</ele>
        <time>2011-10-15T12:27:10Z</time>
      </trkpt>
      <trkpt lat="46.60786" lon="6.05206">
        <ele>1121.03</ele>
        <time>2011-10-15T12:27:13Z</time>
      </trkpt>
      <trkpt lat="46.608" lon="6.05196">
        <ele>1122.48</ele>
        <time>2011-10-15T12:27:22Z</time>
      </trkpt>
      <trkpt lat="46.60803" lon="6.05196">
        <ele>1122</ele>
        <time>2011-10-15T12:27:23Z</time>
      </trkpt>
      <trkpt lat="46.60807" lon="6.05196">
        <ele>1122</ele>
        <time>2011-10-15T12:27:25Z</time>
      </trkpt>
      <trkpt lat="46.60813" lon="6.0519">
        <ele>1122.96</ele>
        <time>2011-10-15T12:27:30Z</time>
      </trkpt>
      <trkpt lat="46.60819" lon="6.05183">
        <ele>1122.96</ele>
        <time>2011-10-15T12:27:40Z</time>
      </trkpt>
      <trkpt lat="46.60819" lon="6.05183">
        <ele>1122</ele>
        <time>2011-10-15T12:27:42Z</time>
      </trkpt>
      <trkpt lat="46.6082" lon="6.05178">
        <ele>1122.48</ele>
        <time>2011-10-15T12:27:44Z</time>
      </trkpt>
      <trkpt lat="46.60821" lon="6.05176">
        <ele>1122.48</ele>
        <time>2011-10-15T12:27:45Z</time>
      </trkpt>
      <trkpt lat="46.60823" lon="6.05175">
        <ele>1122.48</ele>
        <time>2011-10-15T12:27:46Z</time>
      </trkpt>
      <trkpt lat="46.60825" lon="6.05174">
        <ele>1122.96</ele>
        <time>2011-10-15T12:27:47Z</time>
      </trkpt>
      <trkpt lat="46.60826" lon="6.05172">
        <ele>1122.96</ele>
        <time>2011-10-15T12:27:48Z</time>
      </trkpt>
      <trkpt lat="46.60826" lon="6.0517">
        <ele>1122.96</ele>
        <time>2011-10-15T12:27:49Z</time>
      </trkpt>
      <trkpt lat="46.60828" lon="6.05163">
        <ele>1123.92</ele>
        <time>2011-10-15T12:27:53Z</time>
      </trkpt>
      <trkpt lat="46.60827" lon="6.0516">
        <ele>1123.92</ele>
        <time>2011-10-15T12:27:54Z</time>
      </trkpt>
      <trkpt lat="46.60821" lon="6.05135">
        <ele>1125.84</ele>
        <time>2011-10-15T12:28:07Z</time>
      </trkpt>
      <trkpt lat="46.60818" lon="6.0513">
        <ele>1119.11</ele>
        <time>2011-10-15T12:28:10Z</time>
      </trkpt>
      <trkpt lat="46.60817" lon="6.05128">
        <ele>1124.88</ele>
        <time>2011-10-15T12:28:11Z</time>
      </trkpt>
      <trkpt lat="46.60808" lon="6.05113">
        <ele>1125.84</ele>
        <time>2011-10-15T12:28:21Z</time>
      </trkpt>
      <trkpt lat="46.60796" lon="6.05102">
        <ele>1125.36</ele>
        <time>2011-10-15T12:28:28Z</time>
      </trkpt>
      <trkpt lat="46.6079" lon="6.0509">
        <ele>1125.36</ele>
        <time>2011-10-15T12:28:37Z</time>
      </trkpt>
      <trkpt lat="46.60789" lon="6.05082">
        <ele>1126.32</ele>
        <time>2011-10-15T12:28:41Z</time>
      </trkpt>
      <trkpt lat="46.60788" lon="6.05081">
        <ele>1126.32</ele>
        <time>2011-10-15T12:28:42Z</time>
      </trkpt>
      <trkpt lat="46.60788" lon="6.05077">
        <ele>1126.32</ele>
        <time>2011-10-15T12:28:44Z</time>
      </trkpt>
      <trkpt lat="46.60786" lon="6.05073">
        <ele>1126.32</ele>
        <time>2011-10-15T12:28:46Z</time>
      </trkpt>
      <trkpt lat="46.60784" lon="6.0507">
        <ele>1126.32</ele>
        <time>2011-10-15T12:28:47Z</time>
      </trkpt>
      <trkpt lat="46.60784" lon="6.05067">
        <ele>1126.8</ele>
        <time>2011-10-15T12:28:48Z</time>
      </trkpt>
      <trkpt lat="46.60783" lon="6.05064">
        <ele>1127.28</ele>
        <time>2011-10-15T12:28:49Z</time>
      </trkpt>
      <trkpt lat="46.60783" lon="6.05055">
        <ele>1127.28</ele>
        <time>2011-10-15T12:28:53Z</time>
      </trkpt>
      <trkpt lat="46.60785" lon="6.05035">
        <ele>1127.28</ele>
        <time>2011-10-15T12:29:03Z</time>
      </trkpt>
      <trkpt lat="46.60787" lon="6.05023">
        <ele>1127.28</ele>
        <time>2011-10-15T12:29:08Z</time>
      </trkpt>
      <trkpt lat="46.6079" lon="6.05015">
        <ele>1128.24</ele>
        <time>2011-10-15T12:29:17Z</time>
      </trkpt>
      <trkpt lat="46.6079" lon="6.05007">
        <ele>1128.73</ele>
        <time>2011-10-15T12:29:21Z</time>
      </trkpt>
      <trkpt lat="46.6079" lon="6.05005">
        <ele>1128.24</ele>
        <time>2011-10-15T12:29:22Z</time>
      </trkpt>
      <trkpt lat="46.60791" lon="6.05004">
        <ele>1128.73</ele>
        <time>2011-10-15T12:29:23Z</time>
      </trkpt>
      <trkpt lat="46.60795" lon="6.04994">
        <ele>1129.21</ele>
        <time>2011-10-15T12:29:30Z</time>
      </trkpt>
      <trkpt lat="46.60795" lon="6.04992">
        <ele>1129.21</ele>
        <time>2011-10-15T12:29:31Z</time>
      </trkpt>
      <trkpt lat="46.60795" lon="6.0499">
        <ele>1128.73</ele>
        <time>2011-10-15T12:29:32Z</time>
      </trkpt>
      <trkpt lat="46.60796" lon="6.04982">
        <ele>1129.69</ele>
        <time>2011-10-15T12:29:36Z</time>
      </trkpt>
      <trkpt lat="46.60796" lon="6.04979">
        <ele>1129.69</ele>
        <time>2011-10-15T12:29:37Z</time>
      </trkpt>
      <trkpt lat="46.60796" lon="6.04977">
        <ele>1130.17</ele>
        <time>2011-10-15T12:29:38Z</time>
      </trkpt>
      <trkpt lat="46.60796" lon="6.04975">
        <ele>1130.17</ele>
        <time>2011-10-15T12:29:39Z</time>
      </trkpt>
      <trkpt lat="46.60796" lon="6.0497">
        <ele>1130.65</ele>
        <time>2011-10-15T12:29:54Z</time>
      </trkpt>
      <trkpt lat="46.60796" lon="6.0496">
        <ele>1130.17</ele>
        <time>2011-10-15T12:30:20Z</time>
      </trkpt>
      <trkpt lat="46.60795" lon="6.04957">
        <ele>1130.65</ele>
        <time>2011-10-15T12:30:21Z</time>
      </trkpt>
      <trkpt lat="46.60796" lon="6.04955">
        <ele>1130.65</ele>
        <time>2011-10-15T12:30:22Z</time>
      </trkpt>
      <trkpt lat="46.60796" lon="6.04953">
        <ele>1131.13</ele>
        <time>2011-10-15T12:30:23Z</time>
      </trkpt>
      <trkpt lat="46.60797" lon="6.04951">
        <ele>1131.61</ele>
        <time>2011-10-15T12:30:24Z</time>
      </trkpt>
      <trkpt lat="46.60798" lon="6.04943">
        <ele>1132.09</ele>
        <time>2011-10-15T12:30:28Z</time>
      </trkpt>
      <trkpt lat="46.60798" lon="6.04941">
        <ele>1131.13</ele>
        <time>2011-10-15T12:30:29Z</time>
      </trkpt>
      <trkpt lat="46.60799" lon="6.04939">
        <ele>1132.57</ele>
        <time>2011-10-15T12:30:30Z</time>
      </trkpt>
      <trkpt lat="46.608" lon="6.04934">
        <ele>1131.61</ele>
        <time>2011-10-15T12:30:33Z</time>
      </trkpt>
      <trkpt lat="46.608" lon="6.04929">
        <ele>1130.17</ele>
        <time>2011-10-15T12:30:35Z</time>
      </trkpt>
      <trkpt lat="46.608" lon="6.04926">
        <ele>1130.17</ele>
        <time>2011-10-15T12:30:36Z</time>
      </trkpt>
      <trkpt lat="46.60801" lon="6.04921">
        <ele>1129.21</ele>
        <time>2011-10-15T12:30:37Z</time>
      </trkpt>
      <trkpt lat="46.60803" lon="6.04905">
        <ele>1126.8</ele>
        <time>2011-10-15T12:30:40Z</time>
      </trkpt>
      <trkpt lat="46.60807" lon="6.04888">
        <ele>1126.32</ele>
        <time>2011-10-15T12:30:45Z</time>
      </trkpt>
      <trkpt lat="46.60807" lon="6.04883">
        <ele>1126.8</ele>
        <time>2011-10-15T12:30:48Z</time>
      </trkpt>
      <trkpt lat="46.60807" lon="6.04879">
        <ele>1127.76</ele>
        <time>2011-10-15T12:30:49Z</time>
      </trkpt>
      <trkpt lat="46.60807" lon="6.04876">
        <ele>1127.28</ele>
        <time>2011-10-15T12:30:50Z</time>
      </trkpt>
      <trkpt lat="46.60807" lon="6.04873">
        <ele>1127.28</ele>
        <time>2011-10-15T12:30:51Z</time>
      </trkpt>
      <trkpt lat="46.60808" lon="6.0487">
        <ele>1127.76</ele>
        <time>2011-10-15T12:30:52Z</time>
      </trkpt>
      <trkpt lat="46.60809" lon="6.04868">
        <ele>1127.76</ele>
        <time>2011-10-15T12:30:53Z</time>
      </trkpt>
      <trkpt lat="46.6081" lon="6.04866">
        <ele>1127.28</ele>
        <time>2011-10-15T12:30:54Z</time>
      </trkpt>
      <trkpt lat="46.6081" lon="6.04863">
        <ele>1127.76</ele>
        <time>2011-10-15T12:30:55Z</time>
      </trkpt>
      <trkpt lat="46.60812" lon="6.04849">
        <ele>1129.69</ele>
        <time>2011-10-15T12:31:01Z</time>
      </trkpt>
      <trkpt lat="46.60812" lon="6.04847">
        <ele>1130.17</ele>
        <time>2011-10-15T12:31:02Z</time>
      </trkpt>
      <trkpt lat="46.60814" lon="6.04837">
        <ele>1131.61</ele>
        <time>2011-10-15T12:31:09Z</time>
      </trkpt>
      <trkpt lat="46.60814" lon="6.04834">
        <ele>1131.61</ele>
        <time>2011-10-15T12:31:10Z</time>
      </trkpt>
      <trkpt lat="46.60813" lon="6.04832">
        <ele>1131.61</ele>
        <time>2011-10-15T12:31:11Z</time>
      </trkpt>
      <trkpt lat="46.60809" lon="6.04814">
        <ele>1132.09</ele>
        <time>2011-10-15T12:31:18Z</time>
      </trkpt>
      <trkpt lat="46.6081" lon="6.04811">
        <ele>1133.53</ele>
        <time>2011-10-15T12:31:19Z</time>
      </trkpt>
      <trkpt lat="46.6081" lon="6.04808">
        <ele>1133.53</ele>
        <time>2011-10-15T12:31:20Z</time>
      </trkpt>
      <trkpt lat="46.60811" lon="6.04805">
        <ele>1133.53</ele>
        <time>2011-10-15T12:31:21Z</time>
      </trkpt>
      <trkpt lat="46.60811" lon="6.04801">
        <ele>1134.01</ele>
        <time>2011-10-15T12:31:23Z</time>
      </trkpt>
      <trkpt lat="46.60812" lon="6.04796">
        <ele>1133.53</ele>
        <time>2011-10-15T12:31:25Z</time>
      </trkpt>
      <trkpt lat="46.60814" lon="6.04792">
        <ele>1134.49</ele>
        <time>2011-10-15T12:31:27Z</time>
      </trkpt>
      <trkpt lat="46.60814" lon="6.04788">
        <ele>1135.45</ele>
        <time>2011-10-15T12:31:29Z</time>
      </trkpt>
      <trkpt lat="46.60815" lon="6.04786">
        <ele>1134.97</ele>
        <time>2011-10-15T12:31:30Z</time>
      </trkpt>
      <trkpt lat="46.60815" lon="6.04783">
        <ele>1134.49</ele>
        <time>2011-10-15T12:31:31Z</time>
      </trkpt>
      <trkpt lat="46.60817" lon="6.04779">
        <ele>1135.94</ele>
        <time>2011-10-15T12:31:45Z</time>
      </trkpt>
      <trkpt lat="46.60818" lon="6.04779">
        <ele>1135.45</ele>
        <time>2011-10-15T12:32:07Z</time>
      </trkpt>
      <trkpt lat="46.60824" lon="6.04775">
        <ele>1135.45</ele>
        <time>2011-10-15T12:32:18Z</time>
      </trkpt>
      <trkpt lat="46.60823" lon="6.04774">
        <ele>1136.42</ele>
        <time>2011-10-15T12:33:49Z</time>
      </trkpt>
      <trkpt lat="46.60826" lon="6.04751">
        <ele>1134.49</ele>
        <time>2011-10-15T12:33:55Z</time>
      </trkpt>
      <trkpt lat="46.60827" lon="6.04744">
        <ele>1134.01</ele>
        <time>2011-10-15T12:33:56Z</time>
      </trkpt>
      <trkpt lat="46.60827" lon="6.04736">
        <ele>1133.05</ele>
        <time>2011-10-15T12:33:57Z</time>
      </trkpt>
      <trkpt lat="46.6083" lon="6.04709">
        <ele>1130.17</ele>
        <time>2011-10-15T12:34:00Z</time>
      </trkpt>
      <trkpt lat="46.60832" lon="6.04675">
        <ele>1126.8</ele>
        <time>2011-10-15T12:34:06Z</time>
      </trkpt>
      <trkpt lat="46.60835" lon="6.04654">
        <ele>1123.92</ele>
        <time>2011-10-15T12:34:09Z</time>
      </trkpt>
      <trkpt lat="46.60837" lon="6.04646">
        <ele>1122.96</ele>
        <time>2011-10-15T12:34:10Z</time>
      </trkpt>
      <trkpt lat="46.6084" lon="6.04639">
        <ele>1122</ele>
        <time>2011-10-15T12:34:11Z</time>
      </trkpt>
      <trkpt lat="46.60843" lon="6.04632">
        <ele>1122</ele>
        <time>2011-10-15T12:34:12Z</time>
      </trkpt>
      <trkpt lat="46.60852" lon="6.04612">
        <ele>1121.52</ele>
        <time>2011-10-15T12:34:15Z</time>
      </trkpt>
      <trkpt lat="46.60855" lon="6.04606">
        <ele>1120.55</ele>
        <time>2011-10-15T12:34:16Z</time>
      </trkpt>
      <trkpt lat="46.60858" lon="6.04601">
        <ele>1121.52</ele>
        <time>2011-10-15T12:34:17Z</time>
      </trkpt>
      <trkpt lat="46.6086" lon="6.04596">
        <ele>1121.03</ele>
        <time>2011-10-15T12:34:18Z</time>
      </trkpt>
      <trkpt lat="46.60862" lon="6.04591">
        <ele>1121.03</ele>
        <time>2011-10-15T12:34:19Z</time>
      </trkpt>
      <trkpt lat="46.60876" lon="6.04565">
        <ele>1118.15</ele>
        <time>2011-10-15T12:34:25Z</time>
      </trkpt>
      <trkpt lat="46.60879" lon="6.04561">
        <ele>1117.67</ele>
        <time>2011-10-15T12:34:26Z</time>
      </trkpt>
      <trkpt lat="46.60882" lon="6.04558">
        <ele>1116.71</ele>
        <time>2011-10-15T12:34:27Z</time>
      </trkpt>
      <trkpt lat="46.60886" lon="6.04554">
        <ele>1116.23</ele>
        <time>2011-10-15T12:34:28Z</time>
      </trkpt>
      <trkpt lat="46.6089" lon="6.04549">
        <ele>1114.79</ele>
        <time>2011-10-15T12:34:29Z</time>
      </trkpt>
      <trkpt lat="46.60894" lon="6.04545">
        <ele>1114.31</ele>
        <time>2011-10-15T12:34:30Z</time>
      </trkpt>
      <trkpt lat="46.60898" lon="6.04543">
        <ele>1113.82</ele>
        <time>2011-10-15T12:34:31Z</time>
      </trkpt>
      <trkpt lat="46.60903" lon="6.0454">
        <ele>1113.34</ele>
        <time>2011-10-15T12:34:32Z</time>
      </trkpt>
      <trkpt lat="46.60907" lon="6.04536">
        <ele>1112.38</ele>
        <time>2011-10-15T12:34:33Z</time>
      </trkpt>
      <trkpt lat="46.60911" lon="6.04533">
        <ele>1112.38</ele>
        <time>2011-10-15T12:34:34Z</time>
      </trkpt>
      <trkpt lat="46.60928" lon="6.04525">
        <ele>1109.02</ele>
        <time>2011-10-15T12:34:38Z</time>
      </trkpt>
      <trkpt lat="46.60932" lon="6.04522">
        <ele>1109.02</ele>
        <time>2011-10-15T12:34:39Z</time>
      </trkpt>
      <trkpt lat="46.60939" lon="6.04513">
        <ele>1106.61</ele>
        <time>2011-10-15T12:34:41Z</time>
      </trkpt>
      <trkpt lat="46.60942" lon="6.04506">
        <ele>1105.65</ele>
        <time>2011-10-15T12:34:42Z</time>
      </trkpt>
      <trkpt lat="46.60943" lon="6.045">
        <ele>1105.65</ele>
        <time>2011-10-15T12:34:43Z</time>
      </trkpt>
      <trkpt lat="46.60943" lon="6.04494">
        <ele>1104.69</ele>
        <time>2011-10-15T12:34:44Z</time>
      </trkpt>
      <trkpt lat="46.60943" lon="6.04489">
        <ele>1104.69</ele>
        <time>2011-10-15T12:34:45Z</time>
      </trkpt>
      <trkpt lat="46.60942" lon="6.04483">
        <ele>1103.73</ele>
        <time>2011-10-15T12:34:46Z</time>
      </trkpt>
      <trkpt lat="46.60942" lon="6.04477">
        <ele>1102.77</ele>
        <time>2011-10-15T12:34:47Z</time>
      </trkpt>
      <trkpt lat="46.60942" lon="6.04456">
        <ele>1099.4</ele>
        <time>2011-10-15T12:34:50Z</time>
      </trkpt>
      <trkpt lat="46.60943" lon="6.0445">
        <ele>1099.4</ele>
        <time>2011-10-15T12:34:51Z</time>
      </trkpt>
      <trkpt lat="46.60948" lon="6.04416">
        <ele>1095.56</ele>
        <time>2011-10-15T12:34:55Z</time>
      </trkpt>
      <trkpt lat="46.60956" lon="6.04384">
        <ele>1093.64</ele>
        <time>2011-10-15T12:34:58Z</time>
      </trkpt>
      <trkpt lat="46.60965" lon="6.04354">
        <ele>1092.2</ele>
        <time>2011-10-15T12:35:01Z</time>
      </trkpt>
      <trkpt lat="46.60967" lon="6.04344">
        <ele>1091.23</ele>
        <time>2011-10-15T12:35:02Z</time>
      </trkpt>
      <trkpt lat="46.60968" lon="6.04335">
        <ele>1091.23</ele>
        <time>2011-10-15T12:35:03Z</time>
      </trkpt>
      <trkpt lat="46.6097" lon="6.04316">
        <ele>1089.31</ele>
        <time>2011-10-15T12:35:05Z</time>
      </trkpt>
      <trkpt lat="46.60971" lon="6.04306">
        <ele>1088.35</ele>
        <time>2011-10-15T12:35:06Z</time>
      </trkpt>
      <trkpt lat="46.60973" lon="6.04281">
        <ele>1086.43</ele>
        <time>2011-10-15T12:35:09Z</time>
      </trkpt>
      <trkpt lat="46.60972" lon="6.0425">
        <ele>1083.06</ele>
        <time>2011-10-15T12:35:12Z</time>
      </trkpt>
      <trkpt lat="46.60971" lon="6.04239">
        <ele>1081.14</ele>
        <time>2011-10-15T12:35:13Z</time>
      </trkpt>
      <trkpt lat="46.6097" lon="6.042">
        <ele>1077.78</ele>
        <time>2011-10-15T12:35:17Z</time>
      </trkpt>
      <trkpt lat="46.60972" lon="6.0419">
        <ele>1077.29</ele>
        <time>2011-10-15T12:35:18Z</time>
      </trkpt>
      <trkpt lat="46.60977" lon="6.04181">
        <ele>1076.33</ele>
        <time>2011-10-15T12:35:19Z</time>
      </trkpt>
      <trkpt lat="46.60987" lon="6.04162">
        <ele>1073.93</ele>
        <time>2011-10-15T12:35:21Z</time>
      </trkpt>
      <trkpt lat="46.60993" lon="6.04152">
        <ele>1073.45</ele>
        <time>2011-10-15T12:35:22Z</time>
      </trkpt>
      <trkpt lat="46.60999" lon="6.04144">
        <ele>1073.93</ele>
        <time>2011-10-15T12:35:23Z</time>
      </trkpt>
      <trkpt lat="46.61005" lon="6.04136">
        <ele>1073.45</ele>
        <time>2011-10-15T12:35:24Z</time>
      </trkpt>
      <trkpt lat="46.6101" lon="6.04128">
        <ele>1072.97</ele>
        <time>2011-10-15T12:35:25Z</time>
      </trkpt>
      <trkpt lat="46.61013" lon="6.04121">
        <ele>1072.01</ele>
        <time>2011-10-15T12:35:26Z</time>
      </trkpt>
      <trkpt lat="46.61029" lon="6.04096">
        <ele>1071.53</ele>
        <time>2011-10-15T12:35:34Z</time>
      </trkpt>
      <trkpt lat="46.61031" lon="6.04093">
        <ele>1072.49</ele>
        <time>2011-10-15T12:35:36Z</time>
      </trkpt>
      <trkpt lat="46.61031" lon="6.04092">
        <ele>1072.49</ele>
        <time>2011-10-15T12:35:37Z</time>
      </trkpt>
      <trkpt lat="46.6103" lon="6.04094">
        <ele>1072.97</ele>
        <time>2011-10-15T12:35:38Z</time>
      </trkpt>
      <trkpt lat="46.6103" lon="6.04096">
        <ele>1072.49</ele>
        <time>2011-10-15T12:35:39Z</time>
      </trkpt>
      <trkpt lat="46.6103" lon="6.04099">
        <ele>1072.01</ele>
        <time>2011-10-15T12:35:40Z</time>
      </trkpt>
      <trkpt lat="46.61031" lon="6.04101">
        <ele>1072.01</ele>
        <time>2011-10-15T12:35:41Z</time>
      </trkpt>
      <trkpt lat="46.61048" lon="6.04109">
        <ele>1072.97</ele>
        <time>2011-10-15T12:35:49Z</time>
      </trkpt>
      <trkpt lat="46.6105" lon="6.04111">
        <ele>1073.45</ele>
        <time>2011-10-15T12:36:11Z</time>
      </trkpt>
      <trkpt lat="46.61049" lon="6.04112">
        <ele>1074.89</ele>
        <time>2011-10-15T12:37:18Z</time>
      </trkpt>
      <trkpt lat="46.61048" lon="6.04113">
        <ele>1074.41</ele>
        <time>2011-10-15T12:37:23Z</time>
      </trkpt>
      <trkpt lat="46.61044" lon="6.04114">
        <ele>1073.93</ele>
        <time>2011-10-15T12:37:26Z</time>
      </trkpt>
      <trkpt lat="46.61039" lon="6.04096">
        <ele>1074.89</ele>
        <time>2011-10-15T12:37:35Z</time>
      </trkpt>
      <trkpt lat="46.6104" lon="6.04089">
        <ele>1074.41</ele>
        <time>2011-10-15T12:37:38Z</time>
      </trkpt>
      <trkpt lat="46.6105" lon="6.04045">
        <ele>1074.89</ele>
        <time>2011-10-15T12:37:49Z</time>
      </trkpt>
      <trkpt lat="46.61055" lon="6.04021">
        <ele>1074.41</ele>
        <time>2011-10-15T12:37:54Z</time>
      </trkpt>
      <trkpt lat="46.61077" lon="6.04005">
        <ele>1076.81</ele>
        <time>2011-10-15T12:38:04Z</time>
      </trkpt>
      <trkpt lat="46.61099" lon="6.04002">
        <ele>1076.33</ele>
        <time>2011-10-15T12:38:12Z</time>
      </trkpt>
      <trkpt lat="46.61104" lon="6.03995">
        <ele>1076.81</ele>
        <time>2011-10-15T12:38:14Z</time>
      </trkpt>
      <trkpt lat="46.61107" lon="6.03991">
        <ele>1075.85</ele>
        <time>2011-10-15T12:38:15Z</time>
      </trkpt>
      <trkpt lat="46.6112" lon="6.03975">
        <ele>1072.49</ele>
        <time>2011-10-15T12:38:18Z</time>
      </trkpt>
      <trkpt lat="46.61125" lon="6.03969">
        <ele>1072.49</ele>
        <time>2011-10-15T12:38:19Z</time>
      </trkpt>
      <trkpt lat="46.61136" lon="6.0396">
        <ele>1069.12</ele>
        <time>2011-10-15T12:38:21Z</time>
      </trkpt>
      <trkpt lat="46.61145" lon="6.03954">
        <ele>1068.16</ele>
        <time>2011-10-15T12:38:22Z</time>
      </trkpt>
      <trkpt lat="46.61153" lon="6.03948">
        <ele>1067.68</ele>
        <time>2011-10-15T12:38:23Z</time>
      </trkpt>
      <trkpt lat="46.61162" lon="6.03941">
        <ele>1066.72</ele>
        <time>2011-10-15T12:38:24Z</time>
      </trkpt>
      <trkpt lat="46.61169" lon="6.03932">
        <ele>1066.24</ele>
        <time>2011-10-15T12:38:25Z</time>
      </trkpt>
      <trkpt lat="46.61181" lon="6.03914">
        <ele>1062.87</ele>
        <time>2011-10-15T12:38:27Z</time>
      </trkpt>
      <trkpt lat="46.61194" lon="6.03889">
        <ele>1059.51</ele>
        <time>2011-10-15T12:38:30Z</time>
      </trkpt>
      <trkpt lat="46.61196" lon="6.03882">
        <ele>1059.03</ele>
        <time>2011-10-15T12:38:31Z</time>
      </trkpt>
      <trkpt lat="46.61203" lon="6.03858">
        <ele>1056.63</ele>
        <time>2011-10-15T12:38:36Z</time>
      </trkpt>
      <trkpt lat="46.61208" lon="6.03846">
        <ele>1055.18</ele>
        <time>2011-10-15T12:38:38Z</time>
      </trkpt>
      <trkpt lat="46.61216" lon="6.0383">
        <ele>1054.7</ele>
        <time>2011-10-15T12:38:40Z</time>
      </trkpt>
      <trkpt lat="46.61224" lon="6.03811">
        <ele>1052.3</ele>
        <time>2011-10-15T12:38:42Z</time>
      </trkpt>
      <trkpt lat="46.6123" lon="6.03801">
        <ele>1050.86</ele>
        <time>2011-10-15T12:38:43Z</time>
      </trkpt>
      <trkpt lat="46.61235" lon="6.03792">
        <ele>1050.38</ele>
        <time>2011-10-15T12:38:44Z</time>
      </trkpt>
      <trkpt lat="46.6124" lon="6.03785">
        <ele>1048.94</ele>
        <time>2011-10-15T12:38:45Z</time>
      </trkpt>
      <trkpt lat="46.61245" lon="6.0378">
        <ele>1047.49</ele>
        <time>2011-10-15T12:38:46Z</time>
      </trkpt>
      <trkpt lat="46.61251" lon="6.03776">
        <ele>1046.53</ele>
        <time>2011-10-15T12:38:47Z</time>
      </trkpt>
      <trkpt lat="46.61257" lon="6.03774">
        <ele>1046.05</ele>
        <time>2011-10-15T12:38:48Z</time>
      </trkpt>
      <trkpt lat="46.61263" lon="6.03774">
        <ele>1044.61</ele>
        <time>2011-10-15T12:38:49Z</time>
      </trkpt>
      <trkpt lat="46.61269" lon="6.03778">
        <ele>1044.13</ele>
        <time>2011-10-15T12:38:50Z</time>
      </trkpt>
      <trkpt lat="46.61281" lon="6.03787">
        <ele>1041.73</ele>
        <time>2011-10-15T12:38:52Z</time>
      </trkpt>
      <trkpt lat="46.61287" lon="6.03791">
        <ele>1040.28</ele>
        <time>2011-10-15T12:38:53Z</time>
      </trkpt>
      <trkpt lat="46.61293" lon="6.03795">
        <ele>1039.8</ele>
        <time>2011-10-15T12:38:54Z</time>
      </trkpt>
      <trkpt lat="46.613" lon="6.03796">
        <ele>1038.36</ele>
        <time>2011-10-15T12:38:55Z</time>
      </trkpt>
      <trkpt lat="46.61313" lon="6.03798">
        <ele>1036.92</ele>
        <time>2011-10-15T12:38:57Z</time>
      </trkpt>
      <trkpt lat="46.61321" lon="6.038">
        <ele>1035.48</ele>
        <time>2011-10-15T12:38:58Z</time>
      </trkpt>
      <trkpt lat="46.61329" lon="6.03804">
        <ele>1034.52</ele>
        <time>2011-10-15T12:38:59Z</time>
      </trkpt>
      <trkpt lat="46.61336" lon="6.0381">
        <ele>1033.07</ele>
        <time>2011-10-15T12:39:00Z</time>
      </trkpt>
      <trkpt lat="46.61342" lon="6.03818">
        <ele>1033.07</ele>
        <time>2011-10-15T12:39:01Z</time>
      </trkpt>
      <trkpt lat="46.6135" lon="6.03826">
        <ele>1030.67</ele>
        <time>2011-10-15T12:39:02Z</time>
      </trkpt>
      <trkpt lat="46.61356" lon="6.03832">
        <ele>1030.19</ele>
        <time>2011-10-15T12:39:03Z</time>
      </trkpt>
      <trkpt lat="46.61362" lon="6.03837">
        <ele>1028.27</ele>
        <time>2011-10-15T12:39:04Z</time>
      </trkpt>
      <trkpt lat="46.61368" lon="6.03839">
        <ele>1027.31</ele>
        <time>2011-10-15T12:39:05Z</time>
      </trkpt>
      <trkpt lat="46.61378" lon="6.03844">
        <ele>1024.9</ele>
        <time>2011-10-15T12:39:07Z</time>
      </trkpt>
      <trkpt lat="46.61382" lon="6.03851">
        <ele>1023.46</ele>
        <time>2011-10-15T12:39:08Z</time>
      </trkpt>
      <trkpt lat="46.61387" lon="6.0386">
        <ele>1022.98</ele>
        <time>2011-10-15T12:39:09Z</time>
      </trkpt>
      <trkpt lat="46.61398" lon="6.0388">
        <ele>1020.1</ele>
        <time>2011-10-15T12:39:11Z</time>
      </trkpt>
      <trkpt lat="46.61404" lon="6.03888">
        <ele>1020.1</ele>
        <time>2011-10-15T12:39:12Z</time>
      </trkpt>
      <trkpt lat="46.61409" lon="6.03893">
        <ele>1018.65</ele>
        <time>2011-10-15T12:39:13Z</time>
      </trkpt>
      <trkpt lat="46.61416" lon="6.03898">
        <ele>1017.69</ele>
        <time>2011-10-15T12:39:14Z</time>
      </trkpt>
      <trkpt lat="46.61422" lon="6.03902">
        <ele>1017.21</ele>
        <time>2011-10-15T12:39:15Z</time>
      </trkpt>
      <trkpt lat="46.6143" lon="6.03904">
        <ele>1015.29</ele>
        <time>2011-10-15T12:39:16Z</time>
      </trkpt>
      <trkpt lat="46.61436" lon="6.03904">
        <ele>1014.81</ele>
        <time>2011-10-15T12:39:17Z</time>
      </trkpt>
      <trkpt lat="46.61443" lon="6.039">
        <ele>1013.37</ele>
        <time>2011-10-15T12:39:18Z</time>
      </trkpt>
      <trkpt lat="46.61457" lon="6.03879">
        <ele>1011.44</ele>
        <time>2011-10-15T12:39:21Z</time>
      </trkpt>
      <trkpt lat="46.61468" lon="6.03864">
        <ele>1009.52</ele>
        <time>2011-10-15T12:39:23Z</time>
      </trkpt>
      <trkpt lat="46.61477" lon="6.03856">
        <ele>1008.56</ele>
        <time>2011-10-15T12:39:24Z</time>
      </trkpt>
      <trkpt lat="46.61487" lon="6.03848">
        <ele>1006.64</ele>
        <time>2011-10-15T12:39:25Z</time>
      </trkpt>
      <trkpt lat="46.61495" lon="6.03838">
        <ele>1006.16</ele>
        <time>2011-10-15T12:39:26Z</time>
      </trkpt>
      <trkpt lat="46.61509" lon="6.03817">
        <ele>1002.79</ele>
        <time>2011-10-15T12:39:28Z</time>
      </trkpt>
      <trkpt lat="46.61519" lon="6.03797">
        <ele>999.91</ele>
        <time>2011-10-15T12:39:30Z</time>
      </trkpt>
      <trkpt lat="46.61532" lon="6.0377">
        <ele>998.47</ele>
        <time>2011-10-15T12:39:33Z</time>
      </trkpt>
      <trkpt lat="46.61536" lon="6.03752">
        <ele>995.58</ele>
        <time>2011-10-15T12:39:35Z</time>
      </trkpt>
      <trkpt lat="46.6154" lon="6.03733">
        <ele>993.66</ele>
        <time>2011-10-15T12:39:37Z</time>
      </trkpt>
      <trkpt lat="46.61541" lon="6.03714">
        <ele>991.74</ele>
        <time>2011-10-15T12:39:39Z</time>
      </trkpt>
      <trkpt lat="46.6154" lon="6.03692">
        <ele>990.78</ele>
        <time>2011-10-15T12:39:41Z</time>
      </trkpt>
      <trkpt lat="46.61543" lon="6.03651">
        <ele>986.45</ele>
        <time>2011-10-15T12:39:45Z</time>
      </trkpt>
      <trkpt lat="46.61549" lon="6.03578">
        <ele>982.12</ele>
        <time>2011-10-15T12:39:50Z</time>
      </trkpt>
      <trkpt lat="46.61551" lon="6.03563">
        <ele>981.16</ele>
        <time>2011-10-15T12:39:51Z</time>
      </trkpt>
      <trkpt lat="46.61554" lon="6.03549">
        <ele>980.2</ele>
        <time>2011-10-15T12:39:52Z</time>
      </trkpt>
      <trkpt lat="46.61565" lon="6.03488">
        <ele>976.84</ele>
        <time>2011-10-15T12:39:56Z</time>
      </trkpt>
      <trkpt lat="46.61571" lon="6.0346">
        <ele>974.43</ele>
        <time>2011-10-15T12:39:58Z</time>
      </trkpt>
      <trkpt lat="46.61585" lon="6.03418">
        <ele>971.07</ele>
        <time>2011-10-15T12:40:02Z</time>
      </trkpt>
      <trkpt lat="46.61593" lon="6.0336">
        <ele>967.7</ele>
        <time>2011-10-15T12:40:07Z</time>
      </trkpt>
      <trkpt lat="46.61592" lon="6.03349">
        <ele>967.7</ele>
        <time>2011-10-15T12:40:08Z</time>
      </trkpt>
      <trkpt lat="46.61591" lon="6.03338">
        <ele>965.78</ele>
        <time>2011-10-15T12:40:09Z</time>
      </trkpt>
      <trkpt lat="46.61589" lon="6.03326">
        <ele>965.78</ele>
        <time>2011-10-15T12:40:10Z</time>
      </trkpt>
      <trkpt lat="46.61588" lon="6.03314">
        <ele>964.34</ele>
        <time>2011-10-15T12:40:11Z</time>
      </trkpt>
      <trkpt lat="46.61583" lon="6.03302">
        <ele>964.34</ele>
        <time>2011-10-15T12:40:12Z</time>
      </trkpt>
      <trkpt lat="46.61566" lon="6.03261">
        <ele>961.94</ele>
        <time>2011-10-15T12:40:15Z</time>
      </trkpt>
      <trkpt lat="46.61554" lon="6.03219">
        <ele>959.53</ele>
        <time>2011-10-15T12:40:18Z</time>
      </trkpt>
      <trkpt lat="46.61541" lon="6.03182">
        <ele>958.09</ele>
        <time>2011-10-15T12:40:21Z</time>
      </trkpt>
      <trkpt lat="46.61524" lon="6.03151">
        <ele>954.73</ele>
        <time>2011-10-15T12:40:24Z</time>
      </trkpt>
      <trkpt lat="46.615" lon="6.03104">
        <ele>951.84</ele>
        <time>2011-10-15T12:40:28Z</time>
      </trkpt>
      <trkpt lat="46.61498" lon="6.03092">
        <ele>951.36</ele>
        <time>2011-10-15T12:40:29Z</time>
      </trkpt>
      <trkpt lat="46.61498" lon="6.03082">
        <ele>951.36</ele>
        <time>2011-10-15T12:40:30Z</time>
      </trkpt>
      <trkpt lat="46.61498" lon="6.03074">
        <ele>949.44</ele>
        <time>2011-10-15T12:40:31Z</time>
      </trkpt>
      <trkpt lat="46.615" lon="6.03068">
        <ele>949.44</ele>
        <time>2011-10-15T12:40:32Z</time>
      </trkpt>
      <trkpt lat="46.61501" lon="6.03063">
        <ele>948.96</ele>
        <time>2011-10-15T12:40:33Z</time>
      </trkpt>
      <trkpt lat="46.61497" lon="6.03062">
        <ele>950.4</ele>
        <time>2011-10-15T12:40:42Z</time>
      </trkpt>
      <trkpt lat="46.61497" lon="6.03062">
        <ele>950.88</ele>
        <time>2011-10-15T12:40:56Z</time>
      </trkpt>
      <trkpt lat="46.61511" lon="6.03048">
        <ele>948.48</ele>
        <time>2011-10-15T12:41:10Z</time>
      </trkpt>
      <trkpt lat="46.61514" lon="6.03044">
        <ele>948.96</ele>
        <time>2011-10-15T12:41:11Z</time>
      </trkpt>
      <trkpt lat="46.61524" lon="6.0303">
        <ele>948.48</ele>
        <time>2011-10-15T12:41:14Z</time>
      </trkpt>
      <trkpt lat="46.61525" lon="6.03024">
        <ele>947.52</ele>
        <time>2011-10-15T12:41:15Z</time>
      </trkpt>
      <trkpt lat="46.61527" lon="6.03017">
        <ele>947.04</ele>
        <time>2011-10-15T12:41:16Z</time>
      </trkpt>
      <trkpt lat="46.61529" lon="6.03011">
        <ele>946.56</ele>
        <time>2011-10-15T12:41:17Z</time>
      </trkpt>
      <trkpt lat="46.61535" lon="6.03006">
        <ele>945.59</ele>
        <time>2011-10-15T12:41:18Z</time>
      </trkpt>
      <trkpt lat="46.61542" lon="6.03003">
        <ele>945.11</ele>
        <time>2011-10-15T12:41:19Z</time>
      </trkpt>
      <trkpt lat="46.6155" lon="6.03">
        <ele>945.59</ele>
        <time>2011-10-15T12:41:20Z</time>
      </trkpt>
      <trkpt lat="46.61557" lon="6.02998">
        <ele>944.63</ele>
        <time>2011-10-15T12:41:21Z</time>
      </trkpt>
      <trkpt lat="46.61566" lon="6.02999">
        <ele>945.59</ele>
        <time>2011-10-15T12:41:22Z</time>
      </trkpt>
      <trkpt lat="46.61589" lon="6.02993">
        <ele>944.63</ele>
        <time>2011-10-15T12:41:25Z</time>
      </trkpt>
      <trkpt lat="46.61595" lon="6.02988">
        <ele>944.15</ele>
        <time>2011-10-15T12:41:26Z</time>
      </trkpt>
      <trkpt lat="46.61601" lon="6.02983">
        <ele>945.11</ele>
        <time>2011-10-15T12:41:27Z</time>
      </trkpt>
      <trkpt lat="46.61606" lon="6.02977">
        <ele>945.59</ele>
        <time>2011-10-15T12:41:28Z</time>
      </trkpt>
      <trkpt lat="46.61611" lon="6.02971">
        <ele>945.11</ele>
        <time>2011-10-15T12:41:29Z</time>
      </trkpt>
      <trkpt lat="46.61613" lon="6.02964">
        <ele>945.11</ele>
        <time>2011-10-15T12:41:30Z</time>
      </trkpt>
      <trkpt lat="46.61618" lon="6.02955">
        <ele>945.11</ele>
        <time>2011-10-15T12:41:32Z</time>
      </trkpt>
      <trkpt lat="46.61621" lon="6.02954">
        <ele>945.59</ele>
        <time>2011-10-15T12:41:33Z</time>
      </trkpt>
      <trkpt lat="46.61624" lon="6.02956">
        <ele>946.56</ele>
        <time>2011-10-15T12:41:34Z</time>
      </trkpt>
      <trkpt lat="46.61627" lon="6.02959">
        <ele>946.56</ele>
        <time>2011-10-15T12:41:35Z</time>
      </trkpt>
      <trkpt lat="46.61629" lon="6.02963">
        <ele>942.23</ele>
        <time>2011-10-15T12:41:36Z</time>
      </trkpt>
      <trkpt lat="46.61632" lon="6.02967">
        <ele>945.59</ele>
        <time>2011-10-15T12:41:37Z</time>
      </trkpt>
      <trkpt lat="46.61642" lon="6.02979">
        <ele>947.52</ele>
        <time>2011-10-15T12:41:40Z</time>
      </trkpt>
      <trkpt lat="46.61669" lon="6.03015">
        <ele>949.44</ele>
        <time>2011-10-15T12:41:53Z</time>
      </trkpt>
      <trkpt lat="46.61676" lon="6.02991">
        <ele>928.9140625</ele>
      </trkpt>
      <trkpt lat="46.61671" lon="6.02972">
        <ele>928.2109375</ele>
      </trkpt>
      <trkpt lat="46.61663" lon="6.02956">
        <ele>928</ele>
      </trkpt>
      <trkpt lat="46.61673" lon="6.02945">
        <ele>928</ele>
      </trkpt>
      <trkpt lat="46.61687" lon="6.02937">
        <ele>927.94921875</ele>
      </trkpt>
      <trkpt lat="46.617" lon="6.02929">
        <ele>927.51171875</ele>
      </trkpt>
      <trkpt lat="46.61709" lon="6.02913">
        <ele>926.4296875</ele>
      </trkpt>
      <trkpt lat="46.61717" lon="6.02898">
        <ele>925.54296875</ele>
      </trkpt>
      <trkpt lat="46.61719" lon="6.02874">
        <ele>924.95703125</ele>
      </trkpt>
      <trkpt lat="46.61725" lon="6.02855">
        <ele>924.66015625</ele>
      </trkpt>
      <trkpt lat="46.6173" lon="6.02835">
        <ele>924.140625</ele>
      </trkpt>
      <trkpt lat="46.61735" lon="6.02816">
        <ele>923.70703125</ele>
      </trkpt>
      <trkpt lat="46.61741" lon="6.02796">
        <ele>923.0859375</ele>
      </trkpt>
      <trkpt lat="46.61744" lon="6.02773">
        <ele>922.98046875</ele>
      </trkpt>
      <trkpt lat="46.61744" lon="6.02746">
        <ele>922.98046875</ele>
      </trkpt>
      <trkpt lat="46.61744" lon="6.02719">
        <ele>923.85546875</ele>
      </trkpt>
      <trkpt lat="46.61741" lon="6.02695">
        <ele>923.3984375</ele>
      </trkpt>
      <trkpt lat="46.61735" lon="6.02676">
        <ele>923.20703125</ele>
      </trkpt>
      <trkpt lat="46.6173" lon="6.02656">
        <ele>923.3203125</ele>
      </trkpt>
      <trkpt lat="46.61727" lon="6.02633">
        <ele>923.125</ele>
      </trkpt>
      <trkpt lat="46.61722" lon="6.02613">
        <ele>923.51171875</ele>
      </trkpt>
      <trkpt lat="46.61719" lon="6.0259">
        <ele>923.78515625</ele>
      </trkpt>
      <trkpt lat="46.61719" lon="6.02563">
        <ele>923.8515625</ele>
      </trkpt>
      <trkpt lat="46.61719" lon="6.02535">
        <ele>923.8515625</ele>
      </trkpt>
      <trkpt lat="46.61717" lon="6.02512">
        <ele>923.96875</ele>
      </trkpt>
      <trkpt lat="46.61714" lon="6.02489">
        <ele>924</ele>
      </trkpt>
      <trkpt lat="46.61714" lon="6.02461">
        <ele>923.8203125</ele>
      </trkpt>
      <trkpt lat="46.61711" lon="6.02438">
        <ele>922.99609375</ele>
      </trkpt>
      <trkpt lat="46.61711" lon="6.02407">
        <ele>922.734375</ele>
      </trkpt>
      <trkpt lat="46.61711" lon="6.02379">
        <ele>921.98046875</ele>
      </trkpt>
      <trkpt lat="46.61717" lon="6.0236">
        <ele>922.0078125</ele>
      </trkpt>
      <trkpt lat="46.61722" lon="6.0234">
        <ele>921.59765625</ele>
      </trkpt>
      <trkpt lat="46.6173" lon="6.02317">
        <ele>921.1640625</ele>
      </trkpt>
      <trkpt lat="46.61738" lon="6.02302">
        <ele>920.890625</ele>
      </trkpt>
      <trkpt lat="46.61746" lon="6.02286">
        <ele>920.5625</ele>
      </trkpt>
      <trkpt lat="46.61752" lon="6.02266">
        <ele>920.25</ele>
      </trkpt>
      <trkpt lat="46.61757" lon="6.02247">
        <ele>920.05078125</ele>
      </trkpt>
      <trkpt lat="46.61762" lon="6.02227">
        <ele>919.21875</ele>
      </trkpt>
      <trkpt lat="46.61762" lon="6.022">
        <ele>917.70703125</ele>
      </trkpt>
      <trkpt lat="46.61762" lon="6.02173">
        <ele>916.43359375</ele>
      </trkpt>
      <trkpt lat="46.6177" lon="6.02157">
        <ele>915.87109375</ele>
      </trkpt>
      <trkpt lat="46.61776" lon="6.02138">
        <ele>915.35546875</ele>
      </trkpt>
      <trkpt lat="46.61784" lon="6.02118">
        <ele>915.22265625</ele>
      </trkpt>
      <trkpt lat="46.61789" lon="6.02099">
        <ele>914.921875</ele>
      </trkpt>
      <trkpt lat="46.61795" lon="6.02079">
        <ele>914.875</ele>
      </trkpt>
      <trkpt lat="46.618" lon="6.0206">
        <ele>914.36328125</ele>
      </trkpt>
      <trkpt lat="46.61811" lon="6.02048">
        <ele>913.94140625</ele>
      </trkpt>
      <trkpt lat="46.61824" lon="6.0204">
        <ele>913.66015625</ele>
      </trkpt>
      <trkpt lat="46.61832" lon="6.02021">
        <ele>913</ele>
      </trkpt>
      <trkpt lat="46.61843" lon="6.02009">
        <ele>913</ele>
      </trkpt>
      <trkpt lat="46.61851" lon="6.01994">
        <ele>912.9765625</ele>
      </trkpt>
      <trkpt lat="46.61859" lon="6.01978">
        <ele>912.30078125</ele>
      </trkpt>
      <trkpt lat="46.61868" lon="6.01962">
        <ele>911.4375</ele>
      </trkpt>
      <trkpt lat="46.61873" lon="6.01943">
        <ele>911.046875</ele>
      </trkpt>
      <trkpt lat="46.61878" lon="6.01923">
        <ele>910.51953125</ele>
      </trkpt>
      <trkpt lat="46.61886" lon="6.01908">
        <ele>910.11328125</ele>
      </trkpt>
      <trkpt lat="46.61889" lon="6.01885">
        <ele>910.953125</ele>
      </trkpt>
      <trkpt lat="46.61892" lon="6.01877">
        <ele>911</ele>
      </trkpt>
    </trkseg>
  </trk>
</gpx>